Date StartTime U_cm/s V_cm/s W_cm/s Ustd_cm/s Vstd_cm/s Wstd_cm/s Uvar_(cm/s)^2 Vvar_(cm/s)^2 Wvar_(cm/s)^2 KE_(m/s)^2 TurbulentKE_(m/s)^2 HorizWindSpeed_cm/s FrictionSpeec_cm/s DragCoef SpeedOfSound_m/s SonicTemperature_C Pressure_mb 
05/13/2014  00:00:00      -42.149      -34.519       -6.669       13.649       21.064       10.701      186.285      443.700      114.516        0.188        0.037       54.480        2.440        0.002      340.166       14.000      868.675
05/13/2014  00:01:00      -49.656      -21.351       -7.637       23.630       20.152       13.272      558.362      406.085      176.136        0.206        0.057       54.052        7.543        0.019      340.220       14.091      868.674
05/13/2014  00:02:00      -55.110      -26.668       -7.644       15.126       18.370        8.680      228.804      337.443       75.336        0.222        0.032       61.224        9.504        0.024      340.060       13.821      868.675
05/13/2014  00:03:00      -41.306      -33.605      -16.386       16.358       16.070        9.536      267.582      258.256       90.945        0.186        0.031       53.250        6.767        0.016      340.035       13.779      868.676
05/13/2014  00:04:00      -42.240      -35.219      -12.399       14.599        9.706       10.519      213.121       94.209      110.649        0.180        0.021       54.996        4.985        0.008      339.774       13.339      868.682
05/13/2014  00:05:00      -20.249       19.231       -1.292       25.618       34.260        9.988      656.278     1173.744       99.757        0.136        0.096       27.926        7.214        0.067      340.515       14.589      868.688
05/13/2014  00:06:00        6.419       48.135      -11.477       17.660       17.174        8.539      311.859      294.942       72.907        0.158        0.034       48.561        8.631        0.032      340.833       15.127      868.701
05/13/2014  00:07:00      -12.014       55.355       -9.466       24.104       31.773       18.414      581.017     1009.512      339.063        0.261        0.096       56.644       18.004        0.101      340.653       14.822      868.710
05/13/2014  00:08:00      -26.066       25.489       -6.439       22.309       35.503       15.840      497.705     1260.435      250.902        0.169        0.100       36.458       15.005        0.169      340.305       14.234      868.719
05/13/2014  00:09:00      -36.315       38.640      -13.810       25.203       24.214       15.566      635.186      586.325      242.306        0.223        0.073       53.027       12.726        0.058      340.327       14.271      868.736
05/13/2014  00:10:00      -34.663       17.345      -17.454       26.517       29.086       13.485      703.133      845.999      181.837        0.177        0.087       38.761       14.484        0.140      340.297       14.221      868.753
05/13/2014  00:11:00      -40.868      -17.375      -11.386       33.354       22.688       15.030     1112.489      514.734      225.892        0.198        0.093       44.409       11.505        0.067      340.031       13.772      868.759
05/13/2014  00:12:00     -118.237      -26.066      -22.901       20.364       12.488       10.217      414.691      155.960      104.380        0.793        0.034      121.076       10.938        0.008      339.383       12.679      868.758
05/13/2014  00:13:00     -122.697      -28.213      -20.685       22.761       16.409       12.874      518.056      269.249      165.735        0.862        0.048      125.898       12.533        0.010      339.320       12.573      868.725
05/13/2014  00:14:00      -95.500      -12.934      -14.376       26.341       24.032       15.578      693.832      577.530      242.677        0.550        0.076       96.372       13.848        0.021      339.471       12.828      868.743
05/13/2014  00:15:00      -20.335       -6.871       -8.726       32.765       20.815       17.037     1073.578      433.247      290.262        0.117        0.090       21.465       13.314        0.385      340.574       14.688      868.756
05/13/2014  00:16:00      -46.000      -29.457      -10.218       31.691       19.565       14.970     1004.328      382.807      224.093        0.235        0.081       54.624       10.433        0.036      340.206       14.065      868.756
05/13/2014  00:17:00      -85.282      -21.834      -10.474       17.791       18.834        7.425      316.534      354.729       55.132        0.429        0.036       88.033        5.254        0.004      339.448       12.790      868.760
05/13/2014  00:18:00      -47.561      -33.449       -7.643       18.382       10.869        7.921      337.907      118.134       62.742        0.198        0.026       58.146        3.963        0.005      339.588       13.024      868.802
05/13/2014  00:19:00      -26.152      -19.825        8.400       41.780       18.639       12.759     1745.544      347.409      162.799        0.170        0.113       32.817       15.864        0.234      339.399       12.705      868.839
05/13/2014  00:20:00       33.915       46.714       15.790       41.540       18.802       19.841     1725.549      353.503      393.683        0.303        0.124       57.727       21.806        0.143      339.503       12.882      868.858
05/13/2014  00:21:00       62.554      -91.680       -1.366       50.875       49.138       29.601     2588.257     2414.525      876.212        0.910        0.294      110.988       27.317        0.061      340.614       14.756      868.830
05/13/2014  00:22:00      -19.748      -44.608      -16.800       48.837       16.812       19.980     2385.100      282.633      399.180        0.286        0.153       48.784       24.787        0.258      339.685       13.187      868.815
05/13/2014  00:23:00      -62.341      -32.926       -3.834       25.343       23.947       19.280      642.263      573.470      371.731        0.329        0.079       70.502       19.247        0.075      340.081       13.855      868.821
05/13/2014  00:24:00       52.897       60.559       -0.027       35.018       52.362       30.523     1226.282     2741.727      931.684        0.568        0.245       80.408       29.472        0.134      340.046       13.797      868.858
05/13/2014  00:25:00        9.865       49.286      -16.632       35.447       43.839       19.350     1256.505     1921.840      374.436        0.318        0.178       50.264       22.614        0.202      340.359       14.326      868.852
05/13/2014  00:26:00      123.480       13.554       12.782       97.121       57.957       58.515     9432.539     3359.034     3423.996        1.590        0.811      124.222       45.331        0.133      340.718       14.932      868.831
05/13/2014  00:27:00       91.445       20.420       61.152       48.689       56.795       43.297     2370.585     3225.692     1874.643        0.999        0.374       93.698       30.239        0.104      340.506       14.573      868.828
05/13/2014  00:28:00       56.150       14.814       30.287       54.429       30.510       32.194     2962.478      930.856     1036.460        0.461        0.246       58.071       35.728        0.379      340.751       14.989      868.818
05/13/2014  00:29:00       16.413       44.884       44.110       25.743       22.706       21.068      662.693      515.567      443.844        0.293        0.081       47.790       20.322        0.181      340.339       14.291      868.823
05/13/2014  00:30:00       40.417       12.280        8.078       17.880       13.275       11.965      319.690      176.225      143.164        0.124        0.032       42.241        9.569        0.051      340.180       14.024      868.825
05/13/2014  00:31:00       41.611       19.995       10.495       21.044       11.855       10.147      442.854      140.540      102.962        0.146        0.034       46.166        9.831        0.045      340.319       14.258      868.825
05/13/2014  00:32:00       72.707       32.678       17.069       22.863       15.364       11.870      522.737      236.050      140.894        0.377        0.045       79.713        7.880        0.010      340.599       14.730      868.833
05/13/2014  00:33:00       42.821       29.004        0.697       22.783       13.593       10.647      519.087      184.771      113.360        0.175        0.041       51.719        6.752        0.017      340.640       14.800      868.830
05/13/2014  00:34:00       20.139        8.221       -3.135       22.821       13.014       14.439      520.775      169.353      208.485        0.069        0.045       21.752       13.290        0.373      340.508       14.577      868.835
05/13/2014  00:35:00        5.394       27.660       -2.639       10.743       15.013        6.288      115.414      225.388       39.534        0.059        0.019       28.181        6.028        0.046      340.518       14.594      868.853
05/13/2014  00:36:00       39.215       27.793        2.443       12.525        8.559       11.810      156.884       73.262      139.480        0.134        0.018       48.066        7.110        0.022      340.460       14.496      868.870
05/13/2014  00:37:00       29.313       37.749       -6.245       18.709       23.709       16.617      350.009      562.137      276.135        0.176        0.059       47.793       15.047        0.099      340.413       14.416      868.869
05/13/2014  00:38:00       28.626       59.308       -7.448       32.738       34.630       23.074     1071.797     1199.262      532.396        0.360        0.140       65.855       18.915        0.082      340.321       14.261      868.875
05/13/2014  00:39:00       30.552       83.112      -10.035       23.003       31.225       20.906      529.141      975.005      437.051        0.494        0.097       88.550       12.700        0.021      340.440       14.463      868.887
05/13/2014  00:40:00       17.095       94.927      -20.040       21.913       43.402       16.103      480.199     1883.703      259.309        0.616        0.131       96.454       18.995        0.039      340.711       14.921      868.889
05/13/2014  00:41:00       -4.741       95.961      -19.228       21.695       28.677       11.124      470.677      822.364      123.749        0.551        0.071       96.078       11.356        0.014      340.846       15.148      868.887
05/13/2014  00:42:00      -27.204       18.530       -8.541       30.161       24.034       14.041      909.657      577.616      197.141        0.142        0.084       32.916       10.882        0.109      340.404       14.402      868.885
05/13/2014  00:43:00      -37.196       23.194       -7.952       16.306       27.825       11.112      265.886      774.235      123.467        0.157        0.058       43.835       12.270        0.078      340.406       14.405      868.891
05/13/2014  00:44:00        1.334       74.218      -11.709       26.041       19.364        7.253      678.139      374.965       52.606        0.338        0.055       74.230        7.164        0.009      340.931       15.291      868.903
05/13/2014  00:45:00        2.473       73.284      -14.485       14.172       10.234        6.189      200.838      104.726       38.307        0.297        0.017       73.326        6.003        0.007      341.156       15.675      868.908
05/13/2014  00:46:00      -49.815       27.956      -11.632       20.295       25.154       11.459      411.889      632.744      131.305        0.229        0.059       57.124        8.357        0.021      340.735       14.961      868.905
05/13/2014  00:47:00      -28.586       13.262       -7.841       16.270       24.869       18.076      264.708      618.465      326.737        0.113        0.060       31.513       18.381        0.340      340.336       14.288      868.911
05/13/2014  00:48:00      -18.182      100.909      -16.217       19.874       40.361       11.588      394.979     1629.042      134.277        0.647        0.108      102.534       13.806        0.018      340.765       15.011      868.932
05/13/2014  00:49:00      -13.445      145.649      -28.729       21.861       18.561        8.862      477.887      344.495       78.536        1.156        0.045      146.269        7.426        0.003      340.680       14.868      868.958
05/13/2014  00:50:00      -29.603      104.940      -20.850       24.867       24.982       10.560      618.371      624.099      111.517        0.684        0.068      109.035       10.609        0.009      340.686       14.877      868.967
05/13/2014  00:51:00      -54.675       76.322      -19.805       35.527       43.488       16.984     1262.147     1891.209      288.450        0.632        0.172       93.885       18.300        0.038      340.572       14.685      868.972
05/13/2014  00:52:00      -42.509       66.906      -11.241       30.601       37.345       20.778      936.421     1394.684      431.743        0.459        0.138       79.269       22.737        0.082      340.412       14.414      868.980
05/13/2014  00:53:00        2.635       51.193       11.990       26.502       28.676       24.711      702.349      822.316      610.623        0.245        0.107       51.261        6.894        0.018      340.261       14.160      868.991
05/13/2014  00:54:00        7.632      -18.110       11.866       13.633       27.987       18.526      185.851      783.298      343.210        0.092        0.066       19.653       18.103        0.848      339.827       13.428      869.017
05/13/2014  00:55:00        4.098      -34.355       -7.353       16.606       11.911        8.803      275.755      141.864       77.485        0.087        0.025       34.598        3.079        0.008      340.050       13.804      869.039
05/13/2014  00:56:00      -69.637      -19.721      -11.259       18.770       18.336       11.876      352.324      336.217      141.041        0.310        0.041       72.376        9.432        0.017      340.108       13.902      869.049
05/13/2014  00:57:00      -81.348      -16.537      -11.112       12.739       27.296       11.467      162.273      745.089      131.501        0.403        0.052       83.012        3.505        0.002      339.451       12.793      869.075
05/13/2014  00:58:00      -81.552      -94.916      -13.480       11.301       15.688       10.427      127.716      246.121      108.731        0.816        0.024      125.139        3.724        0.001      340.059       13.819      869.108
05/13/2014  00:59:00      -32.195      -75.989      -15.005       27.320       21.797       15.074      746.390      475.096      227.234        0.424        0.072       82.528        9.214        0.012      340.350       14.309      869.143
05/13/2014  01:00:00      -39.898      -34.729       -5.026       23.860       25.968       15.946      569.279      674.322      254.259        0.216        0.075       52.896       13.579        0.066      340.030       13.771      869.163
05/13/2014  01:01:00      -36.406      -42.669        0.621       23.465       17.563       12.200      550.584      308.474      148.842        0.208        0.050       56.090       13.254        0.056      339.897       13.545      869.164
05/13/2014  01:02:00      -66.263      -61.486       -4.755       14.873       19.318       10.635      221.202      373.204      113.095        0.445        0.035       90.395        7.614        0.007      340.477       14.525      869.157
05/13/2014  01:03:00       -0.591      -18.557      -18.088       22.814       20.388       12.141      520.474      415.659      147.402        0.088        0.054       18.566       11.977        0.416      340.784       15.045      869.147
05/13/2014  01:04:00      -15.022       43.225       -7.957       24.996       30.619       18.163      624.814      937.524      329.885        0.202        0.095       45.761       14.975        0.107      340.798       15.067      869.131
05/13/2014  01:05:00       23.978       60.508       -6.312       21.974       28.029       17.220      482.853      785.629      296.521        0.292        0.078       65.086       17.215        0.070      340.709       14.916      869.122
05/13/2014  01:06:00       52.947       72.000      -10.515       20.457       22.135       17.371      418.495      489.977      301.761        0.465        0.061       89.373        9.602        0.012      340.728       14.951      869.119
05/13/2014  01:07:00       -1.377       57.213      -11.505       16.526       13.613        9.128      273.117      185.324       83.323        0.197        0.027       57.230        8.237        0.021      340.708       14.914      869.120
05/13/2014  01:08:00       -6.275       31.038       -8.650       17.064       12.543        6.786      291.173      157.321       46.046        0.079        0.025       31.666        8.800        0.077      340.666       14.846      869.114
05/13/2014  01:09:00      -38.886       45.797      -10.551       16.426       24.466       10.645      269.830      598.572      113.320        0.235        0.049       60.079       10.479        0.030      340.608       14.747      869.101
05/13/2014  01:10:00      -39.743       47.839      -12.302       17.109       14.443       11.862      292.702      208.601      140.705        0.233        0.032       62.193       10.296        0.027      340.479       14.528      869.086
05/13/2014  01:11:00      -25.569       41.504       -5.832       18.059       20.095       12.258      326.145      403.793      150.268        0.165        0.044       48.748       11.289        0.054      340.415       14.419      869.069
05/13/2014  01:12:00      -22.065       27.591       -6.164       18.254       19.298       13.194      333.200      372.428      174.089        0.108        0.044       35.329       11.452        0.105      340.265       14.167      869.048
05/13/2014  01:13:00      -22.992       28.416      -14.527       16.200       22.700       10.468      262.425      515.276      109.569        0.122        0.044       36.552        7.226        0.039      340.278       14.187      869.021
05/13/2014  01:14:00      -29.112       26.930      -12.781       20.716       23.857       17.409      429.142      569.159      303.084        0.152        0.065       39.657       12.661        0.102      340.248       14.139      869.004
05/13/2014  01:15:00      -19.205       33.169      -12.167       17.374       26.580       16.536      301.841      706.480      273.444        0.145        0.064       38.328       12.394        0.105      340.250       14.141      868.989
05/13/2014  01:16:00      -24.539      -11.786        1.699       16.103       16.545       13.493      259.299      273.723      182.061        0.073        0.036       27.222        8.024        0.087      340.055       13.810      868.983
05/13/2014  01:17:00       -9.784      -27.768      -10.695       13.453       15.729        8.300      180.994      247.386       68.890        0.074        0.025       29.441        7.135        0.059      339.740       13.281      868.985
05/13/2014  01:18:00       -3.545        1.261       -4.146        6.220        6.341        6.640       38.691       40.213       44.090        0.008        0.006        3.762        3.953        1.104      339.918       13.582      868.986
05/13/2014  01:19:00      -39.017      -36.907       -2.036       17.066       13.227       14.801      291.258      174.965      219.058        0.179        0.034       53.707       13.226        0.061      339.615       13.070      868.993
05/13/2014  01:20:00      -56.506      -40.051       -9.893       10.794        8.872       11.087      116.503       78.717      122.916        0.261        0.016       69.261        6.004        0.008      339.201       12.371      868.997
05/13/2014  01:21:00      -79.127      -17.288      -14.692       10.368       16.305        8.874      107.503      265.854       78.753        0.361        0.023       80.994        4.928        0.004      339.155       12.294      869.011
05/13/2014  01:22:00      -83.761      -21.389      -16.061       12.673       11.969        6.781      160.607      143.267       45.987        0.404        0.017       86.448        3.207        0.001      339.230       12.421      869.021
05/13/2014  01:23:00      -95.081      -16.678      -19.416       11.649       11.820       10.090      135.698      139.707      101.806        0.504        0.019       96.533        2.736        0.001      339.027       12.080      869.039
05/13/2014  01:24:00      -98.905      -16.897      -19.310        9.666       10.522        7.222       93.436      110.709       52.155        0.535        0.013      100.338        4.085        0.002      338.967       11.978      869.050
05/13/2014  01:25:00     -100.176      -12.850      -18.784       14.856       11.992       11.390      220.695      143.808      129.723        0.552        0.025      100.997        5.701        0.003      338.933       11.921      869.067
05/13/2014  01:26:00     -113.118       -3.226      -16.693       27.909       25.822       17.815      778.908      666.772      317.392        0.742        0.088      113.164       18.263        0.026      339.089       12.183      869.078
05/13/2014  01:27:00     -111.875        1.369      -19.266       17.418       15.314       14.269      303.381      234.529      203.613        0.682        0.037      111.884        9.263        0.007      339.166       12.314      869.077
05/13/2014  01:28:00      -79.455      -16.911      -20.205       14.988       12.390        9.124      224.654      153.515       83.247        0.373        0.023       81.235        8.623        0.011      339.057       12.130      869.078
05/13/2014  01:29:00      -67.449      -22.094      -15.100       15.408       11.901        9.739      237.400      141.634       94.853        0.287        0.024       70.975        7.530        0.011      339.186       12.346      869.084
05/13/2014  01:30:00      -75.162      -20.440      -13.662       28.152       12.922       11.060      792.528      166.982      122.315        0.367        0.054       77.891        9.572        0.015      339.305       12.547      869.093
05/13/2014  01:31:00      -77.375      -15.955      -10.727       24.390       24.574       16.550      594.883      603.897      273.905        0.391        0.074       79.003       11.829        0.022      339.082       12.171      869.110
05/13/2014  01:32:00      -85.809       -1.325      -14.958       24.149       19.060       17.007      583.153      363.296      289.232        0.441        0.062       85.819        9.419        0.012      338.981       12.002      869.115
05/13/2014  01:33:00      -83.178      -16.163      -12.356       26.795       29.336       16.661      717.967      860.593      277.598        0.459        0.093       84.734       10.567        0.016      338.900       11.867      869.108
05/13/2014  01:34:00      -49.764        0.842       -5.728       21.412       24.858       16.105      458.464      617.909      259.381        0.192        0.067       49.771       13.137        0.070      339.021       12.070      869.093
05/13/2014  01:35:00      -55.136      -15.795       -3.237       22.620       25.611       14.442      511.672      655.912      208.567        0.234        0.069       57.354       13.187        0.053      339.072       12.155      869.086
05/13/2014  01:36:00      -65.096      -51.142       -3.485       23.119       20.264       17.224      534.507      410.625      296.658        0.405        0.062       82.783       10.467        0.016      338.731       11.581      869.082
05/13/2014  01:37:00      -66.178      -47.282      -18.405       27.927       16.213       17.302      779.917      262.867      299.346        0.415        0.067       81.333        9.597        0.014      338.746       11.607      869.081
05/13/2014  01:38:00      -57.500      -31.233      -10.122       29.702       14.250       10.574      882.218      203.059      111.820        0.279        0.060       65.435       10.229        0.024      338.747       11.608      869.073
05/13/2014  01:39:00      -22.069      -19.838       -2.026       12.557       13.675       11.018      157.673      186.994      121.393        0.068        0.023       29.675        5.511        0.034      338.797       11.690      869.065
05/13/2014  01:40:00      -27.733      -22.525       -6.995       16.127       10.479        9.215      260.070      109.803       84.908        0.089        0.023       35.728        6.939        0.038      338.863       11.804      869.063
05/13/2014  01:41:00      -55.735      -42.962      -10.191       17.832       13.388        9.273      317.979      179.249       85.981        0.282        0.029       70.372        4.024        0.003      338.834       11.754      869.068
05/13/2014  01:42:00      -61.446      -49.696       -9.592       18.014       10.630       11.258      324.497      113.000      126.750        0.345        0.028       79.027        4.674        0.003      338.706       11.538      869.067
05/13/2014  01:43:00      -70.133      -36.454      -14.365       16.353       14.152       12.536      267.425      200.273      157.151        0.354        0.031       79.042       10.500        0.018      338.598       11.357      869.066
05/13/2014  01:44:00      -69.031      -20.800      -13.539        9.750       11.990        8.460       95.061      143.769       71.570        0.285        0.016       72.096        5.673        0.006      338.821       11.733      869.066
05/13/2014  01:45:00      -72.691      -19.271      -18.143       13.618       14.660        9.099      185.441      214.904       82.795        0.323        0.024       75.202        2.775        0.001      338.930       11.918      869.066
05/13/2014  01:46:00      -77.002      -32.245      -19.436       11.619       17.521        8.775      135.004      306.983       76.994        0.393        0.026       83.480        8.540        0.010      338.602       11.365      869.079
05/13/2014  01:47:00      -80.829      -16.289      -21.606       20.996       11.630       11.541      440.847      135.264      133.201        0.399        0.035       82.454        6.873        0.007      338.674       11.488      869.080
05/13/2014  01:48:00      -94.713      -19.014      -23.379       13.019       12.970        8.426      169.482      168.225       71.000        0.514        0.020       96.603        6.261        0.004      338.452       11.114      869.068
05/13/2014  01:49:00      -83.227      -15.648      -18.148       18.222       16.700       10.123      332.023      278.904      102.470        0.411        0.036       84.685        9.977        0.014      338.469       11.142      869.063
05/13/2014  01:50:00      -77.558      -31.311      -14.530       24.227       16.616       13.549      586.953      276.080      183.588        0.413        0.052       83.640       14.937        0.032      338.404       11.032      869.072
05/13/2014  01:51:00      -91.556      -29.477      -17.868       16.716       23.047       10.839      279.435      531.146      117.476        0.525        0.046       96.184       11.743        0.015      338.510       11.211      869.067
05/13/2014  01:52:00      -81.426      -46.648      -13.455       13.113       20.706       13.435      171.947      428.755      180.507        0.488        0.039       93.842        8.589        0.008      338.481       11.163      869.064
05/13/2014  01:53:00      -72.503      -44.294      -11.808       37.377       19.305       16.905     1397.024      372.702      285.791        0.471        0.103       84.962       19.092        0.050      338.429       11.075      869.056
05/13/2014  01:54:00      -67.479      -16.165      -10.785       19.850       26.272       14.148      394.037      690.192      200.167        0.311        0.064       69.388        8.907        0.016      338.493       11.181      869.061
05/13/2014  01:55:00      -42.753       -9.551       -9.846       15.555       18.567       11.245      241.973      344.731      126.446        0.136        0.036       43.806        6.224        0.020      338.734       11.588      869.048
05/13/2014  01:56:00      -49.772      -16.551      -12.258       16.681       18.246        9.474      278.242      332.910       89.761        0.180        0.035       52.452        5.097        0.009      338.964       11.974      869.040
05/13/2014  01:57:00      -81.726      -21.382      -15.949       13.278       14.961       13.369      176.310      223.828      178.737        0.398        0.029       84.477        7.467        0.008      338.516       11.221      869.047
05/13/2014  01:58:00      -83.293      -32.668      -20.206       11.858       18.143       11.738      140.610      329.168      137.769        0.451        0.030       89.470        9.997        0.012      338.461       11.126      869.055
05/13/2014  01:59:00      -62.957      -40.092      -15.588       28.335       24.591       16.088      802.898      604.737      258.829        0.374        0.083       74.639       14.017        0.035      338.385       11.000      869.049
05/13/2014  02:00:00      -48.751      -32.989      -18.991       20.297       17.082       18.919      411.959      291.780      357.933        0.244        0.053       58.864        6.784        0.013      338.329       10.906      869.056
05/13/2014  02:01:00      -40.991      -51.201      -11.421       29.442       30.088       19.738      866.845      905.284      389.597        0.330        0.108       65.588       16.527        0.063      338.282       10.829      869.060
05/13/2014  02:02:00     -100.106      -48.638      -22.356       20.881       21.278       11.665      436.029      452.751      136.070        0.696        0.051      111.296       11.135        0.010      338.224       10.730      869.052
05/13/2014  02:03:00      -80.587      -59.271      -23.653       25.510       20.361       12.613      650.746      414.590      159.085        0.590        0.061      100.037       11.934        0.014      338.121       10.558      869.051
05/13/2014  02:04:00      -88.567      -58.867      -24.929       21.695       25.958       17.756      470.655      673.830      315.279        0.669        0.073      106.345       15.323        0.021      338.099       10.521      869.068
05/13/2014  02:05:00      -97.843      -58.011      -25.924       26.873       24.764       16.721      722.171      613.263      279.605        0.761        0.081      113.748        9.917        0.008      338.116       10.547      869.070
05/13/2014  02:06:00     -102.808      -59.277      -24.552       27.547       26.307       20.447      758.837      692.042      418.070        0.828        0.093      118.673       13.590        0.013      338.163       10.627      869.069
05/13/2014  02:07:00     -119.401      -51.718      -18.386       22.657       24.441       18.982      513.325      597.386      360.327        0.937        0.074      130.121       10.252        0.006      338.056       10.449      869.083
05/13/2014  02:08:00      -82.490      -63.078      -17.163       31.295       26.929       19.733      979.381      725.182      389.375        0.659        0.105      103.843       11.457        0.012      338.068       10.469      869.099
05/13/2014  02:09:00      -88.626      -57.093      -16.738       36.623       27.745       20.042     1341.271      769.803      401.683        0.695        0.126      105.424        8.146        0.006      338.051       10.440      869.103
05/13/2014  02:10:00      -65.590      -80.130      -18.615       36.478       30.802       23.297     1330.679      948.768      542.770        0.695        0.141      103.551       11.849        0.013      338.116       10.549      869.115
05/13/2014  02:11:00     -149.379      -38.477      -26.252       19.169       29.604       17.278      367.468      876.412      298.532        1.301        0.077      154.255       14.115        0.008      338.071       10.473      869.117
05/13/2014  02:12:00     -141.648      -37.700      -23.621       17.119       18.376       11.377      293.055      337.666      129.437        1.140        0.038      146.579        6.588        0.002      338.055       10.447      869.114
05/13/2014  02:13:00     -135.746      -53.672      -34.011       18.641       13.537       17.057      347.497      183.251      290.932        1.164        0.041      145.972       10.340        0.005      338.068       10.468      869.116
05/13/2014  02:14:00      -59.598      -65.147       -2.109       39.307       35.821       24.913     1545.036     1283.124      620.675        0.562        0.172       88.295       21.788        0.061      338.093       10.510      869.129
05/13/2014  02:15:00      -73.758      -65.280      -14.870       27.606       22.904       19.552      762.116      524.580      382.300        0.580        0.083       98.497       16.043        0.027      338.095       10.515      869.132
05/13/2014  02:16:00      -49.642      -63.954       -7.862       33.864       24.838       27.534     1146.796      616.948      758.106        0.457        0.126       80.960       23.915        0.087      338.100       10.522      869.120
05/13/2014  02:17:00      -98.723      -59.395      -24.205       27.841       18.770       23.057      775.122      352.328      531.634        0.776        0.083      115.213       20.128        0.031      338.027       10.399      869.115
05/13/2014  02:18:00      -94.127      -49.352      -10.240       41.846       30.238       20.487     1751.073      914.331      419.724        0.724        0.154      106.280       11.421        0.012      338.062       10.458      869.114
05/13/2014  02:19:00     -128.431      -30.437      -10.761       37.140       38.777       18.725     1379.369     1503.650      350.633        1.038        0.162      131.989       17.462        0.018      338.081       10.489      869.108
05/13/2014  02:20:00      -46.787        4.966       -3.829       41.285       31.275       19.376     1704.463      978.097      375.424        0.264        0.153       47.050       20.724        0.194      338.267       10.803      869.119
05/13/2014  02:21:00      -46.241       -9.279       -8.615       32.782       20.476       13.526     1074.656      419.266      182.949        0.199        0.084       47.162       14.648        0.096      338.280       10.823      869.124
05/13/2014  02:22:00      -63.079      -10.442      -12.818       22.912       23.638       16.040      524.950      558.755      257.279        0.280        0.067       63.938       10.393        0.026      338.436       11.086      869.124
05/13/2014  02:23:00      -69.890      -17.965       -9.016       30.445       22.971       21.846      926.892      527.644      477.239        0.361        0.097       72.162       18.036        0.062      338.445       11.100      869.120
05/13/2014  02:24:00      -99.034       -1.445      -16.467       47.920       23.967       21.325     2296.331      574.433      454.774        0.670        0.166       99.045       25.071        0.064      338.295       10.851      869.127
05/13/2014  02:25:00      -83.749       -9.976      -17.935       37.575       17.077       17.207     1411.878      291.625      296.077        0.472        0.100       84.341       14.426        0.029      338.258       10.788      869.133
05/13/2014  02:26:00     -105.085       -1.185      -14.870       22.347       22.011       17.492      499.388      484.492      305.980        0.628        0.064      105.092        9.783        0.009      338.193       10.678      869.128
05/13/2014  02:27:00      -90.692      -16.156      -14.286       29.737       19.998       17.394      884.282      399.919      302.535        0.514        0.079       92.120       16.419        0.032      338.123       10.561      869.129
05/13/2014  02:28:00      -83.194      -33.352      -16.383       20.698       20.796       14.998      428.426      432.453      224.947        0.469        0.054       89.630        9.786        0.012      338.090       10.506      869.135
05/13/2014  02:29:00      -65.213      -12.323      -24.694       24.605       18.415       14.237      605.389      339.124      202.686        0.308        0.057       66.367        7.839        0.014      338.237       10.752      869.138
05/13/2014  02:30:00      -41.866      -24.680      -12.619       21.374       21.183       20.692      456.835      448.703      428.148        0.193        0.067       48.600       10.769        0.049      338.140       10.588      869.134
05/13/2014  02:31:00      -56.476      -21.910      -12.161       13.555       17.001       17.090      183.747      289.039      292.054        0.229        0.038       60.577        9.204        0.023      338.125       10.564      869.131
05/13/2014  02:32:00      -39.449      -25.237       -6.241       23.765       17.405       16.525      564.777      302.927      273.069        0.169        0.057       46.831        8.741        0.035      338.207       10.703      869.135
05/13/2014  02:33:00      -26.139      -15.523      -10.528       19.905       20.263       13.806      396.228      410.587      190.599        0.102        0.050       30.401       10.865        0.128      338.330       10.909      869.133
05/13/2014  02:34:00      -39.734      -14.788       -9.544       18.993       12.769       12.623      360.727      163.051      159.340        0.129        0.034       42.397       10.091        0.057      338.165       10.630      869.126
05/13/2014  02:35:00      -49.064      -18.964      -10.011       17.732       20.556       12.283      314.440      422.568      150.878        0.188        0.044       52.601       10.396        0.039      338.110       10.540      869.123
05/13/2014  02:36:00      -31.293      -11.639       -2.562       15.499       18.821       19.784      240.210      354.214      391.390        0.105        0.049       33.388       12.895        0.149      338.545       11.269      869.133
05/13/2014  02:37:00      -30.480        4.719      -16.346       31.277       24.064       15.325      978.230      579.058      234.853        0.150        0.090       30.843       17.421        0.319      338.480       11.161      869.128
05/13/2014  02:38:00      -31.357       -4.346        2.634       23.253       17.320       18.623      540.712      299.973      346.809        0.110        0.059       31.657       11.986        0.143      338.591       11.348      869.110
05/13/2014  02:39:00       -9.386      -22.274        8.174       22.959       18.951       17.349      527.119      359.148      300.979        0.092        0.059       24.171       11.017        0.208      338.368       10.973      869.113
05/13/2014  02:40:00      -32.760      -31.889      -15.625       30.047       18.191       17.833      902.832      330.918      318.013        0.194        0.078       45.718       13.985        0.094      338.233       10.745      869.112
05/13/2014  02:41:00      -28.008       -9.283        0.797       17.089       16.763       15.281      292.049      280.985      233.498        0.084        0.040       29.506        8.123        0.076      338.643       11.434      869.105
05/13/2014  02:42:00      -57.220      -14.893      -11.395       21.318       11.599        9.553      454.458      134.530       91.250        0.215        0.034       59.127        7.365        0.016      338.034       10.410      869.095
05/13/2014  02:43:00      -58.276      -13.469      -12.183       20.197       19.524       14.285      407.899      381.184      204.053        0.236        0.050       59.812       12.095        0.041      338.279       10.824      869.100
05/13/2014  02:44:00      -30.396       -8.434       -3.309       34.202       13.170       18.161     1169.771      173.451      329.820        0.134        0.084       31.545       15.028        0.227      338.538       11.256      869.111
05/13/2014  02:45:00      -34.823       -0.414       -6.954       26.673       23.626       14.857      711.429      558.176      220.741        0.138        0.075       34.825       13.707        0.155      338.776       11.657      869.120
05/13/2014  02:46:00      -29.772       24.917      -17.881       32.734       38.052       19.441     1071.532     1447.943      377.964        0.236        0.145       38.823        7.406        0.036      339.188       12.351      869.125
05/13/2014  02:47:00      -21.012       33.435      -15.140       23.855       18.977       14.400      569.054      360.113      207.352        0.146        0.057       39.489       10.237        0.067      339.308       12.554      869.124
05/13/2014  02:48:00      -11.206       20.558       -5.181       16.474       25.806       13.276      271.393      665.952      176.256        0.084        0.056       23.414       11.510        0.242      339.214       12.395      869.128
05/13/2014  02:49:00      -22.985       20.582       -3.761       30.588       33.562       17.216      935.626     1126.415      296.398        0.166        0.118       30.853       16.379        0.282      339.240       12.438      869.139
05/13/2014  02:50:00      -34.146       -6.874       -3.153       27.469       21.513       12.726      754.556      462.793      161.953        0.130        0.069       34.831        8.246        0.056      338.734       11.587      869.145
05/13/2014  02:51:00      -72.621      -36.287      -10.719       23.866       11.915       11.032      569.591      141.972      121.698        0.377        0.042       81.182        7.501        0.009      338.107       10.534      869.145
05/13/2014  02:52:00     -110.723      -48.811      -21.475       19.538       24.720       13.427      381.732      611.076      180.286        0.814        0.059      121.005        8.777        0.005      337.986       10.331      869.143
05/13/2014  02:53:00     -134.976      -54.465      -23.139       25.048       25.685       16.608      627.405      659.718      275.811        1.164        0.078      145.550       13.445        0.009      337.929       10.234      869.151
05/13/2014  02:54:00     -143.458      -50.199      -24.832       27.432       28.186       22.797      752.516      794.431      519.720        1.289        0.103      151.987       17.970        0.014      337.861       10.120      869.152
05/13/2014  02:55:00      -97.543      -48.995      -13.963       41.623       30.566       19.527     1732.482      934.293      381.304        0.758        0.152      109.157       21.954        0.040      337.738        9.916      869.158
05/13/2014  02:56:00     -105.537      -33.135      -12.162       43.867       22.320       21.062     1924.314      498.201      443.588        0.762        0.143      110.616       19.289        0.030      337.737        9.912      869.172
05/13/2014  02:57:00      -60.708      -49.341      -13.811       39.357       25.909       20.432     1548.946      671.282      417.477        0.447        0.132       78.230       19.073        0.059      337.810       10.037      869.179
05/13/2014  02:58:00     -109.249      -35.828      -14.758       25.361       32.112       19.346      643.161     1031.186      374.285        0.774        0.102      114.974       13.440        0.014      337.829       10.068      869.179
05/13/2014  02:59:00      -89.375      -47.305       -6.789       26.143       26.873       21.628      683.436      722.153      467.758        0.607        0.094      101.122       15.416        0.023      337.839       10.082      869.190
05/13/2014  03:00:00      -95.474      -35.023       -4.268       37.132       33.369       21.544     1378.796     1113.507      464.145        0.666        0.148      101.695       21.557        0.045      337.781        9.987      869.209
05/13/2014  03:01:00     -111.231      -40.219      -13.153       28.502       26.611       19.353      812.361      708.135      374.556        0.803        0.095      118.279       15.497        0.017      337.697        9.846      869.215
05/13/2014  03:02:00     -134.107      -25.921      -21.490       26.114       36.997       17.742      681.918     1368.777      314.796        1.074        0.118      136.589       15.872        0.014      337.825       10.060      869.210
05/13/2014  03:03:00     -108.091      -43.265      -22.884       40.803       28.142       14.504     1664.884      791.952      210.354        0.837        0.133      116.428        6.236        0.003      337.821       10.055      869.204
05/13/2014  03:04:00     -143.420       -9.774      -13.202       42.985       32.456       24.679     1847.725     1053.372      609.066        1.217        0.176      143.753       23.401        0.027      337.666        9.794      869.204
05/13/2014  03:05:00      -85.670      -31.094       -6.083       37.355       34.177       19.749     1395.392     1168.040      390.021        0.565        0.148       91.138       17.794        0.038      337.756        9.946      869.212
05/13/2014  03:06:00     -104.930      -48.888      -17.571       25.970       23.458       18.721      674.454      550.263      350.480        0.764        0.079      115.760       10.251        0.008      337.717        9.881      869.216
05/13/2014  03:07:00     -103.732      -20.867      -15.751       29.412       24.946       18.666      865.057      622.325      348.435        0.664        0.092      105.810       13.147        0.015      337.653        9.773      869.227
05/13/2014  03:08:00     -108.159      -22.879      -20.455       24.753       21.570       19.555      612.697      465.249      382.381        0.705        0.073      110.553       12.932        0.014      337.655        9.776      869.244
05/13/2014  03:09:00     -100.805      -19.642      -23.913       17.716       18.242       15.329      313.854      332.775      234.976        0.600        0.044      102.701       10.225        0.010      337.735        9.910      869.252
05/13/2014  03:10:00      -91.847      -24.246      -19.844       28.496       20.934       17.517      812.010      438.227      306.857        0.549        0.078       94.994       13.762        0.021      337.812       10.039      869.268
05/13/2014  03:11:00      -84.187      -32.409       -7.690       39.662       30.150       26.550     1573.104      909.012      704.877        0.569        0.159       90.210       28.083        0.097      337.753        9.940      869.286
05/13/2014  03:12:00      -45.426      -51.166       -8.117       35.929       23.049       23.760     1290.914      531.258      564.534        0.357        0.119       68.421       23.919        0.122      337.793       10.007      869.306
05/13/2014  03:13:00      -56.471      -27.888      -14.436       30.787       27.838       19.364      947.820      774.947      374.959        0.314        0.105       62.982       16.886        0.072      337.771        9.969      869.316
05/13/2014  03:14:00      -84.441      -49.176      -17.585       21.361       18.524       19.822      456.280      343.140      392.909        0.552        0.060       97.717       14.262        0.021      337.706        9.861      869.326
05/13/2014  03:15:00     -100.128      -44.626      -26.217       23.759       21.999       12.889      564.511      483.958      166.132        0.696        0.061      109.622       11.187        0.010      337.762        9.958      869.336
05/13/2014  03:16:00      -87.768      -42.351      -21.906       15.319       15.581       12.983      234.660      242.759      168.557        0.531        0.032       97.452       10.317        0.011      337.786        9.995      869.336
05/13/2014  03:17:00      -76.770      -45.915      -12.436       19.776       19.770       14.304      391.089      390.834      204.595        0.457        0.049       89.454       10.823        0.015      337.712        9.872      869.337
05/13/2014  03:18:00      -86.762      -49.207      -16.283       18.001       16.403       10.953      324.031      269.051      119.970        0.546        0.036       99.745        9.140        0.008      337.655        9.776      869.335
05/13/2014  03:19:00      -96.915      -41.283      -19.754       14.072       17.933       11.183      198.011      321.589      125.052        0.607        0.032      105.341       10.214        0.009      337.567        9.629      869.334
05/13/2014  03:20:00     -109.177      -43.183      -18.836       14.649       18.372       14.672      214.586      337.517      215.261        0.745        0.038      117.407        8.449        0.005      337.520        9.550      869.328
05/13/2014  03:21:00     -102.599      -48.750      -16.241       21.185       21.875       16.380      448.797      478.533      268.304        0.718        0.060      113.592        8.684        0.006      337.510        9.531      869.323
05/13/2014  03:22:00     -112.753      -30.575      -17.946       24.219       26.170       16.053      586.536      684.889      257.701        0.775        0.076      116.825        9.199        0.006      337.551        9.601      869.319
05/13/2014  03:23:00      -94.632      -33.896      -19.756       20.138       28.758       13.098      405.555      827.028      171.568        0.595        0.070      100.519       10.670        0.011      337.558        9.613      869.317
05/13/2014  03:24:00      -92.640      -32.175      -19.624       22.345       18.742       14.735      499.318      351.268      217.115        0.553        0.053       98.068       11.018        0.013      337.571        9.636      869.322
05/13/2014  03:25:00      -91.063      -27.703      -17.362       19.828       21.525       19.496      393.157      463.325      380.092        0.530        0.062       95.184       16.286        0.029      337.563        9.620      869.313
05/13/2014  03:26:00      -97.161      -45.325      -17.431       16.159       16.845       17.449      261.111      283.742      304.474        0.632        0.042      107.213       13.560        0.016      337.519        9.548      869.313
05/13/2014  03:27:00      -55.397      -37.198      -10.613       35.165       22.000       18.905     1236.545      484.020      357.415        0.332        0.104       66.727       14.247        0.046      337.592        9.669      869.322
05/13/2014  03:28:00       -1.549      -22.423        5.446       27.950       25.791       17.888      781.215      665.169      319.977        0.115        0.088       22.477        9.004        0.160      337.526        9.560      869.349
05/13/2014  03:29:00      -72.945      -58.048      -10.478       44.872       29.765       28.765     2013.506      885.959      827.437        0.626        0.186       93.224       30.945        0.110      337.540        9.583      869.372
05/13/2014  03:30:00     -126.021      -63.691      -14.476       30.417       29.950       19.257      925.199      896.989      370.827        1.117        0.110      141.202       18.946        0.018      337.458        9.445      869.374
05/13/2014  03:31:00     -108.623      -36.056       -6.489       22.958       22.884       16.003      527.054      523.684      256.105        0.722        0.065      114.451       10.484        0.008      337.439        9.413      869.387
05/13/2014  03:32:00     -146.721      -22.380      -15.055       31.531       22.024       17.912      994.201      485.037      320.842        1.203        0.090      148.418       14.647        0.010      337.504        9.522      869.385
05/13/2014  03:33:00     -135.304      -60.456      -18.383       38.668       25.192       15.389     1495.176      634.622      236.832        1.233        0.118      148.196        8.054        0.003      337.490        9.500      869.387
05/13/2014  03:34:00      -93.514      -30.920      -17.194       46.222       38.496       15.537     2136.463     1481.952      241.413        0.693        0.193       98.493        9.323        0.009      337.497        9.512      869.401
05/13/2014  03:35:00      -72.263       -7.888      -16.540       48.624       37.952       26.603     2364.289     1440.387      707.700        0.503        0.226       72.692       20.938        0.083      337.803       10.023      869.406
05/13/2014  03:36:00      -71.759      -40.195        0.392       42.508       33.547       23.853     1806.908     1125.385      568.949        0.513        0.175       82.250       23.417        0.081      337.519        9.547      869.407
05/13/2014  03:37:00      -79.151      -44.897       -4.766       42.014       20.010       20.896     1765.168      400.406      436.639        0.545        0.130       90.998       23.047        0.064      337.441        9.417      869.428
05/13/2014  03:38:00      -52.657      -36.112        2.125       32.737       22.421       13.593     1071.734      502.708      184.782        0.292        0.088       63.850       13.856        0.047      337.562        9.620      869.439
05/13/2014  03:39:00     -123.680      -38.046       -6.854       23.510       19.423       15.514      552.718      377.250      240.680        0.898        0.059      129.400        7.501        0.003      337.658        9.781      869.424
05/13/2014  03:40:00     -128.938      -31.746      -23.546       16.003       13.563       12.102      256.107      183.944      146.453        0.939        0.029      132.788        6.940        0.003      337.703        9.855      869.405
05/13/2014  03:41:00     -120.291      -20.127      -17.945       29.269       21.260       15.671      856.683      451.967      245.592        0.838        0.078      121.963       15.048        0.015      337.647        9.762      869.400
05/13/2014  03:42:00      -55.533      -18.402       -7.011       37.126       30.075       16.821     1378.328      904.497      282.935        0.302        0.128       58.502       15.372        0.069      337.683        9.822      869.412
05/13/2014  03:43:00      -87.057        2.570       -8.516       37.006       36.118       24.438     1369.440     1304.544      597.202        0.546        0.164       87.095       19.147        0.048      337.961       10.289      869.430
05/13/2014  03:44:00       -9.533      -42.108        6.711       37.183       25.489       22.454     1382.565      649.678      504.200        0.222        0.127       43.174       20.398        0.223      337.761        9.954      869.441
05/13/2014  03:45:00      -31.748      -48.987        0.145       33.585       14.283       14.765     1127.976      203.997      218.003        0.248        0.077       58.375        9.558        0.027      337.753        9.941      869.445
05/13/2014  03:46:00     -128.795      -45.827      -21.436       13.314       15.400       12.645      177.253      237.157      159.901        0.986        0.029      136.705        8.047        0.003      337.615        9.710      869.436
05/13/2014  03:47:00     -126.123      -18.787      -24.076       15.369       12.517       10.244      236.219      156.664      104.941        0.867        0.025      127.515        6.521        0.003      337.631        9.736      869.445
05/13/2014  03:48:00     -118.872      -29.000      -19.481       17.774       14.346        9.797      315.922      205.807       95.978        0.798        0.031      122.358        7.546        0.004      337.547        9.596      869.441
05/13/2014  03:49:00     -148.771      -25.946      -27.703       18.015       14.733       11.753      324.525      217.073      138.124        1.213        0.034      151.017        8.107        0.003      337.526        9.559      869.426
05/13/2014  03:50:00      -98.789      -58.313      -17.825       20.873       23.175       13.913      435.675      537.100      193.558        0.732        0.058      114.715       11.452        0.010      337.394        9.339      869.416
05/13/2014  03:51:00      -46.090      -29.519       -4.075       33.980       28.096       19.295     1154.663      789.400      372.313        0.266        0.116       54.733       20.366        0.138      337.418        9.378      869.400
05/13/2014  03:52:00     -115.171      -23.728       -6.926       34.549       27.923       16.144     1193.617      779.686      260.631        0.805        0.112      117.590       11.621        0.010      337.414        9.372      869.400
05/13/2014  03:53:00      -83.607      -47.313       -1.185       31.045       20.849       19.102      963.766      434.688      364.895        0.550        0.088       96.066       12.100        0.016      337.474        9.473      869.415
05/13/2014  03:54:00      -49.368      -34.162       -0.018       35.821       23.937       16.901     1283.142      572.994      285.641        0.287        0.107       60.035       18.762        0.098      337.455        9.440      869.437
05/13/2014  03:55:00     -120.788      -22.981      -20.027       15.754       19.853       14.501      248.193      394.126      210.278        0.819        0.043      122.955       10.007        0.007      337.514        9.539      869.446
05/13/2014  03:56:00      -94.452      -36.354      -10.182       33.884       22.740       11.346     1148.140      517.120      128.735        0.607        0.090      101.207       10.658        0.011      337.509        9.532      869.446
05/13/2014  03:57:00      -93.603      -18.273      -14.148       33.711       27.312       14.386     1136.448      745.933      206.958        0.569        0.104       95.370       15.233        0.026      337.462        9.450      869.443
05/13/2014  03:58:00      -92.095      -36.965      -12.989       32.177       22.609       13.122     1035.359      511.152      172.195        0.587        0.086       99.236       14.570        0.022      337.482        9.485      869.447
05/13/2014  03:59:00     -103.738      -39.832      -25.680       26.349       15.374       16.050      694.266      236.370      257.587        0.710        0.059      111.122       11.157        0.010      337.524        9.557      869.437
05/13/2014  04:00:00      -44.154      -21.464       -1.531       13.944       17.272       12.222      194.436      298.335      149.389        0.153        0.032       49.094        8.414        0.029      337.438        9.411      869.447
05/13/2014  04:01:00     -107.890        8.367      -20.297       16.759       16.629       10.593      280.871      276.528      112.208        0.640        0.033      108.214        9.019        0.007      337.554        9.606      869.446
05/13/2014  04:02:00      -72.299      -11.731      -13.219       28.798       18.467       17.391      829.312      341.029      302.440        0.351        0.074       73.244       12.847        0.031      337.520        9.549      869.439
05/13/2014  04:03:00     -120.124        9.243      -19.678       18.991       15.361       11.858      360.674      235.951      140.610        0.782        0.037      120.479        3.580        0.001      337.575        9.643      869.433
05/13/2014  04:04:00      -76.624      -15.464      -11.191       25.986       14.534       13.659      675.283      211.230      186.569        0.365        0.054       78.169       10.403        0.018      337.515        9.541      869.436
05/13/2014  04:05:00     -109.240       -4.296      -19.184       13.933        9.835        8.696      194.116       96.729       75.626        0.634        0.018      109.324        6.004        0.003      337.474        9.473      869.436
05/13/2014  04:06:00      -82.213      -22.263       -5.288       17.291       17.969       13.864      298.966      322.879      192.199        0.405        0.041       85.174        9.867        0.013      337.436        9.408      869.444
05/13/2014  04:07:00     -103.126      -22.993      -13.632       21.235       16.393       10.578      450.943      268.746      111.895        0.609        0.042      105.658        5.612        0.003      337.538        9.581      869.447
05/13/2014  04:08:00     -104.496      -27.472      -11.187       22.311       22.474       16.262      497.777      505.078      264.447        0.653        0.063      108.047       13.887        0.017      337.500        9.516      869.438
05/13/2014  04:09:00     -106.062      -31.995      -20.522       16.680       11.268        9.968      278.232      126.964       99.371        0.660        0.025      110.782        7.792        0.005      337.439        9.414      869.427
05/13/2014  04:10:00     -112.810      -28.418      -20.221        7.534        9.888        8.389       56.765       97.782       70.376        0.708        0.011      116.335        3.131        0.001      337.421        9.384      869.424
05/13/2014  04:11:00     -100.143      -16.978       -9.970       20.175       16.914       12.632      407.019      286.090      159.575        0.563        0.043      101.572       12.004        0.014      337.426        9.392      869.423
05/13/2014  04:12:00      -84.380      -32.229       -8.424       17.380        9.630        7.751      302.050       92.728       60.083        0.434        0.023       90.326        3.426        0.001      337.529        9.565      869.419
05/13/2014  04:13:00      -92.450      -29.632      -18.320       11.285       13.556        8.343      127.347      183.768       69.611        0.507        0.019       97.082        4.972        0.003      337.613        9.706      869.420
05/13/2014  04:14:00      -94.554      -25.414      -13.332       11.739       14.256        9.521      137.803      203.241       90.658        0.510        0.022       97.910        5.660        0.003      337.526        9.558      869.434
05/13/2014  04:15:00     -100.121      -46.657      -17.604        6.051        7.558        7.401       36.612       57.122       54.780        0.633        0.007      110.459        2.618        0.001      337.474        9.472      869.432
05/13/2014  04:16:00     -101.224      -24.218      -10.870        7.475        9.673        6.820       55.878       93.562       46.506        0.557        0.010      104.081        3.233        0.001      337.406        9.359      869.442
05/13/2014  04:17:00     -112.700      -35.212      -13.336       16.595       10.959       10.356      275.402      120.110      107.240        0.731        0.025      118.073        7.884        0.004      337.377        9.311      869.456
05/13/2014  04:18:00      -82.727      -42.413       -7.162       19.325       12.331       10.303      373.471      152.056      106.152        0.466        0.032       92.966        3.618        0.002      337.319        9.214      869.478
05/13/2014  04:19:00     -100.067      -61.512      -15.088       21.201       20.605       14.468      449.482      424.579      209.335        0.755        0.054      117.461        8.774        0.006      337.320        9.215      869.493
05/13/2014  04:20:00     -114.411      -61.240      -10.730       16.101       16.389       14.398      259.227      268.609      207.291        0.885        0.037      129.770        8.512        0.004      337.273        9.136      869.504
05/13/2014  04:21:00      -80.643      -67.208        6.062       49.152       42.894       30.593     2415.901     1839.898      935.923        0.812        0.260      104.977       27.052        0.066      337.171        8.964      869.517
05/13/2014  04:22:00      -78.190      -70.087        2.742       39.005       40.946       28.567     1521.374     1676.577      816.078        0.752        0.201      105.004       26.605        0.064      337.248        9.094      869.528
05/13/2014  04:23:00      -52.561      -71.652        3.288       39.124       49.992       24.950     1530.675     2499.246      622.490        0.628        0.233       88.864       21.370        0.058      337.218        9.045      869.532
05/13/2014  04:24:00     -119.981     -100.497        3.417       62.267       49.294       34.261     3877.164     2429.913     1173.847        1.599        0.374      156.509       35.293        0.051      337.063        8.783      869.521
05/13/2014  04:25:00     -144.790      -96.744       -1.868       40.122       47.983       29.118     1609.739     2302.404      847.876        1.754        0.238      174.136       17.146        0.010      337.115        8.869      869.514
05/13/2014  04:26:00     -113.172      -83.408        3.315       50.224       42.379       32.063     2522.450     1795.971     1028.051        1.256        0.267      140.587       23.891        0.029      337.136        8.906      869.510
05/13/2014  04:27:00     -102.317     -117.008      -14.457       73.149       52.169       46.252     5350.704     2721.586     2139.258        1.729        0.511      155.434       33.399        0.046      337.067        8.789      869.519
05/13/2014  04:28:00     -138.330     -102.795       -1.656       55.356       35.921       27.395     3064.260     1290.313      750.461        1.740        0.255      172.343       21.847        0.016      337.083        8.816      869.511
05/13/2014  04:29:00     -109.781      -59.773       -3.253       38.665       30.276       22.060     1494.985      916.642      486.630        0.927        0.145      124.999       17.631        0.020      337.093        8.833      869.508
05/13/2014  04:30:00      -53.992      -36.325        6.911       40.899       36.797       23.101     1672.721     1354.029      533.668        0.392        0.178       65.074       23.060        0.126      337.102        8.848      869.516
05/13/2014  04:31:00      -63.234      -46.315        2.136       36.484       22.518       17.375     1331.055      507.076      301.883        0.414        0.107       78.381       15.945        0.041      337.085        8.820      869.524
05/13/2014  04:32:00      -97.727      -33.152       -7.682       14.856       20.415       13.508      220.715      416.787      182.474        0.576        0.041      103.196       10.500        0.010      336.990        8.662      869.533
05/13/2014  04:33:00     -119.935      -15.945      -11.973       29.418       13.893       12.796      865.411      193.019      163.732        0.800        0.061      120.990       15.233        0.016      336.965        8.620      869.532
05/13/2014  04:34:00     -138.307      -27.008      -17.788       20.562       14.491       11.768      422.810      210.001      138.495        1.047        0.039      140.919       10.893        0.006      336.870        8.461      869.513
05/13/2014  04:35:00     -126.737      -33.957       -9.757       30.237       16.665       18.515      914.266      277.706      342.816        0.942        0.077      131.207       17.887        0.019      336.842        8.414      869.517
05/13/2014  04:36:00     -144.183      -41.083      -17.058       19.197       13.931       12.739      368.535      194.082      162.285        1.175        0.036      149.922        7.684        0.003      336.930        8.561      869.511
05/13/2014  04:37:00     -133.832      -20.240      -21.118       16.255       12.263       13.245      264.240      150.369      175.417        0.968        0.030      135.354        9.129        0.005      336.910        8.528      869.508
05/13/2014  04:38:00     -140.079      -39.086      -15.663       23.655       20.561       11.117      559.581      422.775      123.577        1.125        0.055      145.430       11.426        0.006      336.973        8.633      869.514
05/13/2014  04:39:00     -138.780      -49.453      -17.073       12.595       12.100       10.299      158.631      146.402      106.073        1.120        0.021      147.328        7.363        0.002      337.009        8.694      869.507
05/13/2014  04:40:00     -130.758      -45.773      -13.897       16.486       16.348       11.213      271.782      267.256      125.727        1.003        0.033      138.539        6.363        0.002      337.015        8.703      869.506
05/13/2014  04:41:00     -137.572      -41.858      -19.919       15.888       17.004       12.741      252.442      289.142      162.331        1.089        0.035      143.799        6.140        0.002      336.909        8.526      869.503
05/13/2014  04:42:00     -135.734      -47.644      -18.920       12.943       21.562       13.144      167.530      464.926      172.768        1.093        0.040      143.853        4.321        0.001      336.924        8.551      869.497
05/13/2014  04:43:00     -114.275      -73.057      -19.795       20.034       22.681       13.502      401.370      514.426      182.314        0.994        0.055      135.632        9.447        0.005      336.885        8.487      869.510
05/13/2014  04:44:00     -127.118      -46.229      -16.855       14.804       17.448       10.982      219.167      304.433      120.598        0.961        0.032      135.263        8.677        0.004      336.875        8.470      869.523
05/13/2014  04:45:00     -114.691      -71.750      -13.529       19.240       22.767       15.674      370.184      518.330      245.669        0.981        0.057      135.285       14.072        0.011      336.778        8.308      869.539
05/13/2014  04:46:00     -131.107      -58.906       -8.180       26.687       21.637       13.626      712.176      468.148      185.660        1.105        0.068      143.732       11.324        0.006      336.764        8.287      869.555
05/13/2014  04:47:00     -124.432      -60.431      -14.155       13.215       11.570       10.098      174.625      133.857      101.977        0.987        0.021      138.330        4.441        0.001      336.811        8.363      869.576
05/13/2014  04:48:00     -135.823      -58.286      -10.540       13.052       16.902       11.469      170.350      285.687      131.542        1.127        0.029      147.801        8.354        0.003      336.870        8.461      869.581
05/13/2014  04:49:00     -121.003      -56.840      -13.391       15.889       10.620       11.148      252.462      112.778      124.280        0.927        0.024      133.688        8.278        0.004      336.788        8.326      869.586
05/13/2014  04:50:00     -104.896      -49.281      -10.431       10.665       10.902        8.125      113.737      118.854       66.023        0.692        0.015      115.895        3.335        0.001      336.837        8.406      869.590
05/13/2014  04:51:00      -78.349      -60.033       -1.666       37.452       23.652       20.320     1402.668      559.417      412.911        0.606        0.119       98.704       11.384        0.013      336.854        8.435      869.580
05/13/2014  04:52:00     -116.456      -82.860        4.575       49.420       32.827       30.017     2442.322     1077.642      901.030        1.243        0.221      142.925       30.609        0.046      336.777        8.307      869.577
05/13/2014  04:53:00     -119.885      -75.149       -3.084       33.948       28.126       20.562     1152.484      791.061      422.785        1.120        0.118      141.491       15.342        0.012      336.841        8.414      869.583
05/13/2014  04:54:00      -95.043      -52.066       -0.274       37.070       22.564       25.546     1374.219      509.125      652.591        0.714        0.127      108.370       25.360        0.055      336.780        8.311      869.581
05/13/2014  04:55:00     -112.433      -66.688       -7.306       23.986       19.117       17.019      575.338      365.443      289.632        0.919        0.062      130.723       14.116        0.012      336.752        8.264      869.571
05/13/2014  04:56:00      -95.614      -63.128        0.983       42.797       19.818       14.842     1831.621      392.739      220.291        0.779        0.122      114.574       17.212        0.023      336.721        8.215      869.580
05/13/2014  04:57:00     -133.241      -47.643       -6.826       23.960       20.528       14.849      574.075      421.382      220.496        1.064        0.061      141.503       10.012        0.005      336.713        8.200      869.594
05/13/2014  04:58:00     -156.505      -38.408      -21.845       24.348       18.252       16.416      592.808      333.130      269.474        1.382        0.060      161.149       14.918        0.009      336.655        8.104      869.580
05/13/2014  04:59:00     -149.127      -35.535      -15.452       22.718       17.374       15.650      516.111      301.869      244.934        1.240        0.053      153.303       12.097        0.006      336.549        7.927      869.587
05/13/2014  05:00:00      -38.171      -57.972       -0.325       44.668       17.649       24.651     1995.199      311.498      607.672        0.387        0.146       69.410       24.707        0.127      336.547        7.922      869.616
05/13/2014  05:01:00      -21.874      -19.422        5.695       39.031       24.415       24.434     1523.383      596.101      596.998        0.180        0.136       29.252       26.823        0.841      336.631        8.063      869.625
05/13/2014  05:02:00      -53.486      -52.041       -2.908       46.522       35.259       23.500     2164.331     1243.230      552.229        0.477        0.198       74.626       24.511        0.108      336.561        7.948      869.650
05/13/2014  05:03:00     -142.441      -48.039      -17.242       13.712       18.422       11.935      188.015      339.387      142.446        1.178        0.033      150.324        6.246        0.002      336.619        8.044      869.653
05/13/2014  05:04:00     -152.339      -19.604      -16.966       15.859       16.789       12.664      251.496      281.859      160.381        1.229        0.035      153.595        6.158        0.002      336.605        8.021      869.642
05/13/2014  05:05:00     -142.051      -24.423      -10.119       29.309       23.929       18.935      859.012      572.610      358.544        1.133        0.090      144.135       16.358        0.013      336.588        7.992      869.637
05/13/2014  05:06:00      -40.089      -34.953        3.559       37.202       36.470       17.310     1383.984     1330.034      299.646        0.293        0.151       53.187       16.292        0.094      336.574        7.969      869.632
05/13/2014  05:07:00       18.222      -34.406        9.192       41.534       35.813       23.240     1725.056     1282.542      540.103        0.257        0.177       38.933       18.497        0.226      336.651        8.096      869.635
05/13/2014  05:08:00      -83.177      -61.085       -5.544       49.358       34.037       26.388     2436.233     1158.507      696.341        0.748        0.215      103.198       21.661        0.044      336.672        8.132      869.640
05/13/2014  05:09:00     -107.664      -41.180      -10.798       30.319       24.272       17.389      919.224      589.123      302.391        0.761        0.091      115.270       15.021        0.017      336.759        8.277      869.663
05/13/2014  05:10:00      -45.835      -62.311        0.895       44.766       34.127       19.348     2004.021     1164.658      374.334        0.476        0.177       77.353       18.384        0.056      336.681        8.147      869.684
05/13/2014  05:11:00      -71.442      -88.629       -1.864       46.369       42.677       28.680     2150.058     1821.353      822.551        0.888        0.240      113.838       22.460        0.039      336.688        8.158      869.687
05/13/2014  05:12:00      -95.153      -77.218        6.058       45.091       34.618       24.413     2033.155     1198.438      596.016        0.944        0.191      122.543       21.190        0.030      336.651        8.099      869.698
05/13/2014  05:13:00      -65.379      -56.163        4.608       57.724       47.853       25.473     3332.101     2289.894      648.880        0.686        0.314       86.190       27.570        0.102      336.651        8.097      869.703
05/13/2014  05:14:00     -126.897      -64.905       -4.009       37.314       33.769       25.181     1392.343     1140.373      634.070        1.175        0.158      142.532       20.032        0.020      336.591        7.996      869.693
05/13/2014  05:15:00     -132.526      -65.459       -0.955       46.689       24.483       19.786     2179.892      599.413      391.468        1.251        0.159      147.811       14.794        0.010      336.478        7.806      869.683
05/13/2014  05:16:00     -110.944      -35.591      -12.068       19.835       17.460       11.555      393.411      304.836      133.508        0.728        0.042      116.513        7.331        0.004      336.518        7.874      869.672
05/13/2014  05:17:00      -91.348      -30.713      -15.572       13.689       19.507       10.979      187.391      380.517      120.535        0.511        0.034       96.373        2.790        0.001      336.534        7.902      869.656
05/13/2014  05:18:00     -105.372      -22.925       -5.683       25.778       22.449       13.745      664.499      503.940      188.929        0.651        0.068      107.837        9.970        0.009      336.486        7.821      869.646
05/13/2014  05:19:00     -102.784      -26.042       -6.277       33.766       24.279       18.966     1140.120      589.447      359.704        0.669        0.104      106.032       16.962        0.026      336.537        7.905      869.654
05/13/2014  05:20:00     -128.077      -39.790      -14.991       22.151       20.914       18.754      490.652      437.414      351.725        0.975        0.064      134.115       10.183        0.006      336.574        7.968      869.649
05/13/2014  05:21:00     -128.442      -35.227      -17.173       20.932       23.990       12.069      438.166      575.525      145.651        0.960        0.058      133.185        7.949        0.004      336.651        8.098      869.647
05/13/2014  05:22:00      -43.467      -58.788        0.947       34.068       44.846       23.081     1160.628     2011.172      532.731        0.452        0.185       73.112       22.649        0.096      336.546        7.921      869.659
05/13/2014  05:23:00      -37.656      -56.803        0.600       23.447       19.816       19.234      549.748      392.679      369.938        0.298        0.066       68.151       15.781        0.054      336.544        7.919      869.673
05/13/2014  05:24:00      -79.453      -48.989       -3.042       31.196       27.129       21.379      973.196      735.989      457.068        0.544        0.108       93.342       15.856        0.029      336.540        7.911      869.671
05/13/2014  05:25:00      -99.698      -83.338       -5.392       28.572       20.305       18.651      816.371      412.311      347.876        0.924        0.079      129.942       16.010        0.015      336.536        7.904      869.672
05/13/2014  05:26:00     -145.739      -30.876      -12.903       24.590       24.573       15.249      604.653      603.832      232.538        1.190        0.072      148.973       10.946        0.005      336.579        7.977      869.680
05/13/2014  05:27:00     -139.540      -55.526      -12.557       20.558       19.043       16.620      422.612      362.628      276.210        1.189        0.053      150.182        8.778        0.003      336.561        7.948      869.684
05/13/2014  05:28:00     -134.753      -53.150       -8.871       32.143       23.460       20.316     1033.143      550.374      412.754        1.153        0.100      144.856       20.654        0.020      336.618        8.040      869.682
05/13/2014  05:29:00     -117.388      -33.924      -10.673       25.579       24.791       19.950      654.300      614.606      397.994        0.836        0.083      122.192       15.327        0.016      336.557        7.939      869.668
05/13/2014  05:30:00     -101.494      -66.980      -13.523       24.795       26.022       18.850      614.786      677.142      355.320        0.831        0.082      121.603       14.341        0.014      336.588        7.992      869.661
05/13/2014  05:31:00     -129.058      -67.355      -14.160       20.309       24.295       13.750      412.438      590.265      189.057        1.129        0.060      145.577        9.295        0.004      336.536        7.905      869.660
05/13/2014  05:32:00     -116.914      -39.805      -13.893       16.940       18.132       13.215      286.958      328.782      174.627        0.812        0.040      123.504        9.678        0.006      336.446        7.754      869.665
05/13/2014  05:33:00     -137.104      -44.959      -12.104       17.126       15.046       13.012      293.314      226.384      169.305        1.083        0.034      144.288        9.639        0.004      336.453        7.765      869.665
05/13/2014  05:34:00     -132.105      -62.875      -17.722       16.130       23.578       12.724      260.184      555.912      161.888        1.135        0.049      146.305       11.241        0.006      336.405        7.683      869.667
05/13/2014  05:35:00     -128.084      -59.382      -12.652       13.213       13.631       12.351      174.590      185.806      152.548        1.030        0.026      141.180        6.332        0.002      336.438        7.739      869.677
05/13/2014  05:36:00     -120.730      -67.972      -12.051       20.189       17.711       14.840      407.598      313.677      220.228        1.014        0.047      138.549       10.627        0.006      336.425        7.719      869.695
05/13/2014  05:37:00     -100.927      -73.727       -5.670       22.386       20.929       15.560      501.137      438.036      242.118        0.842        0.059      124.988       11.398        0.008      336.415        7.701      869.707
05/13/2014  05:38:00     -112.496      -87.998       -5.091       28.375       31.651       17.243      805.141     1001.786      297.308        1.126        0.105      142.825        9.214        0.004      336.384        7.650      869.718
05/13/2014  05:39:00      -89.514      -59.233        3.699       46.601       30.752       22.493     2171.611      945.709      505.930        0.758        0.181      107.338       15.451        0.021      336.262        7.445      869.731
05/13/2014  05:40:00     -104.899      -48.537        6.791       52.812       31.288       24.663     2789.154      978.966      608.244        0.889        0.219      115.584       24.650        0.045      336.185        7.315      869.746
05/13/2014  05:41:00     -124.776      -70.265       -5.136       28.639       20.974       20.231      820.177      439.898      409.273        1.110        0.083      143.199       13.889        0.009      336.225        7.384      869.759
05/13/2014  05:42:00     -110.498      -66.559       -1.178       26.542       23.375       19.883      704.456      546.409      395.325        0.914        0.082      128.996       16.848        0.017      336.121        7.209      869.768
05/13/2014  05:43:00      -60.324      -53.290       12.619       54.463       32.503       21.881     2966.227     1056.475      478.778        0.557        0.225       80.491       25.669        0.102      336.112        7.194      869.779
05/13/2014  05:44:00      -46.148      -50.515       10.347       46.222       35.378       27.244     2136.494     1251.611      742.247        0.446        0.207       68.420       26.358        0.148      336.105        7.183      869.791
05/13/2014  05:45:00      -62.939      -54.127        8.995       43.362       47.363       24.829     1880.229     2243.256      616.469        0.585        0.237       83.012       27.912        0.113      336.129        7.224      869.800
05/13/2014  05:46:00      -63.522      -69.647        1.279       47.376       37.793       26.089     2244.518     1428.297      680.652        0.662        0.218       94.264       28.603        0.092      336.153        7.263      869.800
05/13/2014  05:47:00      -97.897      -53.481        7.317       57.604       40.374       28.531     3318.176     1630.100      814.003        0.913        0.288      111.553       28.608        0.066      336.147        7.254      869.796
05/13/2014  05:48:00     -115.183      -65.083        2.947       50.898       44.773       24.908     2590.632     2004.587      620.418        1.136        0.261      132.299       22.540        0.029      336.187        7.319      869.796
05/13/2014  05:49:00      -66.143      -58.869       12.708       62.992       43.431       28.711     3967.974     1886.276      824.331        0.734        0.334       88.546       35.782        0.163      336.129        7.222      869.810
05/13/2014  05:50:00     -107.448      -72.908       -0.507       44.327       36.388       25.636     1964.917     1324.104      657.189        1.040        0.197      129.848       22.975        0.031      336.102        7.179      869.813
05/13/2014  05:51:00     -119.215      -74.303        4.511       55.746       31.839       25.235     3107.648     1013.744      636.811        1.225        0.238      140.475       24.252        0.030      336.096        7.168      869.809
05/13/2014  05:52:00     -106.824      -69.722        4.413       59.481       35.814       25.818     3537.931     1282.642      666.555        1.089        0.274      127.563       26.692        0.044      336.102        7.178      869.811
05/13/2014  05:53:00     -100.669      -65.111        4.307       48.499       32.463       25.414     2352.115     1053.818      645.868        0.922        0.203      119.891       26.022        0.047      336.093        7.163      869.837
05/13/2014  05:54:00     -100.729      -73.465        3.499       43.851       30.009       26.223     1922.896      900.533      687.671        0.953        0.176      124.673       24.789        0.040      336.104        7.181      869.865
05/13/2014  05:55:00     -133.341      -76.151       -2.878       31.626       26.921       21.689     1000.198      724.751      470.420        1.289        0.110      153.554       17.252        0.013      336.012        7.028      869.894
05/13/2014  05:56:00     -121.432      -65.892        2.557       36.618       31.870       23.422     1340.845     1015.717      548.586        1.100        0.145      138.158       21.664        0.025      336.000        7.008      869.928
05/13/2014  05:57:00      -92.369      -50.492       10.959       42.695       35.025       26.405     1822.851     1226.744      697.203        0.747        0.187      105.269       26.589        0.064      335.999        7.006      869.955
05/13/2014  05:58:00     -127.891      -65.534        7.433       48.790       25.888       23.281     2380.438      670.179      542.009        1.215        0.180      143.704       25.687        0.032      335.994        6.999      869.983
05/13/2014  05:59:00     -110.999      -76.467       -3.820       23.201       24.291       22.843      538.310      590.037      521.785        0.992        0.083      134.789       11.926        0.008      336.030        7.057      869.998
05/13/2014  06:00:00      -94.489      -59.909       -3.451       28.100       20.301       17.838      789.623      412.138      318.211        0.702        0.076      111.880       15.695        0.020      336.025        7.050      870.015
05/13/2014  06:01:00      -89.984      -59.073       -1.919       30.772       19.384       20.895      946.890      375.729      436.587        0.667        0.088      107.642       16.992        0.025      335.989        6.989      870.028
05/13/2014  06:02:00      -70.133      -64.510       -1.612       29.651       24.620       19.724      879.170      606.128      389.045        0.548        0.094       95.290       13.612        0.020      336.044        7.081      870.047
05/13/2014  06:03:00      -79.624      -55.281        7.374       35.224       30.317       22.301     1240.755      919.117      497.345        0.605        0.133       96.933       21.141        0.048      336.060        7.109      870.052
05/13/2014  06:04:00     -115.984      -59.949       -8.498       22.484       21.076       15.592      505.532      444.178      243.120        0.916        0.060      130.561       13.951        0.011      336.093        7.163      870.056
05/13/2014  06:05:00     -118.371      -49.143       -7.964       17.492       19.477       12.418      305.985      379.367      154.217        0.866        0.042      128.167        8.060        0.004      336.037        7.070      870.058
05/13/2014  06:06:00     -107.149      -33.559      -11.559       14.860       16.379       13.149      220.823      268.275      172.888        0.670        0.033      112.281        8.580        0.006      336.012        7.027      870.076
05/13/2014  06:07:00      -65.399      -18.886        3.241       24.181       19.344       17.236      584.724      374.180      297.077        0.295        0.063       68.071       15.893        0.055      336.047        7.086      870.083
05/13/2014  06:08:00      -90.326      -32.888       -2.689       19.056       15.647       13.992      363.114      244.834      195.777        0.503        0.040       96.127       10.446        0.012      336.158        7.272      870.094
05/13/2014  06:09:00     -100.138      -35.770       -8.246       10.712       14.304        7.694      114.747      204.595       59.193        0.588        0.019      106.335        4.151        0.002      336.234        7.400      870.094
05/13/2014  06:10:00      -79.992      -39.585       -1.431       20.489       23.731       12.988      419.779      563.141      168.700        0.456        0.058       89.251       12.546        0.020      336.253        7.430      870.096
05/13/2014  06:11:00      -80.888      -37.459       -6.652       15.162       14.636       10.019      229.899      214.201      100.376        0.427        0.027       89.141        5.125        0.003      336.374        7.633      870.104
05/13/2014  06:12:00      -74.296      -18.192       -8.736       11.864       13.636       10.031      140.749      185.937      100.618        0.318        0.021       76.490        6.338        0.007      336.392        7.664      870.107
05/13/2014  06:13:00      -84.285      -25.197      -11.544        9.738        8.214        9.938       94.830       67.474       98.756        0.407        0.013       87.971        7.123        0.007      336.416        7.702      870.117
05/13/2014  06:14:00      -87.897      -28.193       -9.992       11.431       10.983       10.701      130.667      120.635      114.522        0.449        0.018       92.308        2.731        0.001      336.385        7.651      870.117
05/13/2014  06:15:00      -68.615      -33.815      -14.328       14.605       16.415        9.982      213.308      269.469       99.638        0.332        0.029       76.495        5.975        0.006      336.335        7.567      870.129
05/13/2014  06:16:00      -43.916      -32.358       -8.193       13.752       14.100       13.580      189.104      198.823      184.407        0.181        0.029       54.549        8.514        0.024      336.309        7.524      870.149
05/13/2014  06:17:00      -60.100      -36.215      -12.693       14.404       12.967       12.609      207.482      168.148      158.977        0.281        0.027       70.167        9.388        0.018      336.363        7.614      870.163
05/13/2014  06:18:00      -73.914      -31.649      -12.168       10.031       12.742        8.148      100.619      162.362       66.395        0.347        0.016       80.405        5.417        0.005      336.329        7.557      870.177
05/13/2014  06:19:00      -69.549      -13.802       -7.129       14.892       15.869       12.114      221.773      251.832      146.744        0.285        0.031       70.905        8.870        0.016      336.291        7.494      870.191
05/13/2014  06:20:00      -68.280      -29.332      -17.278       12.344       14.554       11.195      152.379      211.814      125.330        0.316        0.024       74.314        9.896        0.018      336.340        7.576      870.229
05/13/2014  06:21:00      -65.588      -20.683      -10.057       21.617       16.681       12.771      467.278      278.272      163.098        0.287        0.045       68.772        8.885        0.017      336.394        7.666      870.258
05/13/2014  06:22:00      -56.497      -36.315       -1.878       14.171       14.847       11.085      200.814      220.445      122.882        0.253        0.027       67.162        6.594        0.010      336.424        7.716      870.285
05/13/2014  06:23:00      -61.111      -28.821       -8.220       17.821       14.013       12.991      317.605      196.360      168.757        0.266        0.034       67.566        7.943        0.014      336.450        7.761      870.295
05/13/2014  06:24:00      -37.962      -23.906       -5.952       14.129       13.943       10.551      199.630      194.415      111.329        0.128        0.025       44.862        4.028        0.008      336.454        7.765      870.307
05/13/2014  06:25:00      -35.188      -21.713      -11.834        9.807       14.376       13.039       96.178      206.684      170.027        0.116        0.024       41.348        6.557        0.025      336.547        7.923      870.318
05/13/2014  06:26:00      -39.441      -11.243       -5.519       12.022       13.970       11.586      144.535      195.171      134.240        0.109        0.024       41.013        8.903        0.047      336.525        7.886      870.324
05/13/2014  06:27:00      -12.094        7.908       -3.355       18.731       21.952        9.556      350.859      481.885       91.317        0.057        0.046       14.451       12.444        0.742      336.854        8.435      870.319
05/13/2014  06:28:00       12.343       29.039       -2.002       13.014        9.687        9.204      169.372       93.842       84.713        0.067        0.017       31.553        7.690        0.059      337.125        8.889      870.333
05/13/2014  06:29:00       26.717       32.832        2.718       23.216       19.916       18.783      538.977      396.660      352.806        0.154        0.064       42.329        7.236        0.029      337.213        9.036      870.348
05/13/2014  06:30:00       45.478       27.419        6.982       21.829       24.703       17.686      476.525      610.253      312.802        0.213        0.070       53.104       16.351        0.095      337.223        9.053      870.367
05/13/2014  06:31:00       17.402        8.188        1.220       16.158       11.191       10.171      261.081      125.243      103.443        0.043        0.024       19.232        3.472        0.033      337.187        8.992      870.389
05/13/2014  06:32:00       28.937       -3.891        3.048       19.175       12.441       12.183      367.682      154.786      148.426        0.077        0.034       29.197       12.166        0.174      337.221        9.050      870.408
05/13/2014  06:33:00       38.947        5.690        8.132       17.166       22.734       15.545      294.685      516.824      241.633        0.133        0.053       39.360        9.178        0.054      337.227        9.059      870.409
05/13/2014  06:34:00        9.437        2.690       19.770       14.760       10.757       15.076      217.845      115.723      227.299        0.052        0.028        9.813       11.204        1.304      337.365        9.290      870.424
05/13/2014  06:35:00       11.219       28.017       26.786       19.698       16.041       11.154      388.000      257.301      124.418        0.120        0.038       30.180        4.120        0.019      337.195        9.004      870.428
05/13/2014  06:36:00       -6.849       10.922       28.399       10.858       20.852       11.666      117.893      434.794      136.098        0.083        0.034       12.892        6.539        0.257      337.296        9.174      870.435
05/13/2014  06:37:00      -11.747       -5.974       17.636       15.131       12.482        7.372      228.939      155.805       54.346        0.046        0.022       13.179        6.169        0.219      337.067        8.791      870.456
05/13/2014  06:38:00      -25.018       -5.241       -1.411       13.693        6.061        8.358      187.501       36.740       69.849        0.047        0.015       25.561        6.819        0.071      336.754        8.269      870.454
05/13/2014  06:39:00      -49.259      -13.884       -4.103        8.596        8.316        6.696       73.891       69.158       44.830        0.141        0.009       51.178        2.606        0.003      336.720        8.212      870.471
05/13/2014  06:40:00      -60.022       -7.928        0.058       13.240       11.388       11.905      175.286      129.688      141.723        0.206        0.022       60.543        4.854        0.006      336.683        8.151      870.474
05/13/2014  06:41:00      -41.602       -5.453       -1.897       14.297       13.775       12.845      204.404      189.762      164.982        0.116        0.028       41.958        6.558        0.024      336.603        8.017      870.484
05/13/2014  06:42:00      -45.334      -10.885       -1.274       22.796       10.117       10.004      519.641      102.351      100.079        0.145        0.036       46.622        5.070        0.012      336.648        8.092      870.495
05/13/2014  06:43:00      -67.095      -21.565       -2.488       28.753       18.527       11.802      826.756      343.250      139.291        0.314        0.065       70.476        6.005        0.007      336.630        8.063      870.501
05/13/2014  06:44:00      -62.736      -45.227       -6.751       20.130       21.914       15.562      405.231      480.240      242.186        0.358        0.056       77.339       10.995        0.020      336.549        7.925      870.519
05/13/2014  06:45:00      -94.450      -38.595      -10.888       25.950       29.458       18.536      673.419      867.757      343.583        0.621        0.094      102.031       10.481        0.011      336.441        7.745      870.540
05/13/2014  06:46:00      -41.321        0.584        1.545       22.066       21.746       20.813      486.924      472.892      433.162        0.155        0.070       41.325       18.024        0.190      336.518        7.874      870.565
05/13/2014  06:47:00      -67.223      -11.124       -2.649       13.988       12.896       12.675      195.667      166.313      160.660        0.259        0.026       68.137        9.000        0.017      336.551        7.930      870.581
05/13/2014  06:48:00      -55.419      -21.215        0.449       14.260       10.010        8.370      203.352      100.205       70.057        0.195        0.019       59.341        5.420        0.008      336.674        8.135      870.595
05/13/2014  06:49:00      -48.525      -50.085       -3.754        8.646       17.006        8.703       74.759      289.213       75.735        0.266        0.022       69.737        3.264        0.002      336.681        8.148      870.625
05/13/2014  06:50:00      -53.393      -35.809       -1.573       14.421       12.812        9.354      207.971      164.137       87.496        0.230        0.023       64.289        3.161        0.002      336.767        8.291      870.655
05/13/2014  06:51:00      -40.404      -32.851        4.301       24.595       16.020       12.511      604.931      256.636      156.519        0.187        0.051       52.074       11.736        0.051      336.785        8.320      870.682
05/13/2014  06:52:00      -36.614      -46.121        2.470       17.315       18.577       11.175      299.813      345.107      124.890        0.212        0.038       58.887        7.910        0.018      336.808        8.358      870.723
05/13/2014  06:53:00      -13.430      -20.610        5.383       16.490       14.715       12.905      271.911      216.531      166.531        0.064        0.033       24.599        7.301        0.088      336.908        8.523      870.752
05/13/2014  06:54:00      -54.500      -31.259        6.439       22.480       19.729       15.092      505.359      389.249      227.771        0.256        0.056       62.828       14.090        0.050      336.870        8.462      870.767
05/13/2014  06:55:00      -73.358      -37.866        0.320       23.895       17.205       10.718      570.960      295.996      114.878        0.390        0.049       82.554        8.446        0.010      336.860        8.445      870.779
05/13/2014  06:56:00      -54.459      -18.468        2.669       18.967       16.975       11.718      359.744      288.138      137.315        0.205        0.039       57.505       11.919        0.043      336.938        8.576      870.784
05/13/2014  06:57:00      -32.898       -3.688        6.239       15.082       12.123       13.492      227.458      146.967      182.030        0.085        0.028       33.104       11.162        0.114      337.146        8.921      870.797
05/13/2014  06:58:00      -28.760        0.704       -0.974       13.196        9.945        7.629      174.136       98.896       58.196        0.058        0.017       28.769        5.519        0.037      337.054        8.769      870.811
05/13/2014  06:59:00      -52.279        2.303       -3.805        9.569        7.549        5.790       91.569       56.987       33.521        0.147        0.009       52.329        2.899        0.003      337.018        8.708      870.820
05/13/2014  07:00:00      -49.725      -18.179       -9.389        8.444        9.729        7.147       71.293       94.655       51.078        0.155        0.011       52.943        4.735        0.008      337.043        8.747      870.822
05/13/2014  07:01:00      -53.747       -9.614       -5.902        8.875        9.704        8.992       78.758       94.163       80.855        0.163        0.013       54.600        5.143        0.009      337.050        8.762      870.834
05/13/2014  07:02:00      -49.904       -4.761       -2.209       12.622        8.141        7.005      159.321       66.269       49.075        0.140        0.014       50.131        4.669        0.009      337.128        8.892      870.832
05/13/2014  07:03:00      -50.832       -7.862       -1.440       12.963       11.750        7.060      168.037      138.056       49.838        0.150        0.018       51.437        6.897        0.018      337.211        9.033      870.837
05/13/2014  07:04:00      -27.558       -1.957        1.294       12.210       11.392       11.572      149.088      129.777      133.905        0.059        0.021       27.627        6.276        0.052      337.501        9.519      870.847
05/13/2014  07:05:00      -26.758       -2.107        1.233       10.060        8.309        6.810      101.207       69.036       46.382        0.047        0.011       26.841        2.864        0.011      337.263        9.120      870.855
05/13/2014  07:06:00      -30.227       -5.442        3.185       16.519        7.002        9.078      272.877       49.033       82.415        0.068        0.020       30.713        7.680        0.063      337.313        9.203      870.863
05/13/2014  07:07:00      -40.466       -5.937       -3.702        7.520        6.576        5.228       56.551       43.239       27.331        0.091        0.006       40.899        3.440        0.007      337.299        9.179      870.860
05/13/2014  07:08:00      -38.604        6.224       -5.485       11.103        5.953        5.270      123.275       35.437       27.775        0.087        0.009       39.103        4.701        0.014      337.329        9.228      870.857
05/13/2014  07:09:00      -46.344        6.274        0.538        7.632        5.905        6.201       58.250       34.867       38.459        0.116        0.007       46.767        2.059        0.002      337.361        9.281      870.861
05/13/2014  07:10:00      -20.587       -6.981        0.158       12.049        5.083        5.394      145.168       25.835       29.098        0.034        0.010       21.739        1.616        0.006      337.385        9.323      870.865
05/13/2014  07:11:00      -11.939       -2.388       -0.368        7.323        6.012        5.199       53.620       36.141       27.028        0.013        0.006       12.175        3.480        0.082      337.667        9.796      870.878
05/13/2014  07:12:00      -21.372        3.043       -3.251        5.038        3.142        2.532       25.378        9.871        6.413        0.026        0.002       21.587        1.671        0.006      337.532        9.572      870.880
05/13/2014  07:13:00      -21.206       10.059       -1.539        4.987        6.189        2.708       24.866       38.301        7.335        0.031        0.004       23.471        1.147        0.002      337.545        9.588      870.877
05/13/2014  07:14:00      -23.247       18.738       -2.033        6.201        8.815        4.403       38.449       77.697       19.390        0.052        0.007       29.858        1.877        0.004      337.506        9.522      870.877
05/13/2014  07:15:00      -21.547        4.191       -2.073       11.285        6.508        7.243      127.351       42.357       52.466        0.035        0.011       21.951        6.060        0.076      337.713        9.872      870.885
05/13/2014  07:16:00      -22.609       14.663        5.083       17.118       15.786       18.290      293.012      249.198      334.527        0.081        0.044       26.948       17.576        0.425      338.066       10.467      870.890
05/13/2014  07:17:00       -8.568       29.973        7.537       20.936       29.337       14.293      438.303      860.669      204.287        0.127        0.075       31.174       13.973        0.201      338.092       10.509      870.908
05/13/2014  07:18:00      -11.335       33.135        3.637       13.696       24.072       16.265      187.592      579.462      264.538        0.114        0.052       35.020       13.060        0.139      338.087       10.500      870.923
05/13/2014  07:19:00       -1.165       40.425        3.589       10.562       17.759       18.238      111.546      315.389      332.635        0.120        0.038       40.442       12.855        0.101      338.208       10.703      870.924
05/13/2014  07:20:00        9.906       36.833       -9.740       10.752       14.967       12.191      115.610      224.026      148.630        0.102        0.024       38.141        9.716        0.065      337.976       10.313      870.938
05/13/2014  07:21:00        1.579       12.122       16.000        9.563       22.307       13.483       91.447      497.611      181.782        0.059        0.039       12.225       13.044        1.139      338.533       11.249      870.947
05/13/2014  07:22:00       -9.230       17.337       14.469       11.840       21.153       12.372      140.186      447.432      153.060        0.067        0.037       19.640       13.046        0.441      338.499       11.190      870.948
05/13/2014  07:23:00      -10.376       -2.862       16.663       12.414        8.311       11.656      154.096       69.077      135.859        0.038        0.018       10.764       10.937        1.032      338.527       11.239      870.950
05/13/2014  07:24:00      -10.484       -6.865        6.866        9.949        7.642       11.000       98.985       58.401      120.998        0.024        0.014       12.531        4.949        0.156      338.323       10.897      870.961
05/13/2014  07:25:00      -11.591       -2.142       12.830        7.999        7.741       12.527       63.988       59.918      156.924        0.029        0.014       11.788        6.331        0.288      338.692       11.518      870.969
05/13/2014  07:26:00      -22.381        7.299       -2.723        8.509        7.007       10.247       72.406       49.092      104.992        0.039        0.011       23.541        5.294        0.051      338.141       10.591      870.960
05/13/2014  07:27:00      -13.796        1.731        3.524       10.411        6.659       11.470      108.391       44.341      131.554        0.024        0.014       13.904        6.282        0.204      338.497       11.189      870.965
05/13/2014  07:28:00       -7.676       -1.374       23.463        8.084        6.087        7.030       65.357       37.052       49.421        0.038        0.008        7.798        3.877        0.247      339.163       12.308      870.958
05/13/2014  07:29:00        4.296       12.088        2.712       18.803       12.534       17.998      353.543      157.103      323.932        0.050        0.042       12.829       16.147        1.584      338.469       11.142      870.953
05/13/2014  07:30:00        3.381       18.957        3.452       14.855       14.863       21.387      220.682      220.906      457.417        0.064        0.045       19.257       10.784        0.314      338.501       11.196      870.950
05/13/2014  07:31:00       -1.722       17.856       36.157       12.505       15.864       16.384      156.371      251.673      268.435        0.115        0.034       17.939       11.509        0.412      338.950       11.951      870.934
05/13/2014  07:32:00       21.470       10.332        1.335       12.252       11.693       10.029      150.102      136.719      100.584        0.048        0.019       23.826        5.435        0.052      338.188       10.671      870.931
05/13/2014  07:33:00        3.953       18.506       22.319       12.316       17.054       13.251      151.673      290.842      175.599        0.074        0.031       18.924       11.285        0.356      338.658       11.460      870.924
05/13/2014  07:34:00        5.606        8.021       13.892       10.592       13.693       15.779      112.199      187.508      248.967        0.042        0.027        9.786        9.162        0.877      338.884       11.839      870.926
05/13/2014  07:35:00        3.106       13.821       18.737       10.477       10.791       15.462      109.775      116.452      239.076        0.051        0.023       14.166       10.354        0.534      338.912       11.887      870.930
05/13/2014  07:36:00        7.176       16.494        9.248       11.824       16.069       16.425      139.802      258.207      269.787        0.054        0.033       17.988        8.626        0.230      338.811       11.716      870.937
05/13/2014  07:37:00       13.149       19.999        9.995       19.356       18.482       15.485      374.648      341.590      239.776        0.081        0.048       23.935        4.935        0.043      338.758       11.626      870.949
05/13/2014  07:38:00       38.987       34.651        3.421       17.141       20.304       15.902      293.823      412.250      252.860        0.185        0.048       52.160       12.029        0.053      338.647       11.441      870.957
05/13/2014  07:39:00       24.059       45.920        6.787       24.839       23.347       21.227      616.972      545.102      450.565        0.217        0.081       51.841       16.441        0.101      338.823       11.737      870.960
05/13/2014  07:40:00       44.226       39.257       -0.711       22.879       19.689       19.764      523.459      387.673      390.598        0.240        0.065       59.136       11.792        0.040      338.696       11.525      870.959
05/13/2014  07:41:00       23.321       47.808       10.564       28.059       23.367       23.638      787.327      545.993      558.739        0.242        0.095       53.193       18.241        0.118      339.040       12.102      870.953
05/13/2014  07:42:00       26.843       37.696        5.447       21.670       17.044       18.776      469.584      290.482      352.527        0.164        0.056       46.277       11.299        0.060      338.923       11.904      870.955
05/13/2014  07:43:00       19.399       14.447        6.683       16.670       16.007       14.845      277.895      256.234      220.381        0.069        0.038       24.188       12.164        0.253      339.255       12.464      870.954
05/13/2014  07:44:00       -8.901       18.418       12.001       20.209       19.110       17.019      408.391      365.208      289.656        0.081        0.053       20.456        7.320        0.128      339.349       12.622      870.963
05/13/2014  07:45:00       -4.273       10.165       13.966       14.205       15.460       20.080      201.781      239.001      403.192        0.058        0.042       11.027       14.325        1.688      339.617       13.074      870.967
05/13/2014  07:46:00       14.264       15.431       24.679       17.733       19.193       16.085      314.475      368.380      258.726        0.100        0.047       21.013       10.316        0.241      339.681       13.181      870.981
05/13/2014  07:47:00       44.695       40.284       14.430       19.862       23.836       21.862      394.499      568.142      477.953        0.263        0.072       60.170       12.958        0.046      339.235       12.429      870.988
05/13/2014  07:48:00       37.230       54.217        0.350       18.573       30.306       23.360      344.969      918.428      545.704        0.307        0.090       65.769       22.116        0.113      339.085       12.178      870.990
05/13/2014  07:49:00       -2.188       54.166        2.020       18.841       37.001       22.982      354.985     1369.053      528.165        0.260        0.113       54.210       23.396        0.186      339.205       12.380      870.998
05/13/2014  07:50:00       17.937       99.866       -4.719       23.932       28.588       26.410      572.719      817.288      697.502        0.620        0.104      101.464       17.392        0.029      339.064       12.142      870.995
05/13/2014  07:51:00       11.833       42.735        8.951       27.916       35.160       24.952      779.291     1236.240      622.610        0.234        0.132       44.343       23.752        0.287      339.400       12.708      870.992
05/13/2014  07:52:00        9.859      107.905       -5.069       28.522       49.473       21.631      813.520     2447.596      467.884        0.775        0.186      108.355       17.599        0.026      339.091       12.188      870.992
05/13/2014  07:53:00       11.099       67.295      -13.345       23.771       34.400       24.513      565.053     1183.373      600.884        0.359        0.117       68.204       18.883        0.077      339.112       12.222      870.993
05/13/2014  07:54:00       79.488       34.384       10.022       22.184       18.172       23.701      492.113      330.230      561.746        0.449        0.069       86.606        9.731        0.013      339.086       12.179      870.999
05/13/2014  07:55:00       73.357       47.866       15.751       44.886       22.187       33.799     2014.718      492.265     1142.340        0.578        0.182       87.592       22.468        0.066      339.008       12.047      870.994
05/13/2014  07:56:00      110.520       53.252       14.556       29.533       26.711       29.329      872.209      713.489      860.169        0.885        0.122      122.680       19.715        0.026      338.928       11.914      871.001
05/13/2014  07:57:00       66.225       16.241        3.512       34.811       36.019       26.992     1211.831     1297.362      728.579        0.395        0.162       68.187       19.514        0.082      339.150       12.285      871.017
05/13/2014  07:58:00       12.132       73.678       -2.467       18.868       37.373       20.010      355.984     1396.704      400.407        0.387        0.108       74.670       22.124        0.088      339.118       12.233      871.030
05/13/2014  07:59:00        3.241       54.609       15.451       21.297       41.885       29.209      453.571     1754.338      853.195        0.315        0.153       54.705       23.603        0.186      339.621       13.081      871.041
05/13/2014  08:00:00       -8.201       20.574        9.324       15.109       24.392       20.661      228.295      594.968      426.896        0.091        0.063       22.149        9.367        0.179      339.879       13.516      871.052
05/13/2014  08:01:00       -7.119        1.324       14.260       25.636       20.708       15.174      657.212      428.837      230.256        0.079        0.066        7.242       11.209        2.396      339.536       12.936      871.061
05/13/2014  08:02:00       15.339       32.849       12.370       33.434       25.283       22.505     1117.813      639.245      506.494        0.187        0.113       36.254       15.348        0.179      339.553       12.966      871.064
05/13/2014  08:03:00       48.392       51.962       -4.198       24.600       36.341       27.647      605.156     1320.687      764.370        0.387        0.135       71.006       22.105        0.097      339.337       12.601      871.076
05/13/2014  08:04:00        7.704       59.244       -1.709       21.376       31.786       26.213      456.920     1010.340      687.141        0.286        0.108       59.742       22.397        0.141      339.505       12.884      871.083
05/13/2014  08:05:00        5.670       25.383       -0.978       13.245       24.487       21.041      175.442      599.609      442.711        0.095        0.061       26.008       19.128        0.541      339.738       13.277      871.099
05/13/2014  08:06:00       12.048       25.964       -2.190       11.150       24.181       17.981      124.315      584.719      323.311        0.093        0.052       28.623       14.717        0.264      339.618       13.075      871.116
05/13/2014  08:07:00       37.755       45.074       13.485       32.817       44.895       24.172     1076.944     2015.583      584.293        0.366        0.184       58.798       12.017        0.042      339.472       12.829      871.125
05/13/2014  08:08:00      -10.126       75.795        0.683       28.372       57.723       22.794      804.967     3331.889      519.567        0.525        0.233       76.468       25.430        0.111      339.632       13.099      871.128
05/13/2014  08:09:00       74.245       41.825        1.846       53.711       25.707       26.897     2884.843      660.827      723.447        0.577        0.213       85.215       18.043        0.045      339.568       12.991      871.127
05/13/2014  08:10:00       57.265       53.576       -0.435       53.183       38.160       30.477     2828.380     1456.193      928.824        0.568        0.261       78.420       21.381        0.074      339.508       12.891      871.121
05/13/2014  08:11:00       35.408       25.885        9.495       41.865       30.676       24.945     1752.648      940.989      622.278        0.266        0.166       43.861       21.369        0.237      339.827       13.427      871.103
05/13/2014  08:12:00       40.748       40.439        7.463       26.863       33.033       27.700      721.598     1091.190      767.310        0.297        0.129       57.409       21.960        0.146      339.601       13.046      871.099
05/13/2014  08:13:00       43.474       50.273       -8.769       31.813       23.902       20.040     1012.091      571.299      401.599        0.324        0.099       66.464       13.502        0.041      339.750       13.298      871.090
05/13/2014  08:14:00       55.164       43.890       -2.181       30.487       20.803       24.288      929.488      432.782      589.920        0.346        0.098       70.494       11.792        0.028      339.728       13.261      871.072
05/13/2014  08:15:00       34.874       29.614       19.023       50.537       24.997       22.790     2553.985      624.858      519.400        0.308        0.185       45.751       21.544        0.222      340.097       13.884      871.068
05/13/2014  08:16:00       43.721       27.500       18.070       51.220       33.787       27.336     2623.445     1141.541      747.241        0.375        0.226       51.651       27.150        0.276      339.956       13.645      871.071
05/13/2014  08:17:00       30.225       28.005        8.304       25.630       23.917       23.514      656.903      572.021      552.895        0.177        0.089       41.204       17.288        0.176      339.690       13.197      871.073
05/13/2014  08:18:00       21.312       25.415        6.781       17.577       25.501       18.369      308.959      650.288      337.410        0.122        0.065       33.168       16.110        0.236      339.808       13.395      871.072
05/13/2014  08:19:00        8.278       14.944       14.246       25.383       31.106       19.978      644.289      967.556      399.121        0.125        0.101       17.083       14.848        0.755      340.015       13.743      871.076
05/13/2014  08:20:00        2.683       68.455       -7.369       38.645       35.100       21.003     1493.421     1232.031      441.124        0.396        0.158       68.508        5.118        0.006      339.769       13.330      871.077
05/13/2014  08:21:00       -8.635       89.216       -0.572       21.253       36.839       24.560      451.701     1357.097      603.194        0.522        0.121       89.633       14.231        0.025      339.732       13.268      871.072
05/13/2014  08:22:00       24.714       -0.472       10.040       27.289       24.738       29.191      744.712      611.971      852.094        0.146        0.110       24.719       24.231        0.961      340.238       14.122      871.061
05/13/2014  08:23:00       33.443       10.108       18.746       34.198       29.521       24.243     1169.509      871.483      587.714        0.210        0.131       34.937       16.463        0.222      340.024       13.759      871.046
05/13/2014  08:24:00       49.747       42.220       10.392       38.435       38.180       31.958     1477.268     1457.740     1021.337        0.416        0.198       65.247       21.788        0.112      339.890       13.534      871.035
05/13/2014  08:25:00       72.584       53.169       -0.237       46.943       33.295       20.985     2203.674     1108.543      440.373        0.592        0.188       89.974       20.317        0.051      339.758       13.311      871.025
05/13/2014  08:26:00      111.461       74.947        9.738       30.497       27.904       31.097      930.097      778.643      967.039        1.041        0.134      134.315       15.759        0.014      339.735       13.271      871.014
05/13/2014  08:27:00       77.111       33.850        9.789       47.512       37.541       28.196     2257.382     1409.303      795.036        0.582        0.223       84.214       19.707        0.055      339.985       13.693      871.024
05/13/2014  08:28:00       62.529      -18.682        6.735       45.339       42.402       25.030     2055.640     1797.940      626.490        0.439        0.224       65.260       10.861        0.028      339.787       13.360      871.029
05/13/2014  08:29:00       -3.894      -44.515       11.771       19.451       26.304       16.433      378.342      691.908      270.037        0.174        0.067       44.685       10.313        0.053      339.719       13.244      871.031
05/13/2014  08:30:00      -42.689       83.923      -10.807       39.521       56.160       24.302     1561.919     3153.908      590.601        0.714        0.265       94.156       14.894        0.025      339.922       13.588      871.040
05/13/2014  08:31:00      -16.597       80.745       10.465       20.115       47.030       27.167      404.621     2211.812      738.026        0.513        0.168       82.433       28.700        0.121      340.498       14.561      871.041
05/13/2014  08:32:00       21.536       23.490       15.223       44.240       58.003       28.564     1957.140     3364.297      815.922        0.369        0.307       31.868       14.712        0.213      340.328       14.273      871.044
05/13/2014  08:33:00       73.639       47.072       21.162       47.748       30.841       36.462     2279.893      951.188     1329.472        0.632        0.228       87.398       19.707        0.051      339.974       13.674      871.051
05/13/2014  08:34:00       82.970       66.799        4.141       46.349       29.533       29.399     2148.242      872.221      864.292        0.762        0.194      106.518       18.508        0.030      339.874       13.506      871.049
05/13/2014  08:35:00      101.367       41.979        9.000       35.971       32.570       32.346     1293.889     1060.836     1046.243        0.776        0.170      109.715       16.496        0.023      339.903       13.556      871.045
05/13/2014  08:36:00       99.976       53.037       26.067       47.523       36.645       42.073     2258.461     1342.832     1770.104        0.943        0.269      113.173       33.563        0.088      339.863       13.489      871.049
05/13/2014  08:37:00       87.314       48.742       24.155       37.644       44.647       36.329     1417.073     1993.316     1319.802        0.766        0.237       99.997       25.571        0.065      339.883       13.523      871.046
05/13/2014  08:38:00       58.010       37.196       72.804       46.999       62.388       46.643     2208.863     3892.239     2175.551        0.916        0.414       68.911       48.015        0.485      340.211       14.075      871.047
05/13/2014  08:39:00       81.367       72.163       40.182       46.450       30.412       38.235     2157.642      924.885     1461.902        0.899        0.227      108.757       28.541        0.069      340.030       13.770      871.048
05/13/2014  08:40:00       62.232       83.306       78.866       69.925       70.891       51.165     4889.559     5025.505     2617.820        1.478        0.627      103.984       49.044        0.222      340.232       14.110      871.041
05/13/2014  08:41:00      108.237       90.615       62.078       80.625       55.956       62.133     6500.438     3131.027     3860.464        1.863        0.675      141.161       56.100        0.158      340.034       13.775      871.052
05/13/2014  08:42:00       59.809       53.637       24.010       46.053       35.558       38.047     2120.858     1264.384     1447.589        0.593        0.242       80.337       31.255        0.151      340.103       13.893      871.049
05/13/2014  08:43:00       59.587       44.303       44.260       63.683       31.992       35.945     4055.491     1023.469     1292.043        0.692        0.319       74.252       37.244        0.252      340.248       14.137      871.048
05/13/2014  08:44:00       85.238       57.998       46.469       59.262       45.028       51.157     3511.958     2027.540     2617.027        1.047        0.408      103.099       43.973        0.182      340.090       13.870      871.045
05/13/2014  08:45:00       36.300       17.478       36.978       35.942       28.540       31.068     1291.829      814.520      965.221        0.303        0.154       40.289       23.858        0.351      340.310       14.243      871.036
05/13/2014  08:46:00       12.803       19.232       40.963       31.941       31.923       21.580     1020.249     1019.110      465.710        0.236        0.125       23.104       17.622        0.582      340.754       14.992      871.029
05/13/2014  08:47:00       95.193       70.888       58.924       41.204       35.867       41.261     1697.792     1286.425     1702.433        1.112        0.234      118.688       21.861        0.034      340.228       14.104      871.026
05/13/2014  08:48:00       52.945       55.789       21.756       35.829       40.985       32.241     1283.703     1679.747     1039.495        0.520        0.200       76.913       26.658        0.120      340.190       14.039      871.017
05/13/2014  08:49:00       51.054       54.191       46.027       44.783       34.812       35.786     2005.534     1211.893     1280.604        0.608        0.225       74.453       30.592        0.169      340.328       14.273      871.020
05/13/2014  08:50:00       39.300       38.593       31.342       37.318       43.441       28.575     1392.623     1887.144      816.520        0.406        0.205       55.080       12.532        0.052      340.540       14.632      871.010
05/13/2014  08:51:00       55.574       57.271       10.618       21.166       28.302       32.147      448.018      801.001     1033.462        0.438        0.114       79.802       20.946        0.069      340.503       14.569      871.005
05/13/2014  08:52:00       43.236       41.208       29.884       44.951       51.490       40.280     2020.592     2651.211     1622.507        0.538        0.315       59.729       33.012        0.305      340.623       14.772      871.013
05/13/2014  08:53:00       70.109       46.976       51.868       62.425       50.246       46.715     3896.844     2524.683     2182.329        0.921        0.430       84.392       36.511        0.187      340.512       14.585      871.007
05/13/2014  08:54:00       85.750       85.069       87.531       83.920       87.711       63.179     7042.549     7693.206     3991.563        2.049        0.936      120.788       52.772        0.191      340.436       14.453      871.005
05/13/2014  08:55:00      106.739       52.762       36.080       69.157       51.261       52.191     4782.739     2627.712     2723.894        1.280        0.507      119.068       40.545        0.116      340.391       14.379      871.009
05/13/2014  08:56:00      147.477      102.972       51.508       89.190       64.178       59.733     7954.875     4118.771     3568.077        2.532        0.782      179.869       41.507        0.053      340.376       14.352      871.014
05/13/2014  08:57:00       52.412       64.764       29.600       60.034       50.043       31.660     3604.089     2504.253     1002.328        0.746        0.356       83.315       17.448        0.044      340.768       15.016      871.017
05/13/2014  08:58:00       39.586       14.767       29.944       41.874       32.185       27.669     1753.436     1035.874      765.556        0.312        0.178       42.251       22.140        0.275      341.007       15.422      871.021
05/13/2014  08:59:00       37.004       70.986       90.535       59.953       50.295       47.510     3594.391     2529.543     2257.187        1.149        0.419       80.051       36.287        0.205      340.961       15.343      871.018
05/13/2014  09:00:00       49.027       32.466       82.058       63.001       67.206       43.705     3969.178     4516.633     1910.142        1.029        0.520       58.802       41.169        0.490      341.013       15.432      871.002
05/13/2014  09:01:00      172.503      102.123       60.786       90.502       66.587       71.987     8190.526     4433.858     5182.105        3.084        0.890      200.466       64.084        0.102      340.486       14.538      871.005
05/13/2014  09:02:00      107.047       89.558       73.493       83.334       79.593       79.319     6944.508     6335.089     6291.446        2.222        0.979      139.570       75.299        0.291      340.616       14.758      870.994
05/13/2014  09:03:00       73.450       89.944      100.803       74.281       58.267       45.049     5517.695     3394.999     2029.451        1.729        0.547      116.125       38.867        0.112      340.558       14.660      871.004
05/13/2014  09:04:00       99.343       82.340       75.813       76.403       72.234       57.855     5837.479     5217.697     3347.256        1.840        0.720      129.031       48.938        0.144      340.700       14.899      870.999
05/13/2014  09:05:00       62.497       25.809       27.640       89.442       57.274       49.949     7999.931     3280.309     2494.903        0.955        0.689       67.616       26.093        0.149      340.941       15.309      871.004
05/13/2014  09:06:00       94.015       59.075       16.852       60.713       48.225       36.694     3686.121     2325.690     1346.431        0.998        0.368      111.034       35.355        0.101      341.043       15.482      871.014
05/13/2014  09:07:00      106.547       59.140        5.874       64.820       48.799       40.147     4201.655     2381.315     1611.761        1.154        0.410      121.859       29.634        0.059      340.914       15.262      871.002
05/13/2014  09:08:00      100.381       96.026       15.850       83.303       60.113       49.476     6939.326     3613.523     2447.830        1.627        0.650      138.915       31.067        0.050      340.964       15.347      870.996
05/13/2014  09:09:00      115.609       55.055       40.269      101.621       51.267       38.149    10326.863     2628.314     1455.326        1.621        0.721      128.049       32.101        0.063      341.376       16.045      870.996
05/13/2014  09:10:00      154.673       79.917       27.478       91.085       70.167       55.060     8296.492     4923.410     3031.555        2.366        0.813      174.099       29.686        0.029      340.860       15.171      871.003
05/13/2014  09:11:00      101.311       90.108       68.215       67.075       53.434       58.178     4499.067     2855.218     3384.697        1.689        0.537      135.585       43.597        0.103      340.913       15.260      871.006
05/13/2014  09:12:00      143.272      106.919       26.824       59.296       48.056       42.033     3516.052     2309.353     1766.799        2.013        0.380      178.769       32.225        0.032      340.756       14.995      871.008
05/13/2014  09:13:00       65.990       84.098        2.261       80.191       55.631       54.549     6430.612     3094.842     2975.644        1.196        0.625      106.897       40.933        0.147      340.903       15.246      871.010
05/13/2014  09:14:00      116.078       77.324       23.426       78.435       44.580       51.784     6152.117     1987.362     2681.561        1.541        0.541      139.474       36.114        0.067      341.147       15.657      871.010
05/13/2014  09:15:00      109.558       48.493       13.323       66.535       46.712       38.775     4426.888     2182.045     1503.472        1.132        0.406      119.811       25.865        0.047      341.025       15.452      871.011
05/13/2014  09:16:00       85.168       64.653       11.158       74.197       48.306       45.093     5505.246     2333.450     2033.351        1.071        0.494      106.928       35.986        0.113      341.155       15.672      871.005
05/13/2014  09:17:00      118.434       95.464       16.429       63.456       55.755       46.147     4026.718     3108.629     2129.566        1.634        0.463      152.119       33.694        0.049      341.167       15.690      870.993
05/13/2014  09:18:00      124.378      110.893        4.111       55.474       55.677       59.024     3077.357     3099.902     3483.892        1.872        0.483      166.635       35.643        0.046      341.043       15.480      870.979
05/13/2014  09:19:00      183.412      135.445       22.998       58.853       49.478       49.321     3463.696     2448.116     2432.519        3.043        0.417      228.002       23.933        0.011      341.043       15.478      870.972
05/13/2014  09:20:00       80.425       56.394       56.677       62.080       57.815       43.732     3853.886     3342.596     1912.520        1.098        0.455       98.227       36.919        0.141      341.529       16.305      870.970
05/13/2014  09:21:00       47.264       77.815       68.434       49.145       58.180       43.255     2415.200     3384.874     1870.967        1.032        0.384       91.044       22.488        0.061      341.669       16.541      870.980
05/13/2014  09:22:00       37.049       74.033       31.833       63.957       54.935       48.229     4090.548     3017.810     2326.081        0.865        0.472       82.786       22.284        0.072      341.265       15.858      870.984
05/13/2014  09:23:00       97.314       41.932       20.240       49.921       37.303       39.780     2492.154     1391.500     1582.450        0.855        0.273      105.964       26.170        0.061      341.377       16.047      870.992
05/13/2014  09:24:00       57.743       55.001        7.050       37.639       29.673       25.106     1416.663      880.507      630.292        0.467        0.146       79.746       16.369        0.042      341.130       15.631      870.984
05/13/2014  09:25:00       35.650       53.815        8.371       27.737       35.631       25.956      769.360     1269.565      673.712        0.347        0.136       64.552       22.555        0.122      341.153       15.668      870.981
05/13/2014  09:26:00       43.521       34.579       10.238       41.402       35.048       30.183     1714.115     1228.358      911.043        0.352        0.193       55.586       29.092        0.274      341.144       15.653      870.971
05/13/2014  09:27:00      113.387      109.163       27.566       76.472       48.663       48.189     5848.019     2368.053     2322.210        1.803        0.527      157.395       50.398        0.103      341.177       15.706      870.964
05/13/2014  09:28:00       82.960       44.193       20.282       57.974       43.555       39.794     3360.993     1897.014     1583.584        0.804        0.342       93.997       17.800        0.036      341.391       16.072      870.939
05/13/2014  09:29:00       54.773       -9.525       46.454       62.166       67.089       44.107     3864.564     4500.924     1945.421        0.778        0.516       55.595       38.886        0.489      341.432       16.139      870.929
05/13/2014  09:30:00       65.361       62.196       71.122       65.514       59.589       58.479     4292.084     3550.829     3419.810        1.223        0.563       90.224       52.155        0.334      341.437       16.150      870.924
05/13/2014  09:31:00      136.875       76.196       39.559       55.531       68.517       39.343     3083.681     4694.569     1547.905        1.771        0.466      156.655       32.191        0.042      341.150       15.662      870.926
05/13/2014  09:32:00       50.345       24.719       15.932       37.858       28.936       27.762     1433.244      837.293      770.740        0.322        0.152       56.086       17.183        0.094      341.384       16.059      870.921
05/13/2014  09:33:00       23.962      -10.649       22.435       32.520       64.669       34.750     1057.562     4182.022     1207.536        0.382        0.322       26.222       28.882        1.213      341.526       16.301      870.926
05/13/2014  09:34:00       44.121      -21.090       36.861       66.548       77.057       54.850     4428.694     5937.813     3008.498        0.856        0.669       48.902       49.091        1.008      341.745       16.672      870.922
05/13/2014  09:35:00      129.008     -168.216      -17.586       56.680       97.910       45.108     3212.576     9586.399     2034.735        3.004        0.742      211.990       47.596        0.050      341.691       16.576      870.917
05/13/2014  09:36:00       49.706       41.179       88.326       75.321       59.384       39.154     5673.203     3526.478     1533.038        1.135        0.537       64.547       42.405        0.432      341.964       17.042      870.930
05/13/2014  09:37:00       31.368       -2.381       14.261       48.910       51.330       40.124     2392.170     2634.750     1609.905        0.391        0.332       31.458       27.644        0.772      341.735       16.654      870.914
05/13/2014  09:38:00       50.710      -12.738       46.776       55.468       84.327       36.499     3076.721     7111.001     1332.154        0.822        0.576       52.286       45.184        0.747      341.771       16.716      870.900
05/13/2014  09:39:00       66.769       15.308       79.469       74.452       72.640       56.880     5543.145     5276.604     3235.358        1.253        0.703       68.501       47.518        0.481      341.909       16.951      870.882
05/13/2014  09:40:00       70.535       96.278       74.852       75.297       57.655       47.918     5669.681     3324.122     2296.142        1.557        0.564      119.351       44.475        0.139      341.827       16.810      870.896
05/13/2014  09:41:00      231.100      147.926       57.483       53.213       52.199       50.776     2831.579     2724.719     2578.183        4.336        0.407      274.389       34.388        0.016      341.503       16.256      870.891
05/13/2014  09:42:00      126.648       58.633       23.337       75.037       68.778       46.592     5630.614     4730.375     2170.824        1.627        0.627      139.562       23.446        0.028      341.538       16.320      870.894
05/13/2014  09:43:00       45.651       74.034       90.850       75.069       71.684       55.123     5635.317     5138.568     3038.500        1.481        0.691       86.977       51.872        0.356      341.736       16.654      870.880
05/13/2014  09:44:00       78.190       56.232       42.597       72.452       48.818       43.216     5249.357     2383.229     1867.619        1.029        0.475       96.310       42.898        0.198      341.326       15.960      870.884
05/13/2014  09:45:00       58.064       62.893       88.319       60.423       77.721       50.392     3650.909     6040.543     2539.365        1.368        0.612       85.598       50.918        0.354      341.492       16.243      870.860
05/13/2014  09:46:00      128.325       94.392       33.620       71.190       70.615       68.176     5068.019     4986.419     4647.972        2.060        0.735      159.302       42.865        0.072      341.723       16.632      870.860
05/13/2014  09:47:00       96.854       94.307       48.197       61.915       60.523       53.919     3833.512     3663.024     2907.219        1.550        0.520      135.183       39.921        0.087      341.816       16.790      870.854
05/13/2014  09:48:00      158.777       98.928       20.456       62.074       52.800       48.619     3853.231     2787.863     2363.835        2.221        0.450      187.075       29.402        0.025      341.801       16.764      870.864
05/13/2014  09:49:00      159.648       87.949       35.896       65.931       54.280       55.488     4346.888     2946.342     3078.904        2.244        0.519      182.270       40.298        0.049      341.632       16.477      870.846
05/13/2014  09:50:00       75.659       27.983        3.129       73.040       76.614       48.634     5334.846     5869.731     2365.224        1.004        0.678       80.668       38.315        0.226      342.025       17.146      870.849
05/13/2014  09:51:00       25.474       51.252       64.041       47.705       74.931       68.357     2275.812     5614.596     4672.658        0.997        0.628       57.234       63.665        1.237      342.115       17.299      870.869
05/13/2014  09:52:00      190.282      129.582       36.326       57.285       42.732       45.448     3281.626     1826.038     2065.552        3.074        0.359      230.215       21.756        0.009      341.473       16.206      870.883
05/13/2014  09:53:00      155.376       99.372       34.130       79.290       46.712       50.313     6286.982     2182.035     2531.372        2.309        0.550      184.436       47.265        0.066      341.608       16.439      870.878
05/13/2014  09:54:00       86.251       67.652       38.282       92.396       50.998       29.032     8536.946     2600.797      842.885        1.273        0.599      109.618       31.823        0.084      341.856       16.859      870.868
05/13/2014  09:55:00       65.899       33.695       23.621       41.554       30.451       31.648     1726.772      927.235     1001.571        0.485        0.183       74.014       15.623        0.045      341.991       17.089      870.882
05/13/2014  09:56:00      127.164        8.859       57.428       87.639      102.195       66.134     7680.588    10443.788     4373.696        2.102        1.125      127.472       45.195        0.126      342.039       17.168      870.874
05/13/2014  09:57:00      163.888      148.529      118.112       84.767       70.861       63.485     7185.499     5021.330     4030.321        3.955        0.812      221.179       53.241        0.058      341.513       16.274      870.914
05/13/2014  09:58:00      106.968       46.036       53.035       65.884       85.202       45.740     4340.667     7259.327     2092.141        1.503        0.685      116.453       45.368        0.152      341.545       16.331      870.918
05/13/2014  09:59:00       95.742       45.662       82.857       55.362      104.677       59.877     3064.963    10957.224     3585.267        1.786        0.880      106.074       63.460        0.358      341.639       16.490      870.920
05/13/2014  10:00:00      107.897       68.465      110.210      123.530      133.698       80.530    15259.751    17875.148     6485.064        3.404        1.981      127.786       73.057        0.327      341.943       17.004      870.887
05/13/2014  10:01:00      135.500       93.089       30.301       73.009       44.542       45.664     5330.281     1983.957     2085.172        1.867        0.470      164.395       38.550        0.055      341.829       16.812      870.927
05/13/2014  10:02:00      148.959       87.611       51.431       65.501       49.054       50.904     4290.438     2406.307     2591.214        2.090        0.464      172.813       35.657        0.043      341.787       16.741      870.931
05/13/2014  10:03:00       36.250       28.192       70.074       45.615       81.004       43.825     2080.690     6561.584     1920.634        0.879        0.528       45.922       46.724        1.035      341.922       16.971      870.915
05/13/2014  10:04:00       37.374       53.445       67.014       43.863       59.630       43.902     1923.945     3555.759     1927.354        0.807        0.370       65.217       39.574        0.368      342.139       17.339      870.918
05/13/2014  10:05:00       22.692       85.155      102.549       56.624       82.257       52.933     3206.241     6766.219     2801.921        1.553        0.639       88.126       50.345        0.326      342.201       17.445      870.908
05/13/2014  10:06:00       58.122       65.950       53.092       70.611       50.345       39.299     4985.942     2534.577     1544.418        0.980        0.453       87.907       25.296        0.083      342.330       17.665      870.913
05/13/2014  10:07:00       52.885       72.650       85.362       88.891       63.458       45.403     7901.530     4026.949     2061.440        1.467        0.699       89.860       31.550        0.123      342.382       17.751      870.913
05/13/2014  10:08:00       98.283      109.127       73.879       83.823       81.557       58.639     7026.301     6651.521     3438.524        2.207        0.856      146.862       47.999        0.107      342.193       17.430      870.909
05/13/2014  10:09:00       40.752      -34.916       19.794       69.279      100.403       47.947     4799.574    10080.817     2298.879        1.022        0.859       53.665       50.925        0.901      342.528       18.000      870.903
05/13/2014  10:10:00      191.474     -176.783      -11.771      124.578      183.921       67.052    15519.554    33827.066     4496.027        6.094        2.692      260.604       99.861        0.147      342.261       17.546      870.877
05/13/2014  10:11:00      137.971      -53.566       74.338       89.296      233.862      118.481     7973.814    54691.565    14037.750        5.205        3.835      148.005      146.793        0.984      342.390       17.763      870.867
05/13/2014  10:12:00      126.896       25.745       93.347      113.495      110.374       69.603    12881.119    12182.468     4844.522        2.769        1.495      129.481       33.896        0.069      342.364       17.720      870.887
05/13/2014  10:13:00      110.092       83.920       65.448       64.041       62.610       73.339     4101.209     3920.038     5378.660        1.842        0.670      138.430       40.965        0.088      342.391       17.767      870.914
05/13/2014  10:14:00      106.487     -111.267       33.693      105.887      152.295       75.656    11212.022    23193.773     5723.790        3.248        2.006      154.013       78.801        0.262      342.329       17.662      870.909
05/13/2014  10:15:00      117.298      -27.198       59.942       99.005       66.914       54.001     9801.897     4477.428     2916.076        1.764        0.860      120.410       41.203        0.117      342.378       17.745      870.905
05/13/2014  10:16:00       88.338      -81.216        4.208       86.178      110.943       57.225     7426.700    12308.347     3274.755        1.871        1.150      119.999       57.680        0.231      342.658       18.221      870.907
05/13/2014  10:17:00       99.554        9.692       65.014       91.687       99.604       79.171     8406.561     9920.924     6267.998        1.941        1.230      100.025       84.297        0.710      342.158       17.372      870.915
05/13/2014  10:18:00      120.056     -188.092      -27.347       91.532      107.941       52.840     8378.105    11651.239     2792.099        3.668        1.141      223.141       52.720        0.056      342.137       17.333      870.903
05/13/2014  10:19:00      115.633     -185.844      -23.025       86.247      130.247       65.894     7438.607    16964.182     4342.012        3.859        1.437      218.881       81.493        0.139      342.452       17.870      870.885
05/13/2014  10:20:00      110.339      -69.686       30.956       73.580       63.322       59.616     5414.014     4009.708     3554.083        1.548        0.649      130.502       45.190        0.120      342.612       18.142      870.878
05/13/2014  10:21:00       66.913      -37.256       35.953       69.030       54.391       40.738     4765.194     2958.376     1659.551        0.827        0.469       76.586       43.832        0.328      342.635       18.182      870.873
05/13/2014  10:22:00       28.389       -1.547       37.526       39.692       43.012       28.069     1575.487     1850.001      787.892        0.321        0.211       28.431       26.311        0.856      342.748       18.376      870.861
05/13/2014  10:23:00       17.784       -1.486       20.066       31.914       43.001       33.788     1018.474     1849.056     1141.654        0.236        0.200       17.846       30.587        2.938      342.405       17.792      870.850
05/13/2014  10:24:00       58.480       -3.094       51.578       70.249       73.856       56.461     4934.934     5454.760     3187.827        0.983        0.679       58.562       55.007        0.882      342.566       18.065      870.862
05/13/2014  10:25:00       97.450      -60.194       42.284       85.391      103.700       59.923     7291.692    10753.722     3590.714        1.827        1.082      114.542       68.043        0.353      342.627       18.168      870.870
05/13/2014  10:26:00       90.122       45.365       57.945      109.171      105.116       71.872    11918.305    11049.270     5165.650        2.083        1.407      100.896       57.899        0.329      342.600       18.122      870.861
05/13/2014  10:27:00       51.571     -187.514       -5.396       84.147       70.110       51.151     7080.752     4915.346     2616.461        2.623        0.731      194.477       43.011        0.049      342.313       17.633      870.873
05/13/2014  10:28:00       43.413     -115.838      -12.307       70.241       94.491       61.671     4933.864     8928.532     3803.347        1.656        0.883      123.706       53.492        0.187      342.488       17.931      870.869
05/13/2014  10:29:00      172.236     -216.128       -8.498      107.941      120.423       71.995    11651.295    14501.810     5183.268        5.389        1.567      276.363       76.601        0.077      342.424       17.822      870.873
05/13/2014  10:30:00       97.676     -164.583       32.586      134.209      116.145       89.130    18011.933    13489.657     7944.215        3.856        1.972      191.385       75.285        0.155      342.710       18.309      870.878
05/13/2014  10:31:00       89.713       19.477       88.868       78.382      140.674       79.439     6143.759    19789.268     6310.550        2.428        1.612       91.803       93.417        1.035      342.596       18.115      870.890
05/13/2014  10:32:00       45.942       37.502       21.603       55.806       48.405       38.918     3114.358     2343.057     1514.594        0.548        0.349       59.305       21.455        0.131      342.644       18.200      870.874
05/13/2014  10:33:00       17.294      -51.201       34.041       63.668       84.592       57.260     4053.644     7155.887     3278.730        0.928        0.724       54.043       49.306        0.832      342.810       18.481      870.875
05/13/2014  10:34:00        0.595        3.274      105.607       86.557      160.994       96.472     7492.113    25919.159     9306.863        2.693        2.136        3.327      110.717     1107.249      342.667       18.234      870.828
05/13/2014  10:35:00       84.234     -129.548       48.595      132.183      101.167       75.986    17472.287    10234.732     5773.865        2.985        1.674      154.526       56.699        0.135      342.970       18.750      870.828
05/13/2014  10:36:00      198.414     -223.504      -38.350      108.266      129.915       89.701    11721.540    16878.020     8046.215        6.371        1.832      298.868       94.637        0.100      342.877       18.591      870.816
05/13/2014  10:37:00      135.815     -192.764      -23.812      105.947      122.872       77.711    11224.672    15097.451     6039.046        4.426        1.618      235.804       68.782        0.085      343.086       18.946      870.816
05/13/2014  10:38:00      132.892     -168.015      -14.384       67.794      120.576       64.703     4595.989    14538.660     4186.475        3.470        1.166      214.218       63.335        0.087      342.911       18.650      870.813
05/13/2014  10:39:00       71.795      -76.387       53.438       76.026      140.310       86.519     5779.971    19686.858     7485.507        2.339        1.648      104.831       91.685        0.765      343.110       18.990      870.821
05/13/2014  10:40:00       60.461        0.412       42.856       51.252       46.059       56.426     2626.765     2121.402     3183.852        0.671        0.397       60.462       39.359        0.424      342.712       18.314      870.845
05/13/2014  10:41:00       73.977      -25.044       20.215       37.426       45.931       33.393     1400.706     2109.690     1115.103        0.557        0.231       78.101       24.983        0.102      342.121       17.310      870.829
05/13/2014  10:42:00       54.828      -37.215       -0.559       65.628       35.595       39.404     4307.076     1266.986     1552.673        0.576        0.356       66.265       26.114        0.155      342.158       17.371      870.824
05/13/2014  10:43:00       31.796       -0.686       14.053       42.165       30.090       37.031     1777.886      905.410     1371.331        0.263        0.203       31.803       24.072        0.573      342.789       18.445      870.827
05/13/2014  10:44:00       34.747      -32.030        0.578       28.156       55.012       39.273      792.764     3026.283     1542.391        0.380        0.268       47.258       18.790        0.158      342.596       18.116      870.818
05/13/2014  10:45:00       47.064       14.383       32.973       67.810       68.690       39.749     4598.165     4718.303     1580.005        0.720        0.545       49.213       28.369        0.332      343.180       19.109      870.814
05/13/2014  10:46:00       92.055        4.614       35.252       92.039      131.934       50.043     8471.217    17406.535     2504.295        1.905        1.419       92.171       31.492        0.117      343.028       18.850      870.813
05/13/2014  10:47:00      223.347     -150.585       37.757      161.241      161.849      101.689    25998.764    26194.957    10340.572        6.825        3.127      269.369      115.668        0.184      343.129       19.020      870.784
05/13/2014  10:48:00      181.858      100.471       70.024      121.800      111.757       83.353    14835.280    12489.534     6947.769        4.116        1.714      207.766       70.311        0.115      342.814       18.485      870.816
05/13/2014  10:49:00      179.786       76.345       40.979      127.330       63.720       63.356    16212.897     4060.239     4014.034        3.205        1.214      195.325       57.742        0.087      343.009       18.818      870.799
05/13/2014  10:50:00       90.481       46.397       63.431       74.351       67.672       55.148     5528.085     4579.549     3041.299        1.375        0.657      101.683       42.647        0.176      343.089       18.955      870.815
05/13/2014  10:51:00      -43.314      -95.201      -19.763      105.673      110.069       41.148    11166.735    12115.159     1693.197        1.815        1.249      104.591       42.514        0.165      342.614       18.145      870.799
05/13/2014  10:52:00       16.691       20.278       48.232       48.403       56.492       46.695     2342.832     3191.353     2180.387        0.536        0.386       26.263       37.370        2.025      343.454       19.577      870.800
05/13/2014  10:53:00       24.378       76.983      142.662       78.703      119.038       63.596     6194.156    14170.097     4044.409        2.564        1.220       80.751       68.683        0.723      343.130       19.024      870.795
05/13/2014  10:54:00       46.353       53.836       48.705       56.128       64.775       79.674     3150.331     4195.744     6347.873        1.055        0.685       71.042       70.473        0.984      342.887       18.610      870.841
05/13/2014  10:55:00      149.032      116.451       32.403       50.461       53.369       49.635     2546.320     2848.218     2463.592        2.234        0.393      189.133       18.401        0.009      342.833       18.516      870.838
05/13/2014  10:56:00      114.673       68.085       49.440       50.208       68.329       55.162     2520.863     4668.852     3042.855        1.523        0.512      133.362       31.589        0.056      343.098       18.971      870.825
05/13/2014  10:57:00       65.975       64.803       68.954       69.016       64.855       48.748     4763.234     4206.129     2376.367        1.232        0.567       92.478       39.993        0.187      343.201       19.145      870.842
05/13/2014  10:58:00       27.541      -12.086       26.122       64.304       77.166       42.588     4135.039     5954.527     1813.705        0.674        0.595       30.076       42.933        2.038      343.089       18.954      870.833
05/13/2014  10:59:00      164.849      -40.577       43.378      118.847      136.283       60.394    14124.688    18573.121     3647.408        3.352        1.817      169.770       35.712        0.044      342.997       18.796      870.782
05/13/2014  11:00:00       73.877       95.072       97.144       97.782       78.404       79.007     9561.329     6147.181     6242.082        2.294        1.098      120.401       63.817        0.281      343.399       19.482      870.770
05/13/2014  11:01:00      343.087      211.516       67.039      158.856      102.107      103.355    25235.178    10425.842    10682.170       10.663        2.317      403.048       56.587        0.020      342.994       18.790      870.774
05/13/2014  11:02:00      377.171      205.861       49.702      190.547      143.340      109.459    36308.320    20546.307    11981.334       12.796        3.442      429.694       36.457        0.007      342.868       18.577      870.741
05/13/2014  11:03:00      346.264      165.430       30.887      138.261      100.864       92.752    19116.079    10173.453     8602.960        9.305        1.895      383.753       36.158        0.009      343.030       18.851      870.768
05/13/2014  11:04:00      266.573      141.539       24.604      119.958       92.263      101.193    14389.818     8512.388    10240.013        6.241        1.657      301.819       40.991        0.018      343.271       19.264      870.790
05/13/2014  11:05:00      280.531      178.935       49.149      125.588      111.360       95.043    15772.455    12400.963     9033.152        7.516        1.860      332.740       65.240        0.038      342.953       18.720      870.783
05/13/2014  11:06:00      149.264      115.819        8.837      126.108      104.407       62.997    15903.106    10900.806     3968.561        3.327        1.539      188.928       39.453        0.044      343.236       19.203      870.791
05/13/2014  11:07:00      243.417      141.572      109.033      167.620      120.127       94.631    28096.476    14430.555     8955.020        7.132        2.574      281.593       80.028        0.081      343.283       19.282      870.764
05/13/2014  11:08:00      362.734      194.284       35.236      163.781      121.859      108.517    26824.340    14849.717    11775.945       11.200        2.673      411.488       50.007        0.015      342.901       18.632      870.779
05/13/2014  11:09:00      187.826      125.776       32.856      112.827       70.010       71.829    12729.929     4901.467     5159.349        3.748        1.140      226.049       33.139        0.021      342.950       18.716      870.795
05/13/2014  11:10:00      171.943      110.868       53.914      157.151       97.197       77.277    24696.475     9447.273     5971.779        4.243        2.006      204.588       55.918        0.075      343.148       19.054      870.771
05/13/2014  11:11:00      275.127      185.400       34.202      148.942      111.827       91.141    22183.715    12505.208     8306.764        7.711        2.150      331.765       52.245        0.025      343.192       19.127      870.779
05/13/2014  11:12:00      254.578      156.376       28.389      147.483      124.088       78.919    21751.312    15397.906     6228.242        6.671        2.169      298.770       54.519        0.033      343.427       19.529      870.781
05/13/2014  11:13:00      342.992      204.865       57.827      175.354      127.108       92.896    30748.867    16156.352     8629.733       10.923        2.777      399.516       50.228        0.016      342.973       18.753      870.791
05/13/2014  11:14:00      225.839      149.259       45.160      152.113      101.270       76.021    23138.264    10255.527     5779.215        5.724        1.959      270.706       35.131        0.017      343.535       19.712      870.794
05/13/2014  11:15:00      247.919      157.494       41.631      197.671      129.189       91.736    39073.839    16689.812     8415.516        7.608        3.209      293.714       45.155        0.024      343.529       19.704      870.780
05/13/2014  11:16:00      292.055      150.632      125.680      179.564      123.342      112.547    32243.287    15213.359    12666.935        9.194        3.006      328.612      105.672        0.103      342.841       18.530      870.793
05/13/2014  11:17:00      255.658      109.593       57.644      159.209      138.809       83.205    25347.540    19267.880     6923.077        6.611        2.577      278.158       73.850        0.070      343.236       19.203      870.812
05/13/2014  11:18:00      370.538      197.528       41.233      146.339      145.363       92.972    21415.235    21130.372     8643.863       11.459        2.559      419.899       45.634        0.012      343.073       18.925      870.815
05/13/2014  11:19:00      209.827      144.183       98.614      203.227      123.285      101.389    41301.033    15199.117    10279.657        7.065        3.339      254.590       97.201        0.146      343.242       19.213      870.820
05/13/2014  11:20:00      224.628      117.656       79.113      169.883      146.167      116.886    28860.374    21364.829    13662.428        6.721        3.194      253.576       96.800        0.146      343.091       18.956      870.841
05/13/2014  11:21:00      331.517      193.242       28.628       97.260      109.334       71.726     9459.444    11953.994     5144.618        8.731        1.328      383.726       27.458        0.005      342.895       18.623      870.853
05/13/2014  11:22:00      314.270      131.564       40.924      159.879      120.800       90.367    25561.256    14592.599     8166.274        8.302        2.416      340.697       72.035        0.045      343.034       18.856      870.816
05/13/2014  11:23:00      250.022      173.835       81.415      172.670      122.406       99.784    29815.022    14983.182     9956.839        7.705        2.738      304.516       70.171        0.053      343.355       19.406      870.818
05/13/2014  11:24:00      294.588      183.320       78.874      142.330      111.156       94.111    20257.895    12355.750     8856.896        8.403        2.074      346.970       50.580        0.021      343.089       18.952      870.825
05/13/2014  11:25:00      127.877       45.911       60.671      111.461      115.440       59.955    12423.477    13326.400     3594.620        2.574        1.467      135.869       49.230        0.131      343.134       19.031      870.800
05/13/2014  11:26:00      248.078      181.959       66.400      161.247       94.494       80.846    26000.537     8929.196     6536.152        7.026        2.073      307.656       68.354        0.049      343.080       18.936      870.780
05/13/2014  11:27:00      270.625      197.807       33.569      169.886      128.306       83.563    28861.417    16462.339     6982.713        8.289        2.615      335.209       57.347        0.029      343.338       19.376      870.781
05/13/2014  11:28:00      368.018      231.082       46.919      177.117      113.784      102.239    31370.534    12946.890    10452.791       12.289        2.739      434.552       62.721        0.021      343.353       19.401      870.760
05/13/2014  11:29:00      384.662      217.283       61.387      180.555      107.331       84.792    32600.179    11519.976     7189.721       12.512        2.565      441.788       13.935        0.001      343.368       19.428      870.772
05/13/2014  11:30:00      369.831      224.680       49.551      146.955      132.703       83.988    21595.654    17610.201     7054.031       11.798        2.313      432.731       47.012        0.012      343.176       19.102      870.786
05/13/2014  11:31:00      331.413      167.785      121.211      171.768      141.184      127.990    29504.269    19932.861    16381.506       10.924        3.291      371.465      100.030        0.073      343.153       19.060      870.801
05/13/2014  11:32:00      334.575      204.481       58.303      103.958      110.066       80.577    10807.261    12114.603     6492.578        9.328        1.471      392.114       36.315        0.009      342.955       18.724      870.815
05/13/2014  11:33:00      167.409      127.392       75.952      128.350       85.229       91.797    16473.754     7263.906     8426.641        4.109        1.608      210.367       73.619        0.122      343.157       19.067      870.788
05/13/2014  11:34:00      219.897      128.033       43.686       85.678       63.245       66.570     7340.665     3999.880     4431.614        4.121        0.789      254.455       38.912        0.023      343.437       19.543      870.796
05/13/2014  11:35:00      186.796      120.175       92.791      106.026       99.480      101.550    11241.505     9896.343    10312.378        4.469        1.573      222.114       58.970        0.070      343.621       19.859      870.792
05/13/2014  11:36:00      113.159      228.064      216.446      151.730      120.914      107.951    23021.931    14620.235    11653.479        8.047        2.465      254.594       93.099        0.134      343.231       19.194      870.796
05/13/2014  11:37:00       75.104      135.565      152.460      110.381      101.369       78.245    12183.956    10275.623     6122.241        3.792        1.429      154.979       74.157        0.229      343.475       19.612      870.822
05/13/2014  11:38:00       98.090        2.358       33.683      121.342      133.618       66.106    14723.973    17853.700     4370.061        2.385        1.847       98.119       58.630        0.357      343.609       19.840      870.801
05/13/2014  11:39:00      225.047      154.395       33.430      132.434       95.568       82.158    17538.714     9133.331     6749.962        5.451        1.671      272.918       34.704        0.016      343.574       19.777      870.800
05/13/2014  11:40:00      213.393      127.987       57.690      101.052       94.904       74.719    10211.580     9006.814     5582.920        4.502        1.240      248.832       43.979        0.031      343.480       19.618      870.775
05/13/2014  11:41:00      220.015      158.432       84.767      165.069      103.791      113.387    27247.935    10772.556    12856.591        6.577        2.544      271.122       92.196        0.116      343.038       18.867      870.776
05/13/2014  11:42:00      184.727      137.104       72.735      143.734       73.823       81.165    20659.391     5449.828     6587.819        4.545        1.635      230.047       54.296        0.056      343.057       18.898      870.759
05/13/2014  11:43:00      355.260      186.706       40.354      148.812      129.285       96.497    22144.961    16714.537     9311.709       10.542        2.409      401.334       64.094        0.026      343.301       19.312      870.742
05/13/2014  11:44:00      198.665      149.701       14.768      133.939       89.441       67.341    17939.722     7999.741     4534.789        4.628        1.524      248.754       43.482        0.031      343.457       19.580      870.764
05/13/2014  11:45:00      194.609      137.931       17.015       96.638       85.330       58.677     9338.829     7281.154     3442.940        3.862        1.003      238.532       29.869        0.016      343.230       19.193      870.745
05/13/2014  11:46:00      224.865      166.671       21.439      107.557       95.525       55.700    11568.550     9124.959     3102.469        5.129        1.190      279.899       45.202        0.026      343.101       18.972      870.754
05/13/2014  11:47:00       95.252      116.199        7.871       74.258       86.631       45.547     5514.298     7504.871     2074.540        1.886        0.755      150.250       44.926        0.089      343.142       19.043      870.751
05/13/2014  11:48:00      163.077      221.685        7.704      180.039      129.093      108.370    32414.118    16665.119    11744.017        6.830        3.041      275.207       88.649        0.104      343.313       19.333      870.717
05/13/2014  11:49:00      119.400      212.616        4.527      163.672      153.146      100.291    26788.497    23453.717    10058.275        5.988        3.015      243.848       77.014        0.100      343.561       19.757      870.702
05/13/2014  11:50:00      291.030      198.389       55.006      154.004      103.638      132.688    23717.136    10740.927    17606.164        8.956        2.603      352.217       79.520        0.051      343.668       19.938      870.716
05/13/2014  11:51:00      292.572      221.014       28.568      181.692      113.610       83.886    33011.814    12907.291     7036.799        9.410        2.648      366.668       30.811        0.007      343.520       19.685      870.739
05/13/2014  11:52:00      336.280      141.530       53.548      123.971       94.685      103.843    15368.732     8965.282    10783.338        8.554        1.756      364.849       75.947        0.043      343.164       19.079      870.736
05/13/2014  11:53:00      163.598      105.741       65.693      158.693      121.256       84.690    25183.513    14703.086     7172.399        4.465        2.353      194.796       77.798        0.160      343.100       18.970      870.760
05/13/2014  11:54:00      121.452       48.125       67.177      115.157      104.836       70.486    13261.122    10990.493     4968.242        2.539        1.461      130.639       66.721        0.261      343.541       19.723      870.716
05/13/2014  11:55:00       22.992       80.165      117.344       61.222       75.858       58.656     3748.134     5754.500     3440.473        1.683        0.647       83.397       47.048        0.318      343.571       19.775      870.671
05/13/2014  11:56:00       96.659      101.256      140.250       84.207       86.143       70.402     7090.800     7420.626     4956.425        2.936        0.973      139.985       50.549        0.130      343.577       19.783      870.633
05/13/2014  11:57:00      159.318       61.969       69.039      125.309       84.964       74.880    15702.304     7218.902     5606.994        3.125        1.426      170.946       64.322        0.142      343.320       19.346      870.635
05/13/2014  11:58:00      115.740       88.303       51.812      100.172       74.933       61.887    10034.403     5615.012     3829.957        2.167        0.974      145.578       30.370        0.044      343.809       20.182      870.625
05/13/2014  11:59:00       78.718       -3.722       53.634       97.055       92.713       63.341     9419.673     8595.681     4012.128        1.555        1.101       78.806       54.909        0.485      343.841       20.236      870.616
05/13/2014  12:00:00      175.344     -230.784       10.155      123.046      176.537      107.347    15140.279    31165.400    11523.481        7.096        2.891      289.839      126.651        0.191      344.030       20.558      870.595
05/13/2014  12:01:00      163.662      -54.492       23.717      107.085      107.045       79.861    11467.274    11458.599     6377.719        2.980        1.465      172.495       75.563        0.192      343.929       20.384      870.617
05/13/2014  12:02:00      174.397     -241.868      -13.726       72.220      108.714       55.443     5215.776    11818.829     3073.927        5.460        1.005      298.185       54.194        0.033      343.508       19.664      870.617
05/13/2014  12:03:00       71.378     -170.194        3.290      104.572       83.200       57.979    10935.283     6922.244     3361.585        2.764        1.061      184.556       48.296        0.068      343.420       19.517      870.604
05/13/2014  12:04:00      130.690     -245.084        6.654       98.108      159.033       72.860     9625.242    25291.450     5308.623        5.870        2.011      277.751       81.234        0.086      343.689       19.975      870.571
05/13/2014  12:05:00      145.443      -51.172       58.362      127.222      155.231       96.102    16185.489    24096.582     9235.642        3.834        2.476      154.183      113.045        0.538      343.804       20.172      870.551
05/13/2014  12:06:00      173.709      -23.344       72.370      139.657      108.047       82.217    19503.966    11674.093     6759.638        3.694        1.897      175.270       80.879        0.213      343.882       20.304      870.527
05/13/2014  12:07:00       59.202        7.284       70.487       64.478      113.749       65.436     4157.372    12938.734     4281.909        1.495        1.069       59.649       67.883        1.295      343.595       19.816      870.554
05/13/2014  12:08:00      103.056       53.457       43.946      109.805       75.811       56.352    12057.226     5747.288     3175.569        1.819        1.049      116.096       33.006        0.081      343.363       19.420      870.516
05/13/2014  12:09:00      111.870       46.843       31.260       96.207       52.394       42.703     9255.788     2745.080     1823.534        1.475        0.691      121.281       44.322        0.134      343.582       19.794      870.475
05/13/2014  12:10:00      149.929      109.838       46.055       76.069       60.338       48.023     5786.537     3640.670     2306.241        2.420        0.587      185.858       41.915        0.051      343.348       19.395      870.463
05/13/2014  12:11:00      153.594     -181.022       -5.183      157.607      194.570       82.261    24839.875    37857.475     6766.801        6.291        3.473      237.403      105.807        0.199      343.752       20.083      870.464
05/13/2014  12:12:00      140.242     -129.780      -11.111      118.821      119.241       72.989    14118.435    14218.324     5327.381        3.514        1.683      191.077       81.947        0.184      343.727       20.040      870.468
05/13/2014  12:13:00      115.958      -83.924       29.921       97.241       73.820       67.664     9455.779     5449.444     4578.365        2.043        0.974      143.141       65.258        0.208      343.809       20.181      870.443
05/13/2014  12:14:00       71.824       26.593       93.934      123.367      104.753       81.212    15219.334    10973.283     6595.312        2.373        1.639       76.589       84.137        1.207      343.842       20.239      870.431
05/13/2014  12:15:00      118.107       29.416      101.957      118.113      126.353       80.026    13950.636    15965.164     6404.208        3.076        1.816      121.715       77.550        0.406      343.784       20.136      870.390
05/13/2014  12:16:00      132.328      -87.607       24.016      152.950      187.967       85.465    23393.632    35331.595     7304.271        4.588        3.301      158.700      104.246        0.431      343.470       19.603      870.395
05/13/2014  12:17:00      168.313     -232.525       -5.685      131.197      216.919      124.515    17212.768    47053.858    15504.061        8.108        3.989      287.049      146.632        0.261      343.515       19.676      870.379
05/13/2014  12:18:00      144.166     -156.839      -13.345       87.738      113.146       70.443     7697.920    12801.982     4962.221        3.551        1.273      213.031       55.884        0.069      343.837       20.226      870.358
05/13/2014  12:19:00       18.299       -0.877       55.632       59.344      130.473       87.236     3521.679    17023.129     7610.040        1.579        1.408       18.320      101.244       30.542      343.729       20.046      870.357
05/13/2014  12:20:00      117.585     -139.871       27.877      109.885      183.627       84.003    12074.771    33718.987     7056.539        4.350        2.643      182.730      109.415        0.359      344.116       20.704      870.329
05/13/2014  12:21:00      153.690     -155.702       19.325      156.290      217.099       97.808    24426.642    47131.819     9566.382        6.466        4.056      218.778      119.117        0.296      344.218       20.879      870.271
05/13/2014  12:22:00      239.251     -176.848       19.617      169.510      290.604      146.325    28733.771    84450.403    21411.063       11.172        6.730      297.517      184.119        0.383      343.920       20.368      870.258
05/13/2014  12:23:00       42.821       40.287      117.439      109.202      101.410       67.085    11925.147    10283.913     4500.374        2.197        1.335       58.794       58.156        0.978      344.145       20.754      870.306
05/13/2014  12:24:00       43.223       -6.338       55.826       66.004      107.937       60.372     4356.591    11650.458     3644.723        1.233        0.983       43.685       64.831        2.202      344.162       20.786      870.333
05/13/2014  12:25:00      -27.618      -49.456        1.653       31.752       66.227       37.988     1008.182     4385.971     1443.067        0.502        0.342       56.645       39.552        0.488      344.605       21.542      870.301
05/13/2014  12:26:00       43.513      -15.569       31.373       48.061       45.993       53.828     2309.841     2115.392     2897.476        0.522        0.366       46.214       50.682        1.203      343.844       20.242      870.301
05/13/2014  12:27:00       10.044      -55.320       34.119       35.714       49.030       39.240     1275.522     2403.915     1539.764        0.477        0.261       56.224       35.356        0.395      343.933       20.395      870.281
05/13/2014  12:28:00       33.900       47.694       56.364       51.048       41.729       35.171     2605.849     1741.347     1236.969        0.609        0.279       58.515       35.294        0.364      343.882       20.308      870.263
05/13/2014  12:29:00      148.885       91.898       28.378       66.797       50.664       46.515     4461.830     2566.841     2163.629        2.030        0.460      174.963       13.967        0.006      343.441       19.552      870.229
05/13/2014  12:30:00       53.160       35.006       -8.616       34.937       50.751       22.633     1220.591     2575.707      512.238        0.422        0.215       63.650       17.063        0.072      343.208       19.159      870.208
05/13/2014  12:31:00      -38.373        9.663       -5.219       44.246       49.267       24.082     1957.740     2427.276      579.950        0.328        0.248       39.571       22.536        0.324      343.807       20.178      870.179
05/13/2014  12:32:00       24.688      -95.508       -8.591       65.169       45.998       26.657     4246.940     2115.786      710.583        0.844        0.354       98.647       23.239        0.055      343.951       20.423      870.186
05/13/2014  12:33:00        9.135        2.850       38.840       34.849       38.322       28.081     1214.438     1468.609      788.567        0.254        0.174        9.570       20.549        4.611      344.537       21.427      870.182
05/13/2014  12:34:00      149.750      136.057      105.042      153.144      156.684      117.929    23453.045    24549.850    13907.342        5.693        3.096      202.328      118.082        0.341      343.983       20.478      870.163
05/13/2014  12:35:00       99.903      105.013      125.909      130.579      101.917       76.160    17050.807    10387.082     5800.287        3.504        1.662      144.943       65.342        0.203      343.848       20.248      870.165
05/13/2014  12:36:00       85.247     -227.275      -32.381      104.122       87.531       58.636    10841.305     7661.631     3438.179        4.095        1.097      242.737       40.938        0.028      343.631       19.875      870.186
05/13/2014  12:37:00      159.026     -232.720       -5.292      157.287      174.424       88.513    24739.207    30423.607     7834.497        7.122        3.150      281.865      103.749        0.135      343.955       20.428      870.147
05/13/2014  12:38:00      206.845     -247.158        0.503      121.010      151.755       94.463    14643.412    23029.476     8923.200        7.522        2.330      322.292       88.707        0.076      343.638       19.887      870.194
05/13/2014  12:39:00      132.623      -63.002       36.397       96.276       89.860       66.178     9268.990     8074.765     4379.557        2.230        1.086      146.827       61.253        0.174      343.890       20.319      870.209
05/13/2014  12:40:00       91.265       47.551       63.304       68.502       63.032       48.908     4692.551     3973.037     2391.963        1.283        0.553      102.910       31.176        0.092      343.676       19.953      870.201
05/13/2014  12:41:00      243.936       84.268       33.285      113.223       82.875       62.820    12819.391     6868.262     3946.357        4.567        1.182      258.081       51.208        0.039      343.664       19.931      870.182
05/13/2014  12:42:00      248.363      152.842       88.541      114.569      115.595       93.068    13126.143    13362.307     8661.644        6.401        1.758      291.625       65.949        0.051      343.588       19.802      870.134
05/13/2014  12:43:00      117.694       64.829       42.702      104.461       78.723       36.507    10912.063     6197.376     1332.775        1.916        0.922      134.368       32.985        0.060      343.746       20.073      870.107
05/13/2014  12:44:00      137.990      125.064       92.704      119.497      118.834      101.508    14279.617    14121.511    10303.921        4.098        1.935      186.232       90.093        0.234      344.158       20.777      870.084
05/13/2014  12:45:00      194.983      106.450      113.333      148.121      124.271       76.022    21939.739    15443.273     5779.288        5.267        2.158      222.149       75.629        0.116      344.116       20.704      870.086
05/13/2014  12:46:00      130.970       32.283      110.831      148.073      181.651      128.659    21925.611    32997.004    16553.042        5.096        3.574      134.890      127.129        0.888      344.401       21.192      870.107
05/13/2014  12:47:00      141.950      -94.283       36.926      143.550      197.025       90.959    20606.653    38818.655     8273.592        4.904        3.385      170.409       91.777        0.290      344.426       21.234      870.113
05/13/2014  12:48:00      146.728     -157.654       46.595      154.972      267.646      138.041    24016.265    71634.456    19055.444        8.161        5.735      215.369      187.978        0.762      343.918       20.365      870.132
05/13/2014  12:49:00      120.363       14.578      129.356      106.964      172.703      100.793    11441.390    29826.455    10159.318        4.142        2.571      121.242      116.274        0.920      344.245       20.924      870.136
05/13/2014  12:50:00      217.183      173.024      158.457      118.836      109.294      103.662    14122.040    11945.135    10745.745        6.951        1.841      277.679       74.595        0.072      343.833       20.218      870.144
05/13/2014  12:51:00      102.406     -124.659        9.965       99.292       99.154       67.672     9858.991     9831.515     4579.556        2.519        1.214      161.329       61.027        0.143      344.012       20.527      870.170
05/13/2014  12:52:00       50.236      -54.101       20.868       60.567       56.209       56.521     3668.372     3159.420     3194.567        0.795        0.501       73.828       30.866        0.175      344.097       20.673      870.184
05/13/2014  12:53:00       77.248      -50.998       20.941      102.303       76.756       47.366    10465.855     5891.413     2243.495        1.380        0.930       92.564       48.531        0.275      343.962       20.445      870.177
05/13/2014  12:54:00      111.611      107.347      106.741      124.368      108.674       88.151    15467.360    11809.940     7770.630        3.520        1.752      154.857       62.732        0.164      344.020       20.541      870.137
05/13/2014  12:55:00      121.504       74.845       94.610      121.923       88.069       78.256    14865.205     7756.169     6124.017        2.902        1.437      142.706       63.747        0.200      343.945       20.413      870.115
05/13/2014  12:56:00      104.979       67.601       78.978      129.966       96.729       82.991    16891.173     9356.403     6887.457        2.747        1.657      124.861       64.793        0.269      344.106       20.687      870.075
05/13/2014  12:57:00       36.030       65.530       97.511       84.653      110.034       62.349     7166.174    12107.516     3887.402        1.913        1.158       74.782       62.466        0.698      344.319       21.053      870.059
05/13/2014  12:58:00       46.275       92.768       80.253       82.064       52.171       56.607     6734.445     2721.787     3204.360        1.492        0.633      103.669       50.941        0.241      343.913       20.360      870.061
05/13/2014  12:59:00       82.274     -117.856       -6.434      105.085      128.883       53.284    11042.866    16610.781     2839.175        2.559        1.525      143.732       58.699        0.167      343.973       20.460      870.044
05/13/2014  13:00:00       30.699      -49.285        5.502       37.142       44.194       35.530     1379.546     1953.113     1262.407        0.400        0.230       58.064       20.502        0.125      344.127       20.725      870.056
05/13/2014  13:01:00       73.754      -98.156        8.933       58.830       88.248       49.412     3461.015     7787.719     2441.496        1.442        0.685      122.777       59.353        0.234      344.353       21.112      870.056
05/13/2014  13:02:00      138.352     -183.340      -15.325      110.204      120.787       57.664    12144.842    14589.612     3325.189        4.152        1.503      229.684       70.075        0.093      344.133       20.735      870.055
05/13/2014  13:03:00       77.398     -152.559       68.465      187.835      238.347      127.649    35282.015    56809.231    16294.354        7.115        5.419      171.069      164.833        0.928      344.385       21.163      870.034
05/13/2014  13:04:00      268.554     -320.715      -78.506      165.571      179.318       90.097    27413.881    32155.115     8117.461       12.440        3.384      418.305      101.809        0.059      343.798       20.161      870.059
05/13/2014  13:05:00      329.016     -362.260      -50.242      118.980      114.022       54.852    14156.144    13000.974     3008.704       13.608        1.508      489.371       62.530        0.016      343.545       19.728      870.063
05/13/2014  13:06:00      139.978     -141.130       23.714       95.462      140.086       65.165     9113.077    19624.174     4246.478        3.652        1.649      198.775       88.795        0.200      343.832       20.221      870.117
05/13/2014  13:07:00       56.769       -5.762       32.554       48.306       42.147       43.314     2333.421     1776.391     1876.110        0.515        0.299       57.061       29.670        0.270      343.849       20.250      870.102
05/13/2014  13:08:00       40.698      -23.267       23.839       51.677       34.256       28.831     2670.475     1173.483      831.201        0.372        0.234       46.879       23.859        0.259      344.118       20.709      870.087
05/13/2014  13:09:00       35.299      -19.660       36.303       63.642       77.779       62.423     4050.284     6049.602     3896.617        0.847        0.700       40.404       51.441        1.621      344.550       21.447      870.088
05/13/2014  13:10:00      105.124       16.454      114.544      118.387       97.632       80.211    14015.490     9532.065     6433.781        2.721        1.499      106.404       73.077        0.472      344.355       21.114      870.082
05/13/2014  13:11:00      112.412     -126.049       32.462      157.254      200.934       82.580    24728.752    40374.438     6819.410        5.074        3.596      168.893      104.593        0.384      344.389       21.172      870.061
05/13/2014  13:12:00      160.767     -226.668       -2.941       60.158       79.327       43.288     3618.974     6292.850     1873.808        4.451        0.589      277.893       36.013        0.017      343.795       20.155      870.104
05/13/2014  13:13:00       97.162     -185.815        1.098       68.345       87.115       49.405     4670.978     7588.995     2440.856        2.933        0.735      209.685       33.658        0.026      343.984       20.479      870.098
05/13/2014  13:14:00        2.395        6.135       27.291       64.871       47.773       41.712     4208.214     2282.252     1739.918        0.451        0.412        6.586       34.323       27.160      344.521       21.399      870.066
05/13/2014  13:15:00      117.328       22.167       59.343       81.827      109.666       58.159     6695.687    12026.669     3382.419        1.994        1.105      119.404       70.620        0.350      343.902       20.341      870.058
05/13/2014  13:16:00       60.823     -109.842       27.111      115.092      212.636       88.606    13246.076    45213.961     7851.083        4.139        3.316      125.558       84.562        0.454      344.084       20.650      870.009
05/13/2014  13:17:00      216.438      114.011      147.156      181.414      242.535      137.649    32911.049    58822.990    18947.192        9.607        5.534      244.630      128.361        0.275      344.162       20.782      869.950
05/13/2014  13:18:00      354.151      225.908       42.116      136.302      113.328       94.673    18578.101    12843.294     8963.057       10.930        2.019      420.068       54.765        0.017      344.037       20.568      869.988
05/13/2014  13:19:00      200.172      123.841       38.518      134.724      118.721       70.434    18150.492    14094.689     4960.937        4.704        1.860      235.384       48.731        0.043      344.320       21.053      869.977
05/13/2014  13:20:00      160.852      152.800      106.345      100.646       89.150       68.724    10129.653     7947.641     4723.023        4.166        1.140      221.859       47.078        0.045      344.474       21.315      869.951
05/13/2014  13:21:00      303.434      189.739       98.950      166.584      119.732       98.001    27750.287    14335.863     9604.290        9.477        2.585      357.873       94.081        0.069      344.287       20.995      869.937
05/13/2014  13:22:00      205.985      128.191       72.604      177.358       95.883       96.362    31456.007     9193.540     9285.706        5.702        2.497      242.616       88.958        0.134      344.044       20.580      869.928
05/13/2014  13:23:00      160.043       98.629       48.109      123.153       72.211       82.386    15166.701     5214.407     6787.394        3.241        1.358      187.993       43.680        0.054      344.334       21.079      869.903
05/13/2014  13:24:00      176.849      151.729      102.921      146.994      106.173      102.227    21607.158    11272.669    10450.460        5.410        2.167      233.018       88.021        0.143      344.461       21.292      869.872
05/13/2014  13:25:00      210.924      130.610       56.966      166.100      107.520       79.639    27589.265    11560.480     6342.412        5.513        2.275      248.089       59.762        0.058      344.113       20.698      869.855
05/13/2014  13:26:00      153.941      106.668       93.468      112.903       96.063       83.271    12747.117     9228.196     6934.059        3.635        1.445      187.286       55.200        0.087      344.202       20.851      869.839
05/13/2014  13:27:00      183.934      161.765      120.300      122.675       98.977      107.010    15049.248     9796.517    11451.041        5.538        1.815      244.948       83.980        0.118      343.996       20.499      869.834
05/13/2014  13:28:00       77.253      -56.056       32.827       68.989      114.230       53.547     4759.484    13048.523     2867.238        1.543        1.034       95.448       54.210        0.323      344.405       21.200      869.841
05/13/2014  13:29:00      150.112       89.835      103.167       94.518      111.801       69.750     8933.705    12499.512     4865.010        3.377        1.315      174.940       62.920        0.129      344.306       21.029      869.839
05/13/2014  13:30:00      155.630      110.097      123.937      146.955      128.564      108.968    21595.671    16528.685    11874.128        5.084        2.500      190.635       98.786        0.269      344.223       20.886      869.840
05/13/2014  13:31:00      186.266      -89.406       49.223      133.775      149.011       95.087    17895.683    22204.272     9041.616        4.712        2.457      206.612      115.249        0.311      344.280       20.985      869.836
05/13/2014  13:32:00       80.943      -93.591       23.532      112.236      138.641       67.126    12597.008    19221.437     4505.892        2.609        1.816      123.738       72.559        0.344      344.334       21.077      869.815
05/13/2014  13:33:00       64.480      -41.911        4.157       42.357       61.357       50.138     1794.155     3764.632     2513.829        0.700        0.404       76.904       33.657        0.192      344.405       21.200      869.783
05/13/2014  13:34:00       24.721       20.080       40.743       37.272       54.630       37.293     1389.235     2984.395     1390.743        0.422        0.288       31.848       15.557        0.239      344.415       21.218      869.770
05/13/2014  13:35:00      247.192      145.431       34.594       87.447       74.062       64.461     7646.952     5485.203     4155.222        5.037        0.864      286.800       34.901        0.015      344.263       20.954      869.756
05/13/2014  13:36:00      155.669       98.958       22.231       99.318       70.486       52.408     9864.004     4968.242     2746.550        2.605        0.879      184.461       14.809        0.006      344.251       20.935      869.731
05/13/2014  13:37:00      190.808      172.430      109.199      109.032       79.228       84.049    11888.037     6277.151     7064.251        5.164        1.261      257.177       64.648        0.063      344.605       21.538      869.703
05/13/2014  13:38:00      190.119      142.602       93.221      115.006       90.998      101.272    13226.398     8280.557    10256.114        4.846        1.588      237.656       79.701        0.112      344.379       21.153      869.715
05/13/2014  13:39:00      268.110      149.595       54.872      132.446      127.772       74.576    17541.954    16325.742     5561.601        6.834        1.971      307.020       45.744        0.022      344.606       21.540      869.704
05/13/2014  13:40:00      305.991      172.884       61.003      163.105      126.576       97.952    26603.143    16021.378     9594.692        8.972        2.611      351.453       55.728        0.025      344.593       21.519      869.660
05/13/2014  13:41:00      149.041      237.160      225.920      150.949      129.252      113.357    22785.527    16706.036    12849.890        9.091        2.617      280.104       96.919        0.120      343.837       20.225      869.696
05/13/2014  13:42:00      188.113      116.577       73.433      117.105      117.269       74.240    13713.630    13751.994     5511.524        4.367        1.649      221.307       62.933        0.081      344.091       20.660      869.726
05/13/2014  13:43:00      231.840       97.980       67.640      132.994       89.304       76.230    17687.371     7975.211     5811.031        4.969        1.574      251.693       66.297        0.069      344.156       20.771      869.717
05/13/2014  13:44:00       64.004       81.971       82.862      105.447       84.980       64.676    11119.056     7221.621     4182.994        2.010        1.126      103.999       66.651        0.411      344.343       21.092      869.733
05/13/2014  13:45:00       76.238       51.713       15.418       83.706       51.413       34.619     7006.762     2643.246     1198.442        0.978        0.542       92.123       22.304        0.059      344.195       20.841      869.733
05/13/2014  13:46:00       77.130       33.849       48.140       72.223       66.076       40.315     5216.219     4366.061     1625.278        1.031        0.560       84.230       32.420        0.148      343.932       20.393      869.705
05/13/2014  13:47:00       74.149       96.095       65.503       58.604       58.940       43.309     3434.487     3473.907     1875.662        1.390        0.439      121.377       29.440        0.059      344.267       20.964      869.684
05/13/2014  13:48:00      174.743      109.776       97.719      105.680      120.012      119.835    11168.238    14402.969    14360.468        4.603        1.997      206.363       97.747        0.224      344.484       21.334      869.697
05/13/2014  13:49:00      195.555      130.146       56.932       87.600       89.309       80.018     7673.713     7976.105     6402.868        4.023        1.103      234.904       50.240        0.046      344.292       21.003      869.705
05/13/2014  13:50:00       93.065       40.013       65.939       78.234       97.822       62.656     6120.483     9569.164     3925.835        1.711        0.981      101.302       65.404        0.417      344.451       21.277      869.682
05/13/2014  13:51:00       98.281     -170.983       -5.436       98.276      111.089       61.843     9658.125    12340.876     3824.498        3.237        1.291      197.216       65.868        0.112      344.500       21.362      869.654
05/13/2014  13:52:00      137.261       46.483       18.808      113.782      138.782       47.424    12946.425    19260.322     2249.011        2.790        1.723      144.918       27.015        0.035      344.499       21.360      869.665
05/13/2014  13:53:00      153.036      104.943       23.394      120.166       67.867       62.340    14439.947     4605.872     3886.312        2.895        1.147      185.561       39.475        0.045      344.564       21.470      869.644
05/13/2014  13:54:00      111.506       72.350       22.209       62.251       45.635       41.073     3875.130     2082.574     1687.008        1.290        0.382      132.921       22.636        0.029      344.079       20.644      869.629
05/13/2014  13:55:00      124.077      104.095       12.394      113.232      102.110       66.056    12821.381    10426.375     4363.339        2.699        1.381      161.959       60.176        0.138      344.568       21.477      869.602
05/13/2014  13:56:00      260.283      187.731       58.498      148.728       92.406      105.675    22120.035     8538.874    11167.248        7.411        2.091      320.920       82.501        0.066      344.667       21.644      869.555
05/13/2014  13:57:00      140.418       80.196       44.708       92.650       85.395       70.063     8583.941     7292.235     4908.799        2.446        1.039      161.705       30.486        0.036      344.847       21.953      869.575
05/13/2014  13:58:00      176.052      111.838       71.292      111.971       80.179       67.598    12537.592     6428.630     4569.486        3.606        1.177      208.572       57.339        0.076      345.086       22.363      869.574
05/13/2014  13:59:00      155.462       94.319       41.121       79.172       54.440       59.005     6268.222     2963.708     3481.568        2.373        0.636      181.836       28.827        0.025      344.897       22.038      869.564
05/13/2014  14:00:00      192.044       93.590       38.933      213.371      142.685       70.093    45527.138    20359.001     4913.047        5.896        3.540      213.635       63.756        0.089      345.181       22.525      869.554
05/13/2014  14:01:00      257.650      155.859       77.797      161.543      132.776      115.810    26096.209    17629.367    13412.061        7.692        2.857      301.123       49.989        0.028      344.367       21.132      869.534
05/13/2014  14:02:00      210.356      140.955       12.233      129.413       89.870       79.214    16747.745     8076.601     6274.871        4.768        1.555      253.215       59.470        0.055      344.427       21.235      869.536
05/13/2014  14:03:00      277.610      134.009       38.290      118.192      108.485       71.073    13969.404    11769.051     5051.415        6.363        1.539      308.262       53.071        0.030      344.613       21.552      869.545
05/13/2014  14:04:00      125.924       84.680       53.952       85.514       79.254       58.833     7312.588     6281.222     3461.303        2.149        0.853      151.748       45.917        0.092      344.346       21.096      869.548
05/13/2014  14:05:00      120.621      123.179       92.363       87.104       49.074       51.264     7587.178     2408.229     2628.018        2.544        0.631      172.402       23.195        0.018      344.281       20.987      869.536
05/13/2014  14:06:00       34.384       70.227       88.604       50.984       69.053       49.134     2599.350     4768.361     2414.165        1.187        0.489       78.193       39.622        0.257      344.397       21.187      869.530
05/13/2014  14:07:00      114.009       58.247       73.895      100.650       97.412       80.451    10130.415     9489.176     6472.437        2.397        1.305      128.026       73.903        0.333      344.593       21.520      869.519
05/13/2014  14:08:00      131.069       69.913       97.269       98.877      154.425       93.086     9776.587    23847.043     8664.941        3.690        2.114      148.550       98.641        0.441      344.945       22.124      869.488
05/13/2014  14:09:00       67.374       24.065       98.212       78.951      130.301       86.982     6233.298    16978.319     7565.872        2.276        1.539       71.543       95.738        1.791      345.006       22.227      869.483
05/13/2014  14:10:00       51.572       38.564      104.958       73.071      149.168       93.721     5339.367    22251.219     8783.688        2.576        1.819       64.396      105.847        2.702      344.930       22.094      869.483
05/13/2014  14:11:00      167.988       95.682      118.061      145.565      116.773       91.740    21189.235    13636.019     8416.260        4.727        2.162      193.326       77.769        0.162      344.495       21.353      869.478
05/13/2014  14:12:00       78.900       50.900       64.868       87.684      115.459       57.448     7688.531    13330.678     3300.258        1.867        1.216       93.894       63.039        0.451      344.771       21.826      869.481
05/13/2014  14:13:00       58.131       41.210       27.782       64.776       54.575       43.407     4195.927     2978.398     1884.164        0.745        0.453       71.257       31.855        0.200      344.929       22.096      869.462
05/13/2014  14:14:00       71.316       -1.227       18.156       56.689       50.641       35.104     3213.640     2564.548     1232.259        0.621        0.351       71.327       32.544        0.208      344.525       21.406      869.419
05/13/2014  14:15:00       92.341       85.278       19.517       72.723       50.106       39.922     5288.666     2510.566     1593.795        1.278        0.470      125.695       16.151        0.017      344.594       21.525      869.394
05/13/2014  14:16:00       73.411       42.111        8.339      104.411       83.711       53.006    10901.559     7007.484     2809.594        1.397        1.036       84.632       35.288        0.174      344.927       22.093      869.373
05/13/2014  14:17:00       49.234     -112.847        1.024       67.932      101.205       42.472     4614.751    10242.447     1803.900        1.591        0.833      123.120       50.757        0.170      344.772       21.828      869.393
05/13/2014  14:18:00       91.948       40.832      104.240       91.062      107.092       83.836     8292.268    11468.647     7028.456        2.388        1.339      100.606       78.167        0.604      344.990       22.200      869.363
05/13/2014  14:19:00       86.804      116.178      132.480      115.470      107.019       91.771    13333.287    11453.089     8421.874        3.589        1.660      145.025       88.247        0.370      344.989       22.198      869.355
05/13/2014  14:20:00       95.121     -118.000       24.206      105.730      151.904       65.986    11178.805    23074.807     4354.206        3.108        1.930      151.565       86.743        0.328      344.948       22.128      869.339
05/13/2014  14:21:00      206.871     -117.052       30.028      137.669      161.891       90.243    18952.730    26208.836     8143.754        5.534        2.665      237.690      117.872        0.246      344.661       21.635      869.320
05/13/2014  14:22:00       64.945     -140.844        6.894       90.013       88.547       63.112     8102.307     7840.585     3983.081        2.201        0.996      155.097       51.438        0.110      344.987       22.195      869.288
05/13/2014  14:23:00       15.847      -38.819       41.707       60.485       67.579       43.527     3658.393     4566.907     1894.607        0.681        0.506       41.928       40.282        0.923      345.713       23.440      869.263
05/13/2014  14:24:00      147.084      105.795       81.864      123.317       65.448       67.265    15207.085     4283.398     4524.572        3.177        1.201      181.181       65.661        0.131      345.267       22.673      869.262
05/13/2014  14:25:00      290.583      154.664       51.650      112.856      100.461       79.177    12736.544    10092.414     6269.027        7.006        1.455      329.180       50.524        0.024      344.858       21.972      869.251
05/13/2014  14:26:00      166.831       70.295       77.257      115.975       98.215       77.310    13450.214     9646.213     5976.856        3.390        1.454      181.035       65.345        0.130      345.268       22.677      869.233
05/13/2014  14:27:00       54.436      -14.991       67.018       56.490       88.494       50.851     3191.114     7831.257     2585.811        1.064        0.680       56.462       59.075        1.095      345.354       22.824      869.230
05/13/2014  14:28:00       69.820       64.054       58.717      123.534       78.619       75.196    15260.662     6180.986     5654.382        1.976        1.355       94.751       69.732        0.542      345.246       22.638      869.207
05/13/2014  14:29:00      265.487      174.940       16.575      121.598      102.517       74.943    14786.046    10509.775     5616.509        6.613        1.546      317.943       41.729        0.017      345.140       22.454      869.181
05/13/2014  14:30:00      214.341      157.610       33.381      165.236      120.890      112.926    27302.831    14614.280    12752.381        6.327        2.733      266.050       76.764        0.083      345.011       22.233      869.182
05/13/2014  14:31:00       58.333      338.182      -45.776       95.748      144.422       62.844     9167.689    20857.587     3949.392        7.691        1.699      343.176       75.600        0.049      344.729       21.753      869.156
05/13/2014  14:32:00       93.259      150.360       -9.259       89.707      106.721       57.667     8047.334    11389.374     3325.458        2.707        1.138      176.933       48.281        0.074      344.851       21.959      869.177
05/13/2014  14:33:00      202.772      138.682       30.951      103.973       86.316       88.493    10810.369     7450.519     7831.024        4.369        1.305      245.660       53.598        0.048      344.913       22.065      869.214
05/13/2014  14:34:00      272.661      227.952       24.183       98.311       97.352       71.879     9665.138     9477.331     5166.546        7.560        1.215      355.396       54.893        0.024      344.777       21.833      869.222
05/13/2014  14:35:00      123.683       99.891       66.350      112.045       71.677       81.920    12554.057     5137.533     6710.909        2.704        1.220      158.984       76.495        0.232      345.133       22.444      869.217
05/13/2014  14:36:00      214.923      113.455       42.789      106.070       65.789       70.283    11250.867     4328.194     4939.693        4.070        1.026      243.031       53.268        0.048      344.577       21.492      869.222
05/13/2014  14:37:00      118.159       79.341       81.143      101.254       72.581       72.846    10252.417     5267.959     5306.567        2.383        1.041      142.326       71.283        0.251      345.059       22.317      869.230
05/13/2014  14:38:00      112.974        0.367       49.042       81.845      128.537       71.675     6698.659    16521.778     5137.289        2.176        1.418      112.975       76.640        0.460      344.990       22.200      869.236
05/13/2014  14:39:00       72.024      136.407      126.062       98.409      128.114      107.945     9684.317    16413.201    11652.129        3.871        1.887      154.254      102.651        0.443      344.944       22.118      869.223
05/13/2014  14:40:00      118.707      146.798      169.604      125.096      106.550       88.935    15649.112    11352.966     7909.487        4.965        1.746      188.788       85.208        0.204      344.911       22.062      869.223
05/13/2014  14:41:00       90.326     -173.463       -3.125       81.618       83.833       58.496     6661.579     7027.953     3421.764        2.768        0.856      195.571       55.834        0.082      344.611       21.551      869.215
05/13/2014  14:42:00      125.489     -179.006      -13.883       93.548      110.072       54.782     8751.142    12115.861     3001.114        3.592        1.193      218.610       68.656        0.099      344.784       21.847      869.165
05/13/2014  14:43:00      153.520     -129.870       21.538      126.929      148.075       82.546    16111.053    21926.293     6813.787        4.287        2.243      201.084      109.616        0.297      344.880       22.012      869.150
05/13/2014  14:44:00      119.464       66.879       64.864       74.223       68.711       58.646     5509.095     4721.189     3439.343        1.831        0.683      136.911       44.715        0.107      345.197       22.555      869.186
05/13/2014  14:45:00      190.125      128.470      113.406      124.807      127.221       85.102    15576.739    16185.169     7242.430        5.225        1.950      229.461       70.877        0.095      345.371       22.850      869.163
05/13/2014  14:46:00      280.200      137.622      100.089      191.071       98.951       95.577    36507.949     9791.284     9134.999        8.144        2.772      312.173       96.183        0.095      345.218       22.589      869.160
05/13/2014  14:47:00      214.440      106.249      121.392      157.498      134.648      111.703    24805.595    18130.014    12477.454        6.370        2.771      239.319       94.458        0.156      345.099       22.383      869.175
05/13/2014  14:48:00       63.586      127.130      151.999       79.269      105.632       85.039     6283.537    11158.045     7231.667        3.399        1.234      142.145       82.656        0.338      345.163       22.497      869.206
05/13/2014  14:49:00       41.679       -6.914       44.114       46.941       44.249       34.279     2203.423     1957.934     1175.079        0.453        0.267       42.248       26.104        0.382      344.876       22.005      869.188
05/13/2014  14:50:00       68.638      -94.912       29.093       40.815       91.605       49.094     1665.881     8391.536     2410.237        1.351        0.623      117.130       57.787        0.243      345.230       22.612      869.148
05/13/2014  14:51:00      105.532     -126.926      -22.821       43.884       67.265       37.862     1925.808     4524.519     1433.534        1.782        0.394      165.067       39.185        0.056      344.793       21.864      869.124
05/13/2014  14:52:00      159.106       51.089       45.708       93.831       75.949       51.938     8804.164     5768.243     2697.532        2.364        0.863      167.107       45.961        0.076      345.124       22.428      869.132
05/13/2014  14:53:00       78.968       92.588       70.083       85.219       87.345       77.824     7262.361     7629.187     6056.597        2.033        1.047      121.690       67.861        0.311      345.332       22.787      869.119
05/13/2014  14:54:00       40.099       46.832       41.894       64.425       51.142       33.609     4150.540     2615.502     1129.597        0.672        0.395       61.654       21.184        0.118      345.646       23.325      869.101
05/13/2014  14:55:00      145.502       73.123       57.935      100.197      106.808       84.718    10039.481    11407.972     7177.055        2.924        1.431      162.843       67.136        0.170      345.501       23.074      869.102
05/13/2014  14:56:00       87.880       71.830      151.247      108.192      135.737       90.773    11705.534    18424.523     8239.713        3.706        1.918      113.501       96.594        0.724      345.253       22.648      869.068
05/13/2014  14:57:00      183.481      199.667      131.890      162.405      104.485      117.069    26375.340    10917.181    13705.119        7.095        2.550      271.168       99.072        0.133      345.348       22.810      869.067
05/13/2014  14:58:00      203.727      141.508        8.360      101.573       81.892       75.066    10317.165     6706.243     5634.838        4.212        1.133      248.050       46.403        0.035      344.954       22.136      869.087
05/13/2014  14:59:00      236.579      158.857       59.117      112.987       83.589       72.357    12766.123     6987.197     5235.573        5.484        1.249      284.965       61.846        0.047      345.042       22.287      869.065
05/13/2014  15:00:00      188.490      106.457       23.316      121.062       81.911       59.763    14656.071     6709.476     3571.673        3.617        1.247      216.475       34.602        0.026      345.244       22.634      869.060
05/13/2014  15:01:00       48.913      154.937      -12.139       79.792       85.683       49.432     6366.820     7341.590     2443.493        2.135        0.808      162.474       47.887        0.087      345.027       22.263      869.049
05/13/2014  15:02:00       75.002      108.123       -4.810       75.909       60.117       46.016     5762.140     3614.005     2117.458        1.441        0.575      131.589       31.265        0.056      345.301       22.733      869.033
05/13/2014  15:03:00       85.898       64.267       12.904       65.356       46.629       43.880     4271.459     2174.264     1925.498        1.002        0.419      107.278       16.591        0.024      345.262       22.666      869.024
05/13/2014  15:04:00      154.723       82.590       23.370       60.891       52.631       40.886     3707.666     2769.978     1671.639        1.973        0.407      175.386       27.372        0.024      345.148       22.470      869.006
05/13/2014  15:05:00      100.099       59.989       24.035       52.999       50.852       43.559     2808.905     2585.881     1897.425        1.074        0.365      116.698       20.334        0.030      345.273       22.685      868.992
05/13/2014  15:06:00       40.049       33.166       -6.379       32.450       37.515       19.322     1052.994     1407.411      373.351        0.279        0.142       51.999       18.839        0.131      344.950       22.133      868.982
05/13/2014  15:07:00       -4.797       29.777        6.233       23.303       30.771       19.107      543.041      946.843      365.060        0.140        0.093       30.160       17.580        0.340      345.544       23.151      868.968
05/13/2014  15:08:00      134.161      111.026       77.702       77.145       45.588       55.306     5951.316     2078.229     3058.718        2.372        0.554      174.144       41.116        0.056      345.356       22.824      868.977
05/13/2014  15:09:00      152.322       92.508       14.808       91.147       65.431       55.338     8307.795     4281.275     3062.287        2.381        0.783      178.212       40.281        0.051      345.659       23.346      868.970
05/13/2014  15:10:00      259.187      188.000       31.540      118.156       97.424       88.938    13960.950     9491.448     7909.885        6.743        1.568      320.191       41.640        0.017      345.151       22.472      868.956
05/13/2014  15:11:00      145.644       91.969       35.744       83.534       48.949       46.267     6977.951     2396.033     2140.627        2.123        0.576      172.252       43.087        0.063      345.117       22.418      868.939
05/13/2014  15:12:00       22.774      189.106        4.078       67.770      128.928       74.921     4592.752    16622.488     5613.205        3.156        1.341      190.473       85.486        0.201      345.195       22.550      868.915
05/13/2014  15:13:00        6.952      212.544      -22.940       49.079       75.062       29.394     2408.755     5634.366      864.036        2.733        0.445      212.658       33.764        0.025      344.999       22.214      868.924
05/13/2014  15:14:00       86.455      126.023        3.928       97.847       59.857       46.158     9574.047     3582.873     2130.573        1.933        0.764      152.828       39.064        0.065      345.256       22.655      868.919
05/13/2014  15:15:00      211.524      163.305       99.347      114.428       96.518      101.164    13093.699     9315.641    10234.070        5.696        1.632      267.228       76.989        0.083      345.394       22.890      868.944
05/13/2014  15:16:00      192.448      179.113      166.208      119.268      136.507      115.851    14224.960    18634.075    13421.355        7.150        2.314      262.902       93.517        0.127      345.058       22.315      868.946
05/13/2014  15:17:00      135.800       90.472       56.943       96.229       80.388       73.329     9260.039     6462.210     5377.168        2.548        1.055      163.177       56.348        0.119      345.402       22.905      868.922
05/13/2014  15:18:00      131.528       84.858       16.552       85.806       59.339       55.411     7362.667     3521.114     3070.394        1.936        0.698      156.526       26.785        0.029      345.369       22.849      868.917
05/13/2014  15:19:00       50.461      -29.223       36.304       48.669       72.793       40.740     2368.651     5298.806     1659.722        0.702        0.466       58.312       39.186        0.452      345.270       22.679      868.901
05/13/2014  15:20:00      144.567      -87.309      -13.212       81.370       68.288       51.363     6621.022     4663.235     2638.147        2.131        0.696      168.886       53.326        0.100      345.185       22.532      868.854
05/13/2014  15:21:00       71.414       -0.739       60.452       67.174      110.202       57.504     4512.347    12144.391     3306.668        1.436        0.998       71.418       68.428        0.918      345.529       23.124      868.834
05/13/2014  15:22:00       88.620       75.399      128.186      112.070      145.517      100.659    12559.706    21175.191    10132.164        3.691        2.193      116.355      112.927        0.942      345.622       23.281      868.818
05/13/2014  15:23:00      132.458       92.328       68.763       68.821       63.278       63.577     4736.393     4004.084     4042.068        2.179        0.639      161.461       38.667        0.057      345.074       22.342      868.816
05/13/2014  15:24:00       57.082       35.220       45.721       62.383       58.605       42.852     3891.668     3434.564     1836.329        0.787        0.458       67.073       36.759        0.300      345.609       23.262      868.764
05/13/2014  15:25:00       66.632      -53.589       44.280       84.020       96.545       54.163     7059.399     9320.866     2933.642        1.429        0.966       85.508       46.718        0.299      345.905       23.769      868.737
05/13/2014  15:26:00      107.412       12.278       30.331       68.702       98.219       68.184     4720.006     9646.926     4649.109        1.581        0.951      108.112       41.241        0.146      345.752       23.505      868.725
05/13/2014  15:27:00      219.722       56.708       19.304      154.184      115.476       90.929    23772.782    13334.617     8268.044        4.861        2.269      226.922       72.672        0.103      345.654       23.337      868.715
05/13/2014  15:28:00      379.923      223.649       64.993      146.606      117.132       87.531    21493.232    13720.005     7661.681       12.072        2.144      440.863       54.042        0.015      345.228       22.606      868.706
05/13/2014  15:29:00      258.244      144.429       68.848      139.648      107.788       91.551    19501.427    11618.204     8381.499        6.589        1.975      295.888       56.130        0.036      345.348       22.811      868.696
05/13/2014  15:30:00      280.972      187.034       28.450      142.371      108.770       77.861    20269.564    11830.962     6062.411        7.644        1.908      337.530       30.322        0.008      345.363       22.837      868.708
05/13/2014  15:31:00      311.515      214.286       36.693      137.698      104.402       79.796    18960.819    10899.693     6367.459        9.026        1.811      378.100       47.611        0.016      345.065       22.326      868.703
05/13/2014  15:32:00      285.422      165.854       43.707      101.156       71.668       66.286    10232.460     5136.231     4393.876        6.532        0.988      330.111       21.425        0.004      345.176       22.514      868.712
05/13/2014  15:33:00      157.074       80.560       54.684      126.820       62.815       62.108    16083.281     3945.755     3857.429        2.901        1.194      176.528       46.900        0.071      345.292       22.717      868.714
05/13/2014  15:34:00      133.898      146.042      127.300      108.062      108.362       96.564    11677.369    11742.395     9324.679        4.410        1.637      198.133       80.680        0.166      345.191       22.541      868.703
05/13/2014  15:35:00       90.823       92.293       79.887       84.318       66.439       66.355     7109.498     4414.117     4403.021        1.953        0.796      129.487       58.661        0.205      345.369       22.849      868.713
05/13/2014  15:36:00      185.164       90.286       48.613      111.204       92.554       79.908    12366.228     8566.203     6385.262        3.605        1.366      206.003       53.723        0.068      345.445       22.976      868.702
05/13/2014  15:37:00      133.547       59.708       43.000      109.786       75.337       67.884    12052.946     5675.593     4608.279        2.279        1.117      146.287       59.749        0.167      345.530       23.123      868.702
05/13/2014  15:38:00       96.037      105.169       80.638       97.813       81.826       71.115     9567.315     6695.500     5057.273        2.405        1.066      142.421       49.221        0.119      345.837       23.650      868.685
05/13/2014  15:39:00      145.628       67.784       33.595       86.873       64.315       65.249     7546.897     4136.359     4257.437        2.143        0.797      160.630       40.375        0.063      345.566       23.185      868.716
05/13/2014  15:40:00      109.847       75.268      116.778       86.872       99.186       73.202     7546.729     9837.959     5358.499        2.705        1.137      133.160       69.589        0.273      345.416       22.930      868.723
05/13/2014  15:41:00      149.987        6.250       56.608      127.121      103.090       77.475    16159.675    10627.633     6002.406        2.926        1.639      150.117       51.933        0.120      345.150       22.473      868.727
05/13/2014  15:42:00       78.819      -21.085       29.425       69.745       88.712       52.154     4864.324     7869.879     2720.059        1.149        0.773       81.591       54.091        0.440      345.395       22.896      868.725
05/13/2014  15:43:00       46.112      -41.191       23.650       41.406       75.412       41.988     1714.465     5686.950     1762.983        0.677        0.458       61.830       44.089        0.508      345.495       23.067      868.721
05/13/2014  15:44:00        1.362      -58.337      -22.385       20.806       47.960       12.002      432.901     2300.182      144.057        0.339        0.144       58.353        8.492        0.021      345.009       22.234      868.712
05/13/2014  15:45:00      -42.917       22.318      -28.294       32.711       64.266       20.368     1070.004     4130.068      414.850        0.438        0.281       48.373       11.411        0.056      344.950       22.134      868.691
05/13/2014  15:46:00      -93.112       87.848      -42.171       31.470       24.354       18.806      990.351      593.100      353.672        1.005        0.097      128.012       11.194        0.008      344.919       22.080      868.675
05/13/2014  15:47:00      -61.634       24.910      -22.339       16.399       28.015       19.778      268.927      784.812      391.171        0.318        0.072       66.477       14.604        0.048      345.127       22.436      868.665
05/13/2014  15:48:00      -17.518       11.734      -18.064       42.381       18.045       12.953     1796.131      325.616      167.769        0.153        0.114       21.085       18.211        0.746      345.119       22.421      868.652
05/13/2014  15:49:00       -6.061        7.033       -0.502       33.552       20.888       22.729     1125.707      436.316      516.601        0.108        0.104        9.284        5.216        0.316      345.411       22.922      868.638
05/13/2014  15:50:00       -5.580       22.727       21.721       40.908       29.760       20.738     1673.428      885.629      430.069        0.200        0.149       23.402        8.737        0.139      345.637       23.310      868.629
05/13/2014  15:51:00       30.911       73.293      -11.325       42.147       66.663       31.438     1776.405     4443.997      988.354        0.683        0.360       79.544       34.553        0.189      345.399       22.903      868.616
05/13/2014  15:52:00       -5.254       38.233        5.360       48.561       64.849       28.715     2358.194     4205.413      824.554        0.445        0.369       38.593       32.838        0.724      345.605       23.256      868.606
05/13/2014  15:53:00       58.036      173.094       -4.992      122.270       84.937       63.380    14949.903     7214.230     4017.052        2.976        1.309      182.564       43.715        0.057      345.687       23.393      868.607
05/13/2014  15:54:00      111.495       84.723        9.419       86.503       72.420       57.555     7482.846     5244.656     3312.586        1.787        0.802      140.033       45.974        0.108      345.609       23.261      868.607
05/13/2014  15:55:00      144.347      123.804       20.410      111.847       69.648       50.310    12509.669     4850.878     2531.134        2.823        0.995      190.167       26.344        0.019      345.835       23.648      868.601
05/13/2014  15:56:00       -0.030       39.901       47.245       44.478       51.888       46.441     1978.323     2692.357     2156.742        0.532        0.341       39.901       24.129        0.366      346.031       23.986      868.586
05/13/2014  15:57:00        2.914       31.058       46.761       37.612       49.078       27.889     1414.699     2408.632      777.823        0.388        0.230       31.194       22.321        0.512      346.276       24.408      868.578
05/13/2014  15:58:00        1.723       22.533       35.343       22.669       33.890       22.860      513.904     1148.556      522.600        0.197        0.109       22.598       14.830        0.431      346.291       24.434      868.563
05/13/2014  15:59:00        7.675      122.135      -19.948       32.001       34.532       24.183     1024.074     1192.454      584.823        0.909        0.140      122.376       16.061        0.017      345.600       23.246      868.544
05/13/2014  16:00:00      -58.138       58.369       -6.135       40.400       47.487       31.513     1632.197     2255.039      993.079        0.585        0.244       82.383       25.688        0.097      345.685       23.392      868.542
05/13/2014  16:01:00        9.513       11.413       27.548       38.573       14.604       20.781     1487.912      213.262      431.849        0.156        0.107       14.858       15.349        1.067      345.829       23.640      868.541
05/13/2014  16:02:00       88.361       75.563       -1.852       87.359       35.558       31.424     7631.682     1264.407      987.484        1.170        0.494      116.265       34.237        0.087      345.444       22.978      868.532
05/13/2014  16:03:00      186.120      142.099       27.304       91.617       86.406       66.448     8393.635     7465.993     4415.288        3.792        1.014      234.164       40.274        0.030      345.389       22.880      868.518
05/13/2014  16:04:00       78.439      113.472       25.124       49.818       50.197       67.673     2481.853     2519.722     4579.637        1.462        0.479      137.944       15.909        0.013      345.481       23.041      868.517
05/13/2014  16:05:00        1.426      171.521      -19.925       44.055       98.372       28.081     1940.879     9677.111      788.522        2.111        0.620      171.527       33.759        0.039      345.251       22.648      868.534
05/13/2014  16:06:00      -67.409       13.375       -7.346       83.325       28.608       22.574     6943.064      818.400      509.564        0.652        0.414       68.723       15.057        0.048      345.659       23.349      868.521
05/13/2014  16:07:00     -168.360        6.179      -19.809       59.139       42.545       24.338     3497.395     1810.114      592.325        1.734        0.295      168.474       20.985        0.016      345.480       23.040      868.515
05/13/2014  16:08:00     -141.056       40.853      -15.978       57.834       82.396       34.048     3344.824     6789.101     1159.287        1.655        0.565      146.853       25.482        0.030      345.814       23.613      868.491
05/13/2014  16:09:00      -87.140       -4.276        2.804       85.841       63.505       35.582     7368.674     4032.877     1266.065        1.014        0.633       87.245       43.973        0.254      345.744       23.493      868.474
05/13/2014  16:10:00       -5.674       20.451       19.044       52.390       47.017       29.854     2744.677     2210.576      891.251        0.333        0.292       21.224       26.465        1.555      345.726       23.462      868.491
05/13/2014  16:11:00        8.689      114.740      -16.561       64.270       39.429       39.447     4130.664     1554.647     1556.034        1.038        0.362      115.068       26.015        0.051      345.579       23.210      868.493
05/13/2014  16:12:00       56.063       38.385       30.445       63.027       48.455       63.409     3972.465     2347.923     4020.746        0.794        0.517       67.944       43.568        0.411      345.627       23.293      868.480
05/13/2014  16:13:00       47.906       28.007       56.581       70.837       43.151       38.394     5017.822     1862.001     1474.135        0.732        0.418       55.492       42.967        0.600      345.778       23.551      868.476
05/13/2014  16:14:00      111.803       39.159       36.963       68.375       45.940       48.106     4675.112     2110.480     2314.169        1.225        0.455      118.463       35.043        0.088      345.626       23.289      868.450
05/13/2014  16:15:00      143.607      115.916       45.795       90.160       72.651       67.397     8128.890     5278.238     4542.294        2.705        0.897      184.552       45.221        0.060      345.754       23.507      868.421
05/13/2014  16:16:00       72.164       88.318      107.017       91.691       73.583       56.021     8407.262     5414.519     3138.380        2.071        0.848      114.051       40.503        0.126      345.897       23.755      868.405
05/13/2014  16:17:00       86.958      -19.370       51.652      105.993      118.524       59.909    11234.574    14048.008     3589.060        1.973        1.444       89.089       75.015        0.709      345.814       23.613      868.417
05/13/2014  16:18:00       36.220      -54.755       28.296       47.252       77.823       41.510     2232.789     6056.481     1723.068        0.756        0.501       65.650       51.374        0.612      345.720       23.452      868.419
05/13/2014  16:19:00       28.972      -72.825      -16.452       32.367       41.805       40.166     1047.637     1747.663     1613.322        0.541        0.220       78.376       31.410        0.161      345.818       23.621      868.422
05/13/2014  16:20:00       58.021       81.330       83.785       54.679       75.211       65.071     2989.830     5656.652     4234.294        1.494        0.644       99.906       55.732        0.311      345.750       23.503      868.409
05/13/2014  16:21:00        7.276        8.595       49.224       43.911       73.882       55.311     1928.193     5458.527     3059.355        0.650        0.522       11.261       55.736       24.497      346.155       24.200      868.406
05/13/2014  16:22:00       26.599       65.435       73.736       55.541       62.017       57.932     3084.824     3846.055     3356.086        1.035        0.514       70.635       49.113        0.483      346.126       24.149      868.407
05/13/2014  16:23:00       48.521       48.204       -2.970       54.976       54.138       32.493     3022.404     2930.937     1055.778        0.585        0.350       68.395       25.376        0.138      345.573       23.201      868.411
05/13/2014  16:24:00      117.645     -144.994      -11.260       87.317      118.914       66.232     7624.215    14140.547     4386.630        3.057        1.308      186.718       60.176        0.104      345.698       23.413      868.392
05/13/2014  16:25:00       80.520       64.634       56.740       76.706      119.863       64.387     5883.768    14367.114     4145.680        1.913        1.220      103.252       69.795        0.457      345.687       23.394      868.406
05/13/2014  16:26:00      116.922       62.244       93.798      103.036      109.453       64.978    10616.345    11979.934     4222.151        2.658        1.341      132.458       72.281        0.298      345.575       23.202      868.404
05/13/2014  16:27:00      194.308       95.117       72.858      116.637       98.291       79.245    13604.300     9661.210     6279.831        4.082        1.477      216.340       53.375        0.061      345.799       23.584      868.388
05/13/2014  16:28:00      186.918      197.889      130.406      124.470      108.362       85.811    15492.761    11742.294     7363.591        6.284        1.730      272.211       77.108        0.080      345.913       23.778      868.390
05/13/2014  16:29:00      233.318       95.519       48.680      113.477       92.764       73.237    12877.097     8605.074     5363.688        4.638        1.342      252.114       40.979        0.026      345.703       23.420      868.404
05/13/2014  16:30:00      215.648      110.810       70.667      136.681       76.583       75.752    18681.682     5865.011     5738.351        4.702        1.514      242.452       75.149        0.096      345.731       23.468      868.404
05/13/2014  16:31:00       92.042       82.352      122.338      110.706      108.393       65.557    12255.924    11748.975     4297.737        2.926        1.415      123.505       60.537        0.240      345.895       23.752      868.398
05/13/2014  16:32:00      195.134      132.747      120.257      104.069      116.619       84.252    10830.375    13599.937     7098.460        5.084        1.576      236.006       73.791        0.098      345.567       23.185      868.388
05/13/2014  16:33:00      156.874      114.344       86.438      123.341       87.665       85.020    15213.052     7685.141     7228.446        3.764        1.506      194.124       68.171        0.123      345.882       23.728      868.362
05/13/2014  16:34:00       44.165       38.832       45.332       47.923       47.288       39.920     2296.575     2236.155     1593.580        0.582        0.306       58.808       15.556        0.070      345.961       23.866      868.367
05/13/2014  16:35:00       28.434      116.605      -26.957       54.840       58.248       24.997     3007.444     3392.850      624.837        1.108        0.351      120.021       25.518        0.045      345.443       22.976      868.337
05/13/2014  16:36:00       57.584       25.589       -1.465       45.537       68.771       33.986     2073.589     4729.466     1155.032        0.596        0.398       63.014       32.354        0.264      345.511       23.094      868.335
05/13/2014  16:37:00      141.341       79.193       29.433       69.155       84.180       56.106     4782.444     7086.277     3147.927        2.106        0.751      162.014       51.047        0.099      345.623       23.283      868.316
05/13/2014  16:38:00      108.403       97.991       68.109      123.881       98.117       63.036    15346.489     9626.924     3973.585        2.746        1.447      146.128       57.205        0.153      345.869       23.705      868.280
05/13/2014  16:39:00      131.184       23.721       59.316      102.594       98.957       43.091    10525.576     9792.583     1856.855        2.173        1.109      133.311       34.957        0.069      346.089       24.085      868.283
05/13/2014  16:40:00       91.555       71.779       15.225       90.057       71.141       45.808     8110.335     5060.986     2098.385        1.451        0.763      116.338       36.004        0.096      346.189       24.257      868.315
05/13/2014  16:41:00      195.920      162.628       26.163      117.376       82.560       73.464    13777.116     6816.104     5396.946        4.575        1.300      254.622       40.660        0.025      345.731       23.470      868.324
05/13/2014  16:42:00      165.809       99.270        5.593       82.347       65.346       45.473     6781.001     4270.136     2067.832        2.525        0.656      193.254       25.123        0.017      345.781       23.555      868.307
05/13/2014  16:43:00      160.386      126.092       12.996       69.915       69.907       52.904     4888.071     4886.948     2798.842        2.718        0.629      204.017       29.384        0.021      345.776       23.545      868.300
05/13/2014  16:44:00      151.267       77.725       40.748      146.206       87.950       63.408    21376.148     7735.205     4020.622        3.185        1.657      170.067       41.019        0.058      345.919       23.791      868.308
05/13/2014  16:45:00      202.851       76.802       64.892      139.158      130.011       89.820    19365.053    16902.733     8067.711        4.779        2.217      216.904       67.664        0.097      345.935       23.818      868.284
05/13/2014  16:46:00      170.676      109.735       83.255      135.396      120.792       93.707    18331.949    14590.821     8781.094        4.490        2.085      202.909       77.717        0.147      346.034       23.990      868.287
05/13/2014  16:47:00      225.584      123.578       73.614      143.682       95.328       92.815    20644.379     9087.491     8614.690        5.495        1.917      257.215       68.564        0.071      345.749       23.499      868.291
05/13/2014  16:48:00      179.590      114.434       68.399       84.237       66.941       56.979     7095.926     4481.036     3246.661        3.242        0.741      212.950       35.461        0.028      345.700       23.414      868.291
05/13/2014  16:49:00       98.218      163.970      150.514       88.454       96.053       94.347     7824.079     9226.197     8901.435        4.256        1.298      191.136       89.076        0.217      345.795       23.578      868.287
05/13/2014  16:50:00      123.577      167.048      152.571       87.647       79.035       68.185     7682.078     6246.486     4649.257        4.251        0.929      207.789       57.691        0.077      345.561       23.174      868.295
05/13/2014  16:51:00       67.978       69.045       97.044       81.896       66.039       43.960     6706.876     4361.154     1932.482        1.590        0.650       96.893       37.321        0.148      345.946       23.839      868.301
05/13/2014  16:52:00      141.772       50.067       62.372       73.857       77.882       58.902     5454.863     6065.566     3469.400        2.074        0.749      150.352       53.667        0.127      345.566       23.186      868.308
05/13/2014  16:53:00      107.327       73.157       70.649       75.747       62.484       47.291     5737.607     3904.256     2236.474        1.687        0.594      129.889       31.183        0.058      345.743       23.490      868.305
05/13/2014  16:54:00       61.894       80.516       72.752       82.760       67.040       56.281     6849.204     4494.300     3167.545        1.506        0.726      101.556       50.931        0.252      345.896       23.754      868.305
05/13/2014  16:55:00       93.136       25.474       19.191       76.324       65.053       53.841     5825.429     4231.891     2898.886        1.132        0.648       96.556       35.266        0.133      345.956       23.856      868.307
05/13/2014  16:56:00      154.986       67.140       20.541       76.157       58.779       45.382     5799.920     3454.987     2059.490        2.013        0.566      168.904       35.485        0.044      345.942       23.832      868.303
05/13/2014  16:57:00      101.048       66.631       10.575       83.785       55.876       41.235     7020.005     3122.144     1700.325        1.330        0.592      121.039       14.652        0.015      345.917       23.790      868.298
05/13/2014  16:58:00       83.612      165.990      -18.668       59.506       97.242       47.817     3540.942     9456.060     2286.477        2.508        0.764      185.859       52.483        0.080      345.706       23.426      868.299
05/13/2014  16:59:00      133.176      107.502       15.377      119.683       73.378       67.259    14323.940     5384.286     4523.735        2.688        1.212      171.151       46.919        0.075      345.817       23.618      868.307
05/13/2014  17:00:00      155.283      141.555       75.774       94.039       96.033       80.563     8843.410     9222.300     6490.373        3.722        1.228      210.121       49.611        0.056      345.538       23.138      868.298
05/13/2014  17:01:00      154.145       99.358       24.516      100.480       58.395       45.548    10096.293     3409.965     2074.592        2.490        0.779      183.392       24.889        0.018      345.602       23.248      868.303
05/13/2014  17:02:00      -10.368       86.781      -20.264       54.766       47.006       36.469     2999.269     2209.549     1329.996        0.729        0.327       87.398       30.411        0.121      345.441       22.974      868.267
05/13/2014  17:03:00      180.014       94.383       38.721      109.335      109.873       65.320    11954.067    12072.100     4266.689        3.555        1.415      203.256       40.680        0.040      345.782       23.556      868.237
05/13/2014  17:04:00      180.966      145.285       71.326       87.912       92.111       65.570     7728.449     8484.437     4299.448        3.972        1.026      232.070       42.864        0.034      346.147       24.180      868.221
05/13/2014  17:05:00      150.585       43.386       49.696      111.729       82.501       76.126    12483.308     6806.417     5795.234        2.605        1.254      156.711       63.322        0.163      346.152       24.191      868.235
05/13/2014  17:06:00       98.367       38.981       14.291       99.872       74.710       51.873     9974.343     5581.625     2690.828        1.482        0.912      105.809       40.354        0.145      346.175       24.232      868.237
05/13/2014  17:07:00      174.126       61.228       71.831      112.935       68.102       72.202    12754.382     4637.851     5213.124        3.091        1.130      184.577       48.398        0.069      346.076       24.060      868.240
05/13/2014  17:08:00       75.976       95.527      126.269      123.099       85.352       77.249    15153.322     7285.026     5967.378        2.962        1.420      122.057       62.108        0.259      346.009       23.945      868.239
05/13/2014  17:09:00      122.935       71.893       63.316      113.845       66.664       67.711    12960.746     4444.056     4584.798        2.314        1.099      142.414       61.846        0.189      345.971       23.880      868.284
05/13/2014  17:10:00      147.925       33.936       25.643      109.738       71.772       56.348    12042.348     5151.162     3175.057        2.203        1.018      151.768       35.844        0.056      345.573       23.198      868.299
05/13/2014  17:11:00      115.930       63.833       39.825       52.112       62.882       51.652     2715.649     3954.197     2667.925        1.422        0.467      132.342       38.817        0.086      345.533       23.130      868.293
05/13/2014  17:12:00      127.636       64.215       20.266       55.084       56.902       45.224     3034.276     3237.856     2045.237        1.457        0.416      142.879       13.548        0.009      345.541       23.143      868.279
05/13/2014  17:13:00      168.560      126.567       28.116       85.058       87.029       59.900     7234.940     7574.097     3588.010        3.181        0.920      210.788       34.898        0.027      345.793       23.575      868.268
05/13/2014  17:14:00      273.929      169.513       37.060      127.043       87.241       84.523    16139.981     7610.911     7144.118        6.801        1.545      322.136       53.877        0.028      345.826       23.630      868.258
05/13/2014  17:15:00      139.528       86.029       98.636      113.255       82.531       80.804    12826.786     6811.431     6529.248        3.138        1.308      163.918       63.956        0.152      345.868       23.703      868.264
05/13/2014  17:16:00       69.187       46.705       66.278       78.094       67.810       57.251     6098.686     4598.182     3277.665        1.266        0.699       83.476       55.018        0.434      345.879       23.726      868.259
05/13/2014  17:17:00      164.841       71.643       87.802      121.411       92.632       83.815    14740.525     8580.620     7024.981        3.517        1.517      179.737       68.594        0.146      345.768       23.533      868.239
05/13/2014  17:18:00      144.023      123.017      109.974      112.487       89.805       90.070    12653.258     8064.894     8112.659        3.839        1.442      189.409       87.291        0.212      345.783       23.558      868.223
05/13/2014  17:19:00      195.760     -159.126       15.932      113.647      101.974       69.694    12915.584    10398.764     4857.249        4.603        1.409      252.276       74.650        0.088      345.786       23.562      868.191
05/13/2014  17:20:00       50.130        2.146       28.296       65.973       73.786       38.463     4352.394     5444.322     1479.417        0.729        0.564       50.176       27.619        0.303      345.988       23.910      868.188
05/13/2014  17:21:00      200.828      135.528       12.558       90.251       66.241       55.003     8145.219     4387.929     3025.381        3.720        0.778      242.280       39.729        0.027      345.816       23.614      868.222
05/13/2014  17:22:00       63.158      165.723        0.967       83.281      132.648       65.948     6935.806    17595.605     4349.144        3.016        1.444      177.350       76.270        0.185      345.783       23.559      868.213
05/13/2014  17:23:00      187.840      160.854       18.940       98.529       87.564       77.660     9707.950     7667.489     6031.066        4.246        1.170      247.301       48.703        0.039      345.642       23.314      868.205
05/13/2014  17:24:00      189.058      128.893       35.080      101.203       61.612       53.617    10242.087     3795.984     2874.803        3.525        0.846      228.815       35.546        0.024      345.606       23.252      868.197
05/13/2014  17:25:00       73.864      113.315       15.268       70.441      109.723       68.183     4961.868    12039.216     4648.879        2.009        1.082      135.264       65.415        0.234      345.758       23.517      868.195
05/13/2014  17:26:00       63.431      215.546      -11.627      100.730      122.239       60.003    10146.589    14942.346     3600.306        3.965        1.434      224.686       63.611        0.080      345.694       23.406      868.182
05/13/2014  17:27:00      159.280      120.834       17.944       73.946       51.331       44.646     5468.014     2634.823     1993.305        2.519        0.505      199.928       18.737        0.009      345.621       23.279      868.189
05/13/2014  17:28:00       68.092       86.564       -5.538       53.842       59.214       37.007     2898.989     3506.339     1369.539        0.997        0.389      110.136       33.613        0.093      345.781       23.557      868.172
05/13/2014  17:29:00      101.583       89.317      -10.670       67.369       66.780       35.170     4538.587     4459.560     1236.932        1.432        0.512      135.265       32.147        0.056      345.754       23.509      868.165
05/13/2014  17:30:00       36.337      120.314      -13.318       40.969       60.091       38.648     1678.459     3610.915     1493.695        1.138        0.339      125.682       34.138        0.074      345.587       23.223      868.153
05/13/2014  17:31:00      -21.375      108.823      -18.024       50.267       62.677       38.936     2526.818     3928.421     1515.975        1.030        0.399      110.903       45.200        0.166      345.666       23.358      868.141
05/13/2014  17:32:00       12.578      129.631      -20.300       29.727       39.514       18.428      883.673     1561.380      339.589        1.008        0.139      130.239       22.142        0.029      345.613       23.268      868.140
05/13/2014  17:33:00       33.784       94.992       13.711       69.353       73.178       54.517     4809.881     5354.969     2972.135        1.174        0.657      100.821       39.880        0.156      345.771       23.539      868.125
05/13/2014  17:34:00      250.918      177.234       20.355      145.232       96.372       76.576    21092.439     9287.563     5863.846        6.551        1.812      307.199       43.675        0.020      345.566       23.185      868.116
05/13/2014  17:35:00      204.242      148.845       20.242      118.706       87.148       68.832    14091.110     7594.733     4737.792        4.535        1.321      252.724       46.550        0.034      345.553       23.163      868.115
05/13/2014  17:36:00       28.794      175.087      -13.488       69.399       94.927       38.289     4816.179     9011.062     1466.083        2.348        0.765      177.439       49.737        0.079      345.597       23.239      868.112
05/13/2014  17:37:00       14.898      115.061        5.866       62.392       88.092       47.844     3892.819     7760.129     2289.068        1.372        0.697      116.022       49.356        0.181      345.652       23.333      868.110
05/13/2014  17:38:00       13.558      292.031      -44.355       58.149      127.018       35.637     3381.257    16133.626     1270.014        5.411        1.039      292.346       42.709        0.021      345.637       23.307      868.099
05/13/2014  17:39:00       58.307       90.915       13.581       76.975       86.040       57.965     5925.186     7402.872     3359.917        1.427        0.834      108.005       53.207        0.243      345.766       23.530      868.095
05/13/2014  17:40:00       24.978       70.507       -1.279       46.244       78.974       35.625     2138.480     6236.924     1269.162        0.762        0.482       74.800       35.639        0.227      345.880       23.727      868.093
05/13/2014  17:41:00      -22.603      131.778      -20.000       41.972       71.556       30.384     1761.671     5120.215      923.194        1.304        0.390      133.702       32.847        0.060      345.829       23.639      868.079
05/13/2014  17:42:00       13.847      238.552      -44.118       42.737       36.702       22.682     1826.486     1347.009      514.489        3.137        0.184      238.953       19.077        0.006      345.522       23.108      868.079
05/13/2014  17:43:00       97.798      113.852      -19.781       61.917       86.046       37.366     3833.741     7403.835     1396.196        1.777        0.632      150.089       30.927        0.042      345.791       23.575      868.081
05/13/2014  17:44:00      141.279       57.351       12.617       68.410       71.523       49.535     4679.956     5115.507     2453.720        1.783        0.612      152.475       36.513        0.057      345.658       23.344      868.091
05/13/2014  17:45:00      131.189       86.596       32.440       77.597      114.745       58.346     6021.255    13166.405     3404.291        2.417        1.130      157.192       16.704        0.011      345.614       23.269      868.068
05/13/2014  17:46:00      112.229       85.550       21.403       71.617       51.886       48.730     5128.965     2692.106     2374.639        1.528        0.510      141.118       23.898        0.029      345.688       23.397      868.047
05/13/2014  17:47:00      151.520       63.579       69.786       87.358       86.562       72.817     7631.434     7493.048     5302.328        2.614        1.021      164.318       50.551        0.095      345.762       23.521      868.028
05/13/2014  17:48:00      110.751      111.695       86.583       90.907       74.751       63.596     8264.091     5587.677     4044.406        2.506        0.895      157.295       51.387        0.107      345.799       23.587      868.016
05/13/2014  17:49:00      118.489      118.338       90.493       92.517       71.267       78.426     8559.417     5078.990     6150.652        2.801        0.989      167.463       55.159        0.108      345.712       23.437      868.015
05/13/2014  17:50:00       67.592       34.779       50.963       93.525       61.553       50.646     8746.947     3788.733     2565.054        1.174        0.755       76.015       48.822        0.413      346.198       24.272      868.011
05/13/2014  17:51:00       58.338       45.177       81.215       99.704      107.933       55.129     9940.897    11649.501     3039.241        1.833        1.231       73.785       51.438        0.486      346.126       24.149      868.009
05/13/2014  17:52:00       96.677       43.041       37.557       41.895       47.976       44.359     1755.204     2301.722     1967.725        0.932        0.301      105.825       24.083        0.052      346.016       23.960      868.007
05/13/2014  17:53:00      100.527       61.681       62.279       97.121       86.919       72.126     9432.394     7554.957     5202.120        1.998        1.109      117.941       58.089        0.243      345.910       23.777      867.998
05/13/2014  17:54:00      142.787       64.678       56.371      127.754       91.889       67.030    16321.028     8443.643     4493.004        2.850        1.463      156.752       62.438        0.159      345.870       23.707      867.987
05/13/2014  17:55:00      132.087       61.236       37.601       92.357      102.105       67.943     8529.900    10425.513     4616.204        2.309        1.179      145.592       59.040        0.164      345.775       23.544      867.992
05/13/2014  17:56:00      130.148       98.968       32.425       87.998       68.239       65.713     7743.719     4656.579     4318.153        2.225        0.836      163.503       50.970        0.097      345.803       23.594      867.991
05/13/2014  17:57:00      235.603      137.418       93.879      159.546      112.168       91.599    25454.768    12581.663     8390.355        6.481        2.321      272.750       95.375        0.122      345.816       23.613      867.975
05/13/2014  17:58:00      137.299      111.914      157.492      130.316      100.001       80.848    16982.180    10000.109     6536.368        4.484        1.676      177.132       94.126        0.282      345.586       23.218      867.974
05/13/2014  17:59:00      118.875       77.749       74.799       67.409       79.346       71.515     4543.927     6295.818     5114.352        2.086        0.798      142.043       56.607        0.159      345.695       23.407      867.989
05/13/2014  18:00:00       92.548       61.309       80.560       77.031       91.407       81.635     5933.802     8355.166     6664.212        1.988        1.048      111.013       81.202        0.535      345.835       23.648      867.993
05/13/2014  18:01:00      108.263      137.469      128.769       78.193       69.342       57.500     6114.079     4808.354     3306.279        3.071        0.711      174.982       49.241        0.079      345.559       23.173      867.985
05/13/2014  18:02:00       77.698       46.767       29.278       64.185       58.155       46.736     4119.771     3382.036     2184.236        0.938        0.484       90.687       41.218        0.207      345.584       23.217      867.971
05/13/2014  18:03:00       82.050     -122.782        1.593       79.270       96.974       55.860     6283.699     9404.041     3120.305        2.031        0.940      147.674       54.282        0.135      345.863       23.695      867.958
05/13/2014  18:04:00       95.666     -104.078       -7.900       57.921       63.769       43.925     3354.823     4066.502     1929.383        1.470        0.468      141.366       46.040        0.106      345.780       23.555      867.964
05/13/2014  18:05:00       82.682       75.795      111.565       73.874       73.859       58.236     5457.418     5455.179     3391.379        1.966        0.715      112.166       53.440        0.227      345.669       23.363      867.971
05/13/2014  18:06:00      120.042       68.915       52.724       75.826       66.141       66.775     5749.551     4374.583     4458.963        1.826        0.729      138.418       60.111        0.189      345.621       23.281      867.971
05/13/2014  18:07:00      146.420       63.398       34.207       77.046       56.303       49.436     5936.149     3170.059     2443.965        1.909        0.578      159.556       45.292        0.081      345.686       23.392      867.974
05/13/2014  18:08:00       78.115       66.480       73.937       86.514       72.021       70.472     7484.686     5187.090     4966.255        1.681        0.882      102.574       58.754        0.328      345.915       23.786      867.974
05/13/2014  18:09:00      185.694      143.794       44.272       95.160       82.671       69.615     9055.395     6834.498     4846.240        3.892        1.037      234.859       37.848        0.026      345.672       23.366      867.979
05/13/2014  18:10:00      138.019      138.715       10.292       84.673       75.908       67.956     7169.464     5761.973     4618.002        2.797        0.877      195.681       52.709        0.073      345.520       23.107      867.984
05/13/2014  18:11:00       38.604       64.615        2.391       43.098       50.410       33.344     1857.448     2541.129     1111.827        0.559        0.276       75.268       25.518        0.115      345.607       23.259      867.964
05/13/2014  18:12:00       28.510      156.407      -26.138       58.673       72.017       40.921     3442.478     5186.398     1674.501        1.813        0.515      158.984       45.996        0.084      345.658       23.344      867.950
05/13/2014  18:13:00       33.671      191.447       -0.592       88.551      115.520       61.721     7841.286    13344.814     3809.500        3.139        1.250      194.386       55.291        0.081      345.726       23.459      867.931
05/13/2014  18:14:00      132.776       79.329       19.943       82.480       70.070       42.319     6802.955     4909.834     1790.903        1.891        0.675      154.669       22.651        0.021      345.719       23.448      867.933
05/13/2014  18:15:00      158.628      114.875        9.458       56.098       45.412       45.091     3146.978     2062.292     2033.183        2.284        0.362      195.855       29.905        0.023      345.532       23.126      867.930
05/13/2014  18:16:00      115.226       78.907       17.380       47.101       37.876       37.222     2218.489     1434.624     1385.467        1.242        0.252      139.654       28.084        0.040      345.479       23.039      867.916
05/13/2014  18:17:00       54.063       52.003       -5.454       36.584       43.889       24.599     1338.388     1926.241      605.119        0.476        0.193       75.014       26.286        0.123      345.510       23.092      867.907
05/13/2014  18:18:00       50.558       81.775       -3.974       40.748       51.544       32.413     1660.377     2656.755     1050.591        0.731        0.268       96.142       26.527        0.076      345.638       23.311      867.897
05/13/2014  18:19:00      154.833       72.072       22.442       88.526       96.642       53.702     7836.910     9339.602     2883.927        2.486        1.003      170.785       54.744        0.103      345.732       23.470      867.882
05/13/2014  18:20:00       44.239      116.786       29.049       54.945       71.221       69.497     3018.917     5072.443     4829.839        1.468        0.646      124.884       42.499        0.116      345.723       23.458      867.886
05/13/2014  18:21:00       67.536      145.686      -13.736       57.041       87.471       43.507     3253.622     7651.161     1892.840        1.938        0.640      160.579       48.203        0.090      345.657       23.342      867.904
05/13/2014  18:22:00       81.317       89.855        7.388       81.614       53.996       43.422     6660.786     2915.516     1885.495        1.310        0.573      121.188       25.172        0.043      345.735       23.478      867.905
05/13/2014  18:23:00       44.797      162.882      -23.558       35.841       64.138       36.369     1284.595     4113.722     1322.737        1.791        0.336      168.930       38.550        0.052      345.648       23.328      867.906
05/13/2014  18:24:00       67.132      110.891        6.230       72.560       85.844       72.978     5265.002     7369.217     5325.746        1.740        0.898      129.628       60.990        0.221      345.584       23.218      867.903
05/13/2014  18:25:00      126.312      149.387       -5.002      104.550       90.163       50.196    10930.688     8129.328     2519.662        2.993        1.079      195.631       42.644        0.048      345.657       23.342      867.897
05/13/2014  18:26:00      116.583      206.113      -14.168      113.468       92.916       66.091    12874.978     8633.345     4368.014        4.107        1.294      236.800       65.675        0.077      345.608       23.255      867.900
05/13/2014  18:27:00       25.630      117.666      -10.308       60.076       78.836       49.481     3609.117     6215.158     2448.388        1.344        0.614      120.425       48.528        0.162      345.649       23.329      867.913
05/13/2014  18:28:00       35.687      103.941       -4.760       48.611       80.914       46.009     2363.048     6547.012     2116.845        1.156        0.551      109.896       45.574        0.172      345.614       23.269      867.908
05/13/2014  18:29:00       52.101       91.916      -11.069       48.923       53.859       34.091     2393.497     2900.750     1162.186        0.887        0.323      105.655       35.848        0.115      345.660       23.349      867.901
05/13/2014  18:30:00       96.368      109.455        7.106       76.661       61.871       55.764     5876.922     3828.047     3109.571        1.706        0.641      145.833       46.837        0.103      345.624       23.286      867.909
05/13/2014  18:31:00       61.969      162.744      -14.236       68.917      102.507       57.999     4749.587    10507.677     3363.917        2.457        0.931      174.143       59.349        0.116      345.529       23.121      867.907
05/13/2014  18:32:00       31.457      189.032      -43.517       39.231       72.883       27.242     1539.045     5311.882      742.115        2.310        0.380      191.632       35.208        0.034      345.542       23.143      867.914
05/13/2014  18:33:00      -18.124       92.087      -28.048       22.424       28.316       14.058      502.826      801.793      197.620        0.555        0.075       93.853       14.619        0.024      345.538       23.139      867.907
05/13/2014  18:34:00       23.251       27.983        8.795       17.793       25.806       23.949      316.579      665.941      573.550        0.148        0.078       36.382       17.326        0.227      345.596       23.239      867.907
05/13/2014  18:35:00       20.926       29.684       46.720       32.573       37.754       21.058     1060.973     1425.339      443.433        0.322        0.146       36.319       15.178        0.175      345.702       23.422      867.909
05/13/2014  18:36:00       78.760       56.828       38.588       43.263       32.769       31.356     1871.687     1073.793      983.192        0.742        0.196       97.122       22.102        0.052      345.650       23.333      867.909
05/13/2014  18:37:00      154.615       46.836       40.313       99.035       69.418       55.654     9807.859     4818.836     3097.406        2.272        0.886      161.553       46.707        0.084      345.624       23.285      867.909
05/13/2014  18:38:00      158.691       52.048       22.089       91.711       61.842       53.864     8410.818     3824.460     2901.349        2.176        0.757      167.009       49.029        0.086      345.565       23.184      867.901
05/13/2014  18:39:00      143.773       53.100       15.225       86.809       72.766       56.122     7535.779     5294.854     3149.714        1.985        0.799      153.265       41.516        0.073      345.562       23.178      867.901
05/13/2014  18:40:00      103.473       47.746       24.902       78.087       46.569       42.408     6097.505     2168.668     1798.453        1.183        0.503      113.957       43.269        0.144      345.611       23.265      867.911
05/13/2014  18:41:00       14.820       49.612       53.204       29.549       30.314       23.107      873.124      918.948      533.950        0.392        0.116       51.778       22.370        0.187      345.677       23.378      867.903
05/13/2014  18:42:00       85.108       25.307       15.850       55.246       33.861       38.844     3052.124     1146.544     1508.829        0.692        0.285       88.791       33.830        0.145      345.662       23.353      867.893
05/13/2014  18:43:00       86.994       61.967       42.633       25.232       18.114       23.170      636.632      328.122      536.846        0.736        0.075      106.808       12.158        0.013      345.603       23.250      867.896
05/13/2014  18:44:00       81.336       43.572       37.908       32.404       25.351       21.810     1050.014      642.675      475.673        0.606        0.108       92.272       15.702        0.029      345.605       23.254      867.892
05/13/2014  18:45:00       37.981       33.424       21.721       25.816       28.489       28.278      666.444      811.646      799.630        0.265        0.114       50.594       14.068        0.077      345.649       23.330      867.890
05/13/2014  18:46:00       13.916       -5.915        3.091       28.910       34.163       20.733      835.779     1167.103      429.842        0.133        0.122       15.121       10.884        0.518      345.899       23.758      867.883
05/13/2014  18:47:00       20.137      -65.274        8.698       31.716       43.658       29.492     1005.899     1906.002      869.755        0.426        0.189       68.310       14.338        0.044      345.821       23.625      867.876
05/13/2014  18:48:00        0.962       14.119       31.142       15.052       20.711       17.031      226.550      428.929      290.069        0.106        0.047       14.152       12.905        0.832      345.884       23.733      867.867
05/13/2014  18:49:00       38.818      -16.710       40.447       39.049       47.294       26.742     1524.810     2236.686      715.122        0.395        0.224       42.262       29.376        0.483      345.703       23.421      867.866
05/13/2014  18:50:00       30.606      -12.841       34.827       37.025       56.379       34.728     1370.845     3178.554     1206.015        0.403        0.288       33.190       35.282        1.130      345.809       23.605      867.850
05/13/2014  18:51:00       75.077      -38.232       38.950       55.439       83.401       47.689     3073.452     6955.722     2274.256        1.046        0.615       84.252       54.398        0.417      345.723       23.458      867.842
05/13/2014  18:52:00       70.246        2.545       50.530       68.625       56.020       46.271     4709.342     3138.199     2140.990        0.874        0.499       70.292       47.470        0.456      345.659       23.347      867.840
05/13/2014  18:53:00       42.843        0.346       45.582       55.505       43.257       30.776     3080.838     1871.164      947.179        0.491        0.295       42.845       21.270        0.246      345.688       23.398      867.829
05/13/2014  18:54:00      111.414       77.843       65.552       85.477       60.234       58.459     7306.248     3628.188     3417.446        1.856        0.718      135.914       49.648        0.133      345.609       23.261      867.819
05/13/2014  18:55:00      117.569       70.409       55.458       86.015       95.644       67.232     7398.516     9147.863     4520.114        2.146        1.053      137.039       54.513        0.158      345.586       23.220      867.809
05/13/2014  18:56:00       67.077       32.391       57.768       70.055       47.477       36.049     4907.762     2254.088     1299.542        0.867        0.423       74.489       38.311        0.265      345.700       23.419      867.799
05/13/2014  18:57:00       80.843       79.636       65.938       75.918       45.870       53.505     5763.550     2104.036     2862.812        1.398        0.537      113.479       46.620        0.169      345.762       23.523      867.800
05/13/2014  18:58:00      102.401       59.561       15.032       60.216       50.103       41.866     3626.013     2510.272     1752.796        1.107        0.394      118.463       26.023        0.048      345.628       23.293      867.800
05/13/2014  18:59:00      108.175       58.407       28.661       46.158       37.253       34.264     2130.581     1387.807     1173.999        1.031        0.235      122.935       23.922        0.038      345.517       23.104      867.797
05/13/2014  19:00:00       96.874       44.135       54.055       62.369       48.120       44.724     3889.897     2315.512     2000.245        1.123        0.410      106.454       36.294        0.116      345.616       23.271      867.793
05/13/2014  19:01:00       32.300       41.145       61.500       42.083       43.795       29.579     1770.996     1918.001      874.913        0.554        0.228       52.309       21.077        0.162      345.672       23.370      867.800
05/13/2014  19:02:00      102.618       78.353       46.384       51.841       36.723       40.346     2687.442     1348.580     1627.783        1.224        0.283      129.111       26.187        0.041      345.537       23.138      867.795
05/13/2014  19:03:00       49.268       44.119       64.300       41.992       39.461       27.962     1763.322     1557.159      781.855        0.630        0.205       66.135       22.114        0.112      345.606       23.257      867.804
05/13/2014  19:04:00       46.371       18.429       27.562       50.390       37.230       29.147     2539.124     1386.062      849.526        0.401        0.239       49.899       23.969        0.231      345.648       23.329      867.818
05/13/2014  19:05:00       24.554       -7.073       18.578       27.632       48.339       22.241      763.515     2336.706      494.661        0.230        0.180       25.552       20.644        0.653      345.658       23.346      867.827
05/13/2014  19:06:00       37.973      -57.717       11.630       38.558       32.537       22.661     1486.754     1058.683      513.502        0.398        0.153       69.088       19.482        0.080      345.733       23.476      867.832
05/13/2014  19:07:00       39.555      -53.173       12.492       26.511       39.003       19.378      702.818     1521.210      375.506        0.357        0.130       66.272       17.142        0.067      345.679       23.381      867.834
05/13/2014  19:08:00       30.601       19.424       39.596       28.418       43.192       20.573      807.590     1865.513      423.231        0.299        0.155       36.245       20.376        0.316      345.591       23.230      867.837
05/13/2014  19:09:00       89.121       58.002       12.596       32.426       32.143       22.746     1051.418     1033.141      517.362        0.703        0.130      106.334       16.861        0.025      345.516       23.101      867.842
05/13/2014  19:10:00       38.394       39.555       -1.003       38.336       22.663       15.736     1469.672      513.622      247.616        0.263        0.112       55.124       16.734        0.092      345.471       23.025      867.845
05/13/2014  19:11:00       14.705       39.282       -9.932       28.443       25.399       17.258      809.000      645.112      297.850        0.180        0.088       41.944        9.077        0.047      345.498       23.071      867.842
05/13/2014  19:12:00       -5.769       46.500       -9.066       20.421       21.513       11.144      417.006      462.816      124.185        0.164        0.050       46.856        5.288        0.013      345.509       23.091      867.836
05/13/2014  19:13:00       39.254       42.529        1.918       15.753       21.321       13.881      248.170      454.567      192.686        0.212        0.045       57.876        9.733        0.028      345.482       23.043      867.840
05/13/2014  19:14:00       63.660       50.899       35.084       25.959       22.448       25.359      673.866      503.912      643.072        0.485        0.091       81.507       14.572        0.032      345.522       23.112      867.854
05/13/2014  19:15:00       72.389       52.638       10.651       26.977       32.818       26.894      727.749     1077.034      723.301        0.533        0.126       89.503       19.645        0.048      345.470       23.022      867.875
05/13/2014  19:16:00       94.600       67.944       -4.039       44.882       34.056       33.825     2014.368     1159.792     1144.113        0.895        0.216      116.471       22.700        0.038      345.471       23.023      867.877
05/13/2014  19:17:00      105.055       43.073       11.245       53.414       36.478       20.707     2853.085     1330.618      428.759        0.881        0.231      113.542       11.726        0.011      345.410       22.920      867.887
05/13/2014  19:18:00       85.781       55.603       13.083       56.342       36.695       27.916     3174.446     1346.514      779.328        0.796        0.265      102.225        9.399        0.008      345.360       22.834      867.905
05/13/2014  19:19:00       53.474       67.459        1.770       44.628       44.481       21.693     1991.662     1978.567      470.588        0.593        0.222       86.082       22.293        0.067      345.318       22.763      867.907
05/13/2014  19:20:00       68.702       99.286       -0.846       65.260       56.706       43.203     4258.915     3215.531     1866.505        1.196        0.467      120.738       35.127        0.085      345.294       22.720      867.905
05/13/2014  19:21:00       95.049       89.144        3.266       64.760       50.118       47.069     4193.870     2511.809     2215.470        1.295        0.446      130.311       31.174        0.057      345.325       22.774      867.912
05/13/2014  19:22:00      144.673      105.608       11.435       56.279       44.631       42.680     3167.375     1991.889     1821.565        1.960        0.349      179.118       25.112        0.020      345.328       22.778      867.912
05/13/2014  19:23:00       68.538       40.209       15.798       51.401       36.106       25.278     2642.016     1303.645      638.986        0.557        0.229       79.462       19.009        0.057      345.263       22.669      867.908
05/13/2014  19:24:00       89.306      110.509        7.736       67.575       75.915       45.539     4566.337     5763.132     2073.779        1.632        0.620      142.084       45.779        0.104      345.302       22.733      867.913
05/13/2014  19:25:00       82.008       87.309        7.513       60.263       63.275       34.065     3631.587     4003.783     1160.403        1.160        0.440      119.784       30.815        0.066      345.257       22.657      867.911
05/13/2014  19:26:00      102.020       75.700       15.734       50.497       37.120       30.850     2549.906     1377.867      951.692        1.063        0.244      127.038       22.275        0.031      345.280       22.697      867.923
05/13/2014  19:27:00       88.085       62.547        9.847       36.087       26.064       28.179     1302.273      679.314      794.068        0.727        0.139      108.033       17.914        0.027      345.301       22.733      867.920
05/13/2014  19:28:00       85.822       59.279       24.057       48.481       25.119       23.519     2350.383      630.971      553.122        0.750        0.177      104.304       19.511        0.035      345.276       22.690      867.921
05/13/2014  19:29:00      100.583       73.939       11.195       38.415       28.791       30.942     1475.721      828.925      957.430        0.949        0.163      124.836       22.761        0.033      345.260       22.662      867.922
05/13/2014  19:30:00       94.184       88.247       19.286       33.808       25.281       23.463     1143.013      639.154      550.507        0.968        0.117      129.067       17.783        0.019      345.244       22.636      867.928
05/13/2014  19:31:00      104.131       68.614       10.190       31.097       23.165       16.757      967.032      536.607      280.800        0.872        0.089      124.705        9.042        0.005      345.294       22.721      867.937
05/13/2014  19:32:00       58.615       40.920       10.067       35.717       23.379       22.201     1275.713      546.558      492.883        0.376        0.116       71.486       13.043        0.033      345.211       22.578      867.947
05/13/2014  19:33:00       55.969       64.562       -7.107       28.098       35.302       24.962      789.490     1246.246      623.102        0.500        0.133       85.444       21.888        0.066      345.187       22.536      867.952
05/13/2014  19:34:00       75.575       48.507       11.998       45.095       24.727       18.590     2033.526      611.426      345.574        0.560        0.150       89.802       16.292        0.033      345.159       22.488      867.954
05/13/2014  19:35:00       97.815       63.617       17.849       31.587       26.021       21.094      997.738      677.097      444.952        0.803        0.106      116.682       11.489        0.010      345.138       22.455      867.953
05/13/2014  19:36:00       98.239       75.399       22.139       35.365       24.776       24.134     1250.709      613.839      582.467        0.914        0.122      123.838       19.708        0.025      345.052       22.307      867.963
05/13/2014  19:37:00      114.548       75.072       16.684       45.188       32.383       25.927     2041.943     1048.681      672.230        1.140        0.188      136.956       25.817        0.036      345.067       22.332      867.980
05/13/2014  19:38:00      106.100       49.084       12.406       47.535       38.281       27.841     2259.557     1465.426      775.107        0.916        0.225      116.903       18.019        0.024      345.029       22.267      867.983
05/13/2014  19:39:00      152.553       47.010       18.527       92.040       63.999       53.532     8471.392     4095.864     2865.715        2.063        0.772      159.632       32.302        0.041      345.091       22.373      867.985
05/13/2014  19:40:00      115.085       74.239       72.012       71.535       65.704       41.495     5117.214     4317.043     1721.846        1.755        0.558      136.953       26.236        0.037      345.005       22.227      867.997
05/13/2014  19:41:00      178.235       96.966       52.731       67.810       49.478       56.846     4598.168     2448.087     3231.499        2.711        0.514      202.904       36.907        0.033      345.002       22.220      868.009
05/13/2014  19:42:00      118.956       77.479       54.626       69.762       51.713       46.656     4866.790     2674.184     2176.767        1.643        0.486      141.963       33.420        0.055      344.891       22.030      868.010
05/13/2014  19:43:00      203.907      119.250       44.803       77.137       73.940       48.867     5950.101     5467.119     2387.955        3.580        0.690      236.217       38.463        0.027      344.998       22.212      868.011
05/13/2014  19:44:00      173.927      115.998       26.594      106.501       82.627       54.240    11342.396     6827.254     2941.949        3.276        1.056      209.060       41.708        0.040      344.949       22.129      868.013
05/13/2014  19:45:00      103.633       73.180       54.438       53.718       75.755       53.876     2885.608     5738.799     2902.619        1.529        0.576      126.867       47.751        0.142      344.868       21.991      868.027
05/13/2014  19:46:00      188.256      110.475       72.151       90.569       71.766       65.621     8202.664     5150.402     4306.121        3.525        0.883      218.277       51.269        0.055      344.977       22.177      868.034
05/13/2014  19:47:00      140.432       95.743       45.232       69.339       64.044       51.936     4807.893     4101.657     2697.334        2.127        0.580      169.964       38.382        0.051      344.904       22.052      868.058
05/13/2014  19:48:00      179.755       87.401       31.409       75.990       56.567       48.744     5774.504     3199.834     2376.013        2.614        0.568      199.878       39.805        0.040      344.922       22.082      868.074
05/13/2014  19:49:00       79.010       29.888       25.506       80.512       54.289       44.307     6482.254     2947.349     1963.138        0.959        0.570       84.474       31.355        0.138      344.818       21.906      868.075
05/13/2014  19:50:00      122.712       61.524        7.897       76.465       47.884       36.107     5846.928     2292.831     1303.712        1.417        0.472      137.271       16.672        0.015      344.786       21.851      868.108
05/13/2014  19:51:00      153.942       82.224       26.569       60.435       49.235       37.655     3652.415     2424.121     1417.932        1.933        0.375      174.525       14.747        0.007      344.883       22.017      868.116
05/13/2014  19:52:00      155.048       78.959       19.271       85.287       52.895       33.681     7273.903     2797.874     1134.437        2.092        0.560      173.995       17.359        0.010      344.757       21.800      868.127
05/13/2014  19:53:00      180.848       75.253       17.582      101.193       80.207       52.143    10240.109     6433.206     2718.865        2.903        0.970      195.880       41.552        0.045      344.823       21.912      868.142
05/13/2014  19:54:00      190.786       70.699       15.526       90.538       76.440       55.328     8197.082     5842.998     3061.232        2.937        0.855      203.464       48.717        0.057      344.849       21.957      868.136
05/13/2014  19:55:00      152.860       78.634       38.697       80.554       74.665       47.163     6488.898     5574.921     2224.322        2.266        0.714      171.900       20.592        0.014      344.815       21.899      868.156
05/13/2014  19:56:00      130.122       57.421       29.853       64.113       50.946       38.966     4110.523     2595.481     1518.368        1.467        0.411      142.228       27.207        0.037      344.728       21.752      868.164
05/13/2014  19:57:00      136.427       66.733       15.718       51.708       42.101       42.900     2673.757     1772.461     1840.385        1.480        0.314      151.873       22.193        0.021      344.725       21.744      868.165
05/13/2014  19:58:00      120.333       45.479        7.356       57.363       52.989       37.605     3290.513     2807.788     1414.140        1.206        0.376      128.641       29.586        0.053      344.696       21.697      868.182
05/13/2014  19:59:00      111.301       50.223       14.662       47.761       38.274       29.959     2281.148     1464.924      897.560        0.988        0.232      122.107       15.333        0.016      344.671       21.655      868.185
05/13/2014  20:00:00       74.273       24.773       14.962       60.614       41.006       29.785     3674.086     1681.484      887.126        0.630        0.312       78.296       24.388        0.097      344.649       21.618      868.207
05/13/2014  20:01:00       88.006       21.766        8.736       47.621       35.658       25.937     2267.752     1271.524      672.735        0.625        0.211       90.657       12.038        0.018      344.653       21.624      868.202
05/13/2014  20:02:00       82.260       59.289       36.521       34.542       25.965       19.047     1193.144      674.199      362.803        0.692        0.112      101.399       15.614        0.024      344.644       21.609      868.209
05/13/2014  20:03:00       88.542       63.574       17.737       46.566       29.169       24.274     2168.426      850.845      589.243        0.790        0.180      109.002       10.896        0.010      344.558       21.463      868.213
05/13/2014  20:04:00      101.034       67.439       19.663       26.189       25.219       25.752      685.862      635.982      663.170        0.856        0.099      121.473        8.465        0.005      344.510       21.379      868.235
05/13/2014  20:05:00      109.669       32.443       24.649       85.841       65.775       44.992     7368.615     4326.298     2024.243        1.370        0.686      114.368       50.873        0.198      344.584       21.504      868.222
05/13/2014  20:06:00      159.962       81.351       32.121       86.409       75.106       59.081     7466.498     5640.975     3490.575        2.491        0.830      179.460       44.378        0.061      344.550       21.446      868.231
05/13/2014  20:07:00      114.919       60.377       51.829      109.738       56.187       65.726    12042.438     3157.012     4319.877        1.952        0.976      129.815       70.713        0.297      344.482       21.329      868.225
05/13/2014  20:08:00      135.111       64.084        3.635       51.397       51.232       32.754     2641.665     2624.726     1072.794        1.436        0.317      149.539       16.327        0.012      344.504       21.370      868.245
05/13/2014  20:09:00      146.290       75.780       14.367       61.349       31.210       30.957     3763.729      974.053      958.316        1.652        0.285      164.753       24.341        0.022      344.456       21.284      868.257
05/13/2014  20:10:00      184.516      119.726       43.225       58.873       44.080       39.612     3466.064     1943.040     1569.082        2.861        0.349      219.956       26.898        0.015      344.606       21.541      868.268
05/13/2014  20:11:00      124.898       71.704       19.586       50.671       47.982       39.401     2567.522     2302.307     1552.404        1.377        0.321      144.018       23.032        0.026      344.453       21.282      868.285
05/13/2014  20:12:00      120.705       73.645       30.623       53.625       38.649       38.342     2875.644     1493.747     1470.082        1.338        0.292      141.398       22.762        0.026      344.366       21.134      868.293
05/13/2014  20:13:00      118.535       70.552       32.739       59.256       39.478       34.057     3511.303     1558.484     1159.898        1.316        0.311      137.943       35.502        0.066      344.385       21.165      868.308
05/13/2014  20:14:00      114.180       80.211       15.087       55.045       41.327       32.648     3029.933     1707.896     1065.867        1.275        0.290      139.538       10.947        0.006      344.368       21.137      868.317
05/13/2014  20:15:00      112.736       43.429       16.898       57.890       56.276       37.709     3351.221     3167.017     1421.979        1.141        0.397      120.812       25.134        0.043      344.353       21.111      868.338
05/13/2014  20:16:00       65.743       65.496        7.821       43.819       34.431       30.147     1920.110     1185.480      908.831        0.634        0.201       92.800       21.564        0.054      344.286       20.998      868.358
05/13/2014  20:17:00       69.065       70.333       -1.882       35.630       28.223       30.958     1269.479      796.524      958.421        0.637        0.151       98.574       19.954        0.041      344.378       21.155      868.368
05/13/2014  20:18:00       60.625       57.190        0.671       38.772       33.648       21.672     1503.288     1132.205      469.682        0.503        0.155       83.343       14.355        0.030      344.295       21.012      868.387
05/13/2014  20:19:00       95.839       82.055        4.300       41.905       37.987       34.777     1756.065     1443.003     1209.407        1.017        0.220      126.167       24.995        0.039      344.348       21.102      868.395
05/13/2014  20:20:00      110.223       81.556       10.490       42.770       21.851       25.838     1829.253      477.469      667.589        1.094        0.149      137.115       15.075        0.012      344.406       21.203      868.411
05/13/2014  20:21:00       86.607       66.863       14.993       29.343       26.277       28.726      861.002      690.471      825.210        0.729        0.119      109.413       17.711        0.026      344.296       21.014      868.426
05/13/2014  20:22:00       97.977       65.921        9.446       43.415       31.323       25.851     1884.835      981.156      668.250        0.878        0.177      118.089       16.143        0.019      344.282       20.990      868.443
05/13/2014  20:23:00       93.838       67.042       12.979       38.342       29.446       25.286     1470.113      867.074      639.385        0.822        0.149      115.327       15.693        0.019      344.274       20.977      868.458
05/13/2014  20:24:00       64.093       44.457       11.612       34.174       27.125       26.802     1167.876      735.748      718.362        0.442        0.131       78.002       18.456        0.056      344.208       20.864      868.473
05/13/2014  20:25:00       60.492       52.643        5.737       33.545       24.912       22.623     1125.295      620.591      511.800        0.436        0.113       80.191       14.558        0.033      344.237       20.914      868.486
05/13/2014  20:26:00       75.634       72.113        1.705       32.560       28.057       25.767     1060.134      787.194      663.951        0.672        0.126      104.503       16.042        0.024      344.264       20.959      868.506
05/13/2014  20:27:00       83.386       64.742        3.748       41.986       27.085       29.630     1762.817      733.620      877.919        0.727        0.169      105.569       22.373        0.045      344.189       20.832      868.516
05/13/2014  20:28:00       76.158       47.177       14.365       40.015       26.342       26.251     1601.179      693.876      689.123        0.561        0.149       89.586       18.368        0.042      344.183       20.821      868.528
05/13/2014  20:29:00       50.934       67.344        0.375       50.402       41.966       30.794     2540.347     1761.133      948.296        0.619        0.262       84.436       24.536        0.084      344.136       20.741      868.540
05/13/2014  20:30:00       51.024       58.544        4.110       34.774       47.148       39.006     1209.231     2222.936     1521.478        0.550        0.248       77.659       29.471        0.144      344.096       20.672      868.547
05/13/2014  20:31:00       46.360       65.823        0.636       42.723       43.752       35.491     1825.288     1914.279     1259.600        0.574        0.250       80.510       27.042        0.113      344.107       20.691      868.543
05/13/2014  20:32:00      100.748      102.548        7.084       59.417       40.446       39.209     3530.330     1635.875     1537.384        1.371        0.335      143.757       27.906        0.038      344.114       20.702      868.552
05/13/2014  20:33:00       94.105       87.364        6.809       43.199       36.873       31.029     1866.148     1359.588      962.820        1.036        0.209      128.406       22.217        0.030      344.078       20.642      868.555
05/13/2014  20:34:00      108.247       77.922       11.049       46.014       30.029       30.592     2117.247      901.749      935.873        1.093        0.198      133.377       23.431        0.031      344.047       20.590      868.561
05/13/2014  20:35:00      109.058       71.696       30.685       30.223       23.610       24.903      913.401      557.420      620.183        1.003        0.105      130.514       13.869        0.011      343.987       20.487      868.561
05/13/2014  20:36:00       94.347       64.961       19.493       40.998       32.529       35.448     1680.826     1058.113     1256.572        0.875        0.200      114.548       18.752        0.027      343.946       20.416      868.554
05/13/2014  20:37:00       81.156       65.636       13.774       46.907       32.158       30.414     2200.256     1034.144      925.013        0.762        0.208      104.376       18.380        0.031      344.002       20.512      868.562
05/13/2014  20:38:00       58.839       60.173       11.602       38.075       41.854       32.449     1449.723     1751.784     1052.964        0.574        0.213       84.159        7.230        0.007      344.031       20.562      868.570
05/13/2014  20:39:00       23.317       78.910       -1.616       33.916       43.877       25.337     1150.307     1925.162      641.984        0.524        0.186       82.283       23.866        0.084      343.979       20.473      868.572
05/13/2014  20:40:00       53.370       70.607       15.940       32.813       32.157       32.856     1076.708     1034.084     1079.515        0.564        0.160       88.508       23.782        0.072      344.064       20.619      868.580
05/13/2014  20:41:00       37.629       71.839       11.593       39.183       41.200       31.172     1535.289     1697.460      971.686        0.546        0.210       81.098       26.488        0.107      344.063       20.616      868.592
05/13/2014  20:42:00       77.598       70.665       12.214       55.099       28.823       35.459     3035.875      830.769     1257.373        0.814        0.256      104.952       25.199        0.058      344.100       20.680      868.600
05/13/2014  20:43:00       64.208       73.415       11.959       43.227       39.671       37.768     1868.580     1573.798     1426.403        0.726        0.243       97.531       30.554        0.098      344.053       20.600      868.610
05/13/2014  20:44:00       62.943       72.974       13.249       53.856       45.908       42.349     2900.472     2107.569     1793.439        0.813        0.340       96.369       34.725        0.130      344.077       20.641      868.620
05/13/2014  20:45:00       57.744       62.765       10.375       39.236       37.906       42.025     1539.494     1436.857     1766.097        0.606        0.237       85.286       29.615        0.121      344.080       20.645      868.624
05/13/2014  20:46:00       71.133       55.145       12.047       36.454       33.259       33.131     1328.904     1106.139     1097.638        0.589        0.177       90.005       27.361        0.092      344.071       20.631      868.643
05/13/2014  20:47:00       21.432       74.658       -1.387       27.560       31.744       24.520      759.551     1007.689      601.242        0.420        0.118       77.674       19.819        0.065      344.007       20.520      868.652
05/13/2014  20:48:00       34.314      134.321      -16.394       26.891       43.259       24.557      723.117     1871.351      603.032        1.134        0.160      138.635       24.774        0.032      344.077       20.639      868.670
05/13/2014  20:49:00       20.367       95.701       -2.244       30.751       38.537       23.492      945.600     1485.119      551.861        0.628        0.149       97.844       22.201        0.051      343.965       20.449      868.693
05/13/2014  20:50:00       43.163      127.137      -20.731       30.867       33.047       17.644      952.801     1092.102      311.317        1.041        0.118      134.264       17.132        0.016      344.098       20.675      868.703
05/13/2014  20:51:00       27.755       99.688      -10.668       27.450       40.083       23.803      753.490     1606.685      566.586        0.687        0.146      103.480       21.546        0.043      343.975       20.466      868.716
05/13/2014  20:52:00       61.224       66.846        5.306       42.803       41.451       35.070     1832.064     1718.221     1229.922        0.651        0.239       90.647       28.722        0.100      344.017       20.535      868.726
05/13/2014  20:53:00       22.124       51.177        3.771       34.696       37.207       23.450     1203.804     1384.387      549.905        0.313        0.157       55.755       21.450        0.148      343.913       20.360      868.738
05/13/2014  20:54:00       31.157       29.830       12.826       25.714       33.542       21.354      661.192     1125.033      455.992        0.213        0.112       43.135       23.309        0.292      343.868       20.283      868.763
05/13/2014  20:55:00       15.665       48.513        2.862       22.901       46.867       20.922      524.469     2196.542      437.730        0.288        0.158       50.979       27.911        0.300      343.803       20.172      868.775
05/13/2014  20:56:00       -4.269        8.274       16.618       15.728       10.905       11.752      247.367      118.913      138.102        0.043        0.025        9.310        8.343        0.803      343.039       18.870      868.786
05/13/2014  20:57:00      -26.767       25.583       -2.302       11.825       11.515       10.037      139.831      132.596      100.737        0.087        0.019       37.027        2.199        0.004      343.711       20.015      868.793
05/13/2014  20:58:00      -17.850       22.487        2.418       19.234       11.023       10.374      369.934      121.503      107.614        0.071        0.030       28.710        7.812        0.074      343.674       19.952      868.804
05/13/2014  20:59:00      -17.626      -13.963        3.275       20.113       20.239       10.058      404.527      409.613      101.165        0.072        0.046       22.487        3.712        0.027      343.373       19.439      868.822
05/13/2014  21:00:00      -53.647      -13.932       -2.567       10.622        9.460        6.505      112.835       89.494       42.316        0.166        0.012       55.427        5.242        0.009      343.489       19.636      868.835
05/13/2014  21:01:00      -68.018       -9.309       -8.086       13.210        9.390        8.290      174.504       88.177       68.729        0.255        0.017       68.652        2.489        0.001      343.428       19.532      868.849
05/13/2014  21:02:00     -103.775      -23.670      -13.935       13.897       11.488        8.554      193.131      131.985       73.162        0.596        0.020      106.440        3.446        0.001      343.309       19.332      868.877
05/13/2014  21:03:00     -127.581      -59.332       -8.130       31.084       28.039       18.062      966.213      786.175      326.226        1.097        0.104      140.702        9.990        0.005      343.275       19.273      868.896
05/13/2014  21:04:00     -133.964      -34.331       -9.129       32.686       55.525       21.049     1068.349     3083.000      443.047        1.190        0.230      138.293       14.005        0.010      343.287       19.294      868.921
05/13/2014  21:05:00     -100.256       -9.464       -2.909       34.824       27.606       19.566     1212.727      762.096      382.821        0.625        0.118      100.702       18.411        0.033      343.117       19.003      868.929
05/13/2014  21:06:00     -106.885       -8.130       -2.864       49.059       24.904       24.027     2406.818      620.205      577.301        0.755        0.180      107.194       25.794        0.058      343.062       18.909      868.957
05/13/2014  21:07:00     -102.898      -24.609       -4.652       29.084       32.221       17.065      845.907     1038.210      291.216        0.669        0.109      105.800       13.772        0.017      343.039       18.869      868.969
05/13/2014  21:08:00      -70.152      -31.508        3.505       30.917       22.394       14.971      955.880      501.505      224.142        0.380        0.084       76.903       17.444        0.051      343.097       18.968      868.992
05/13/2014  21:09:00       -2.387      -41.775       -1.608       36.027       31.433       20.045     1297.949      988.019      401.804        0.222        0.134       41.843       14.944        0.128      342.712       18.313      869.006
05/13/2014  21:10:00       10.313        9.806       14.043       39.538       22.599       25.737     1563.249      510.721      662.392        0.157        0.137       14.230       13.104        0.848      342.284       17.585      869.032
05/13/2014  21:11:00      -31.331       -2.464        4.933       29.260       21.527       16.562      856.156      463.423      274.284        0.130        0.080       31.428       15.228        0.235      342.611       18.141      869.051
05/13/2014  21:12:00      -70.028      -31.237       -7.876       19.142       14.119       11.005      366.431      199.356      121.120        0.331        0.034       76.679       11.417        0.022      343.160       19.077      869.060
05/13/2014  21:13:00      -44.883      -14.245      -10.246       26.100       22.690        9.925      681.194      514.828       98.501        0.181        0.065       47.089       11.737        0.062      343.237       19.207      869.076
05/13/2014  21:14:00      -65.088      -29.400       -7.343       18.543       17.463       12.676      343.832      304.970      160.687        0.298        0.040       71.420       10.205        0.020      343.743       20.070      869.083
05/13/2014  21:15:00      -47.475      -12.334       -5.330       15.787       16.366       12.259      249.221      267.833      150.277        0.155        0.033       49.051        9.134        0.035      343.336       19.376      869.102
05/13/2014  21:16:00      -24.400       12.724        5.741       23.338       13.328       10.522      544.651      177.643      110.706        0.081        0.042       27.519       10.821        0.155      343.310       19.333      869.104
05/13/2014  21:17:00      -32.794       19.004       -3.488       17.753       19.433       14.055      315.157      377.653      197.552        0.117        0.045       37.903       11.538        0.093      343.339       19.380      869.118
05/13/2014  21:18:00      -22.054       25.982        5.828       22.095       21.892       13.356      488.204      479.248      178.389        0.117        0.057       34.080       10.006        0.086      343.311       19.333      869.130
05/13/2014  21:19:00      -24.889       -3.967       -3.301       16.691       21.618       11.021      278.592      467.347      121.470        0.076        0.043       25.203       10.439        0.172      343.258       19.244      869.139
05/13/2014  21:20:00        5.197      -10.761        5.532       12.782       17.695       13.218      163.376      313.105      174.715        0.041        0.033       11.950       11.610        0.944      342.774       18.420      869.159
05/13/2014  21:21:00        8.542       -5.614       15.970       23.249       22.453       16.439      540.537      504.151      270.241        0.084        0.066       10.222       14.737        2.079      342.468       17.900      869.177
05/13/2014  21:22:00       -7.257        3.603        9.338       13.959       16.903       13.046      194.857      285.707      170.186        0.040        0.033        8.102        7.437        0.843      342.486       17.928      869.192
05/13/2014  21:23:00      -48.838      -22.331       -7.563       22.892       17.145       12.127      524.027      293.949      147.065        0.195        0.048       53.702        9.450        0.031      343.046       18.882      869.194
05/13/2014  21:24:00      -56.104      -11.478       -5.906       25.232       19.070       12.634      636.654      363.668      159.616        0.224        0.058       57.266       13.435        0.055      342.865       18.575      869.205
05/13/2014  21:25:00      -44.803      -20.444        0.708       20.139       18.672       13.810      405.570      348.660      190.714        0.169        0.047       49.247        7.197        0.021      342.550       18.039      869.206
05/13/2014  21:26:00      -32.436      -43.315       -3.210       33.719       24.927       21.271     1136.947      621.342      452.444        0.257        0.111       54.113       20.058        0.137      342.585       18.097      869.218
05/13/2014  21:27:00      -96.171      -26.584       -3.076       41.689       29.503       17.139     1737.998      870.426      293.762        0.643        0.145       99.777       15.974        0.026      342.563       18.061      869.232
05/13/2014  21:28:00     -151.871      -13.092      -26.278       26.738       26.211       16.479      714.911      687.021      271.548        1.280        0.084      152.434        9.467        0.004      342.643       18.196      869.255
05/13/2014  21:29:00      -96.020      -51.293      -27.260       33.334       24.211       17.566     1111.144      586.159      308.572        0.730        0.100      108.862       13.410        0.015      342.541       18.023      869.280
05/13/2014  21:30:00     -112.130      -21.972      -14.854       38.064       29.693       16.626     1448.875      881.648      276.424        0.794        0.130      114.262        9.459        0.007      342.530       18.004      869.298
05/13/2014  21:31:00      -93.454      -13.232      -11.219       25.780       38.528       22.067      664.631     1484.383      486.945        0.583        0.132       94.386        8.709        0.009      342.559       18.054      869.322
05/13/2014  21:32:00      -74.890       13.084       -4.393       17.407       34.029       20.661      302.994     1157.993      426.892        0.384        0.094       76.025       14.837        0.038      342.475       17.910      869.338
05/13/2014  21:33:00      -90.091        6.551      -16.653       17.290       15.062       11.410      298.945      226.879      130.179        0.455        0.033       90.328        9.687        0.012      342.609       18.138      869.362
05/13/2014  21:34:00      -81.260      -14.660      -12.831       32.303       25.471       16.896     1043.489      648.776      285.459        0.448        0.099       82.572       16.539        0.040      342.490       17.936      869.383
05/13/2014  21:35:00     -124.797      -27.978      -15.309       31.991       26.153       15.470     1023.442      683.987      239.329        0.927        0.097      127.895       11.742        0.008      342.312       17.633      869.398
05/13/2014  21:36:00      -96.792      -19.306       -2.169       36.158       43.099       19.517     1307.399     1857.536      380.901        0.665        0.177       98.699       13.011        0.017      342.180       17.409      869.420
05/13/2014  21:37:00      -92.111      -26.477      -17.514       33.863       26.397       16.290     1146.690      696.779      265.356        0.580        0.105       95.841       14.351        0.022      342.168       17.389      869.435
05/13/2014  21:38:00      -76.619       -5.224       -5.337       40.151       35.279       24.708     1612.074     1244.594      610.510        0.470        0.173       76.797       20.895        0.074      342.063       17.211      869.440
05/13/2014  21:39:00      -98.126      -12.691      -12.909       29.637       35.694       18.909      878.381     1274.089      357.532        0.623        0.126       98.943       15.119        0.023      342.106       17.285      869.454
05/13/2014  21:40:00      -90.698      -27.200       -8.569       26.265       29.922       18.284      689.824      895.330      334.299        0.548        0.096       94.688        6.338        0.004      342.193       17.430      869.468
05/13/2014  21:41:00      -34.923       -1.676       -9.049       32.405       30.176       21.460     1050.059      910.608      460.529        0.186        0.121       34.963       18.711        0.286      342.156       17.368      869.483
05/13/2014  21:42:00      -53.582      -43.841       -2.840       40.344       36.924       23.538     1627.670     1363.353      554.054        0.417        0.177       69.232       18.864        0.074      342.115       17.299      869.499
05/13/2014  21:43:00      -83.468      -18.987       -3.342       36.786       26.300       19.390     1353.200      691.690      375.973        0.488        0.121       85.600       17.909        0.044      342.184       17.415      869.520
05/13/2014  21:44:00      -82.268      -17.920       -4.122       43.076       31.724       19.222     1855.562     1006.390      369.496        0.517        0.162       84.198       14.060        0.028      342.062       17.208      869.527
05/13/2014  21:45:00     -100.646      -20.193      -13.337       27.530       32.939       24.783      757.924     1084.990      614.214        0.659        0.123      102.651       21.525        0.044      342.077       17.233      869.539
05/13/2014  21:46:00     -117.935      -13.487      -12.067       44.840       30.713       26.160     2010.589      943.275      684.325        0.894        0.182      118.704       25.444        0.046      341.933       16.990      869.547
05/13/2014  21:47:00     -114.015       -1.489       -8.657       40.276       23.109       22.187     1622.159      534.025      492.269        0.786        0.132      114.025       19.018        0.028      341.936       16.995      869.562
05/13/2014  21:48:00      -83.391      -30.273        4.532       38.857       38.080       19.637     1509.845     1450.118      385.624        0.562        0.167       88.716       13.028        0.022      341.997       17.097      869.566
05/13/2014  21:49:00      -77.650      -10.869       -2.614       38.841       25.191       15.771     1508.610      634.584      248.732        0.427        0.120       78.407       15.757        0.040      341.900       16.935      869.571
05/13/2014  21:50:00      -94.103       -3.761       -8.210       34.296       35.652       21.974     1176.208     1271.059      482.871        0.593        0.147       94.179       18.530        0.039      341.985       17.077      869.575
05/13/2014  21:51:00     -116.864      -11.761      -18.956       30.885       40.248       19.901      953.874     1619.873      396.063        0.856        0.148      117.454       15.681        0.018      341.925       16.977      869.588
05/13/2014  21:52:00      -99.558      -17.681      -13.471       27.976       32.337       23.313      782.642     1045.678      543.505        0.639        0.119      101.116       15.249        0.023      341.895       16.925      869.591
05/13/2014  21:53:00      -91.240      -42.289        0.298       35.603       43.115       28.791     1267.551     1858.909      828.950        0.703        0.198      100.564       13.463        0.018      341.781       16.731      869.602
05/13/2014  21:54:00      -73.283      -29.522        7.629       30.548       37.732       21.655      933.199     1423.679      468.950        0.456        0.141       79.006       19.806        0.063      341.721       16.631      869.596
05/13/2014  21:55:00      -35.991        3.302       -6.455       40.897       22.745       19.130     1672.557      517.327      365.965        0.195        0.128       36.142       20.985        0.337      341.548       16.337      869.613
05/13/2014  21:56:00      -60.308       -3.327        2.987       46.314       38.010       27.896     2145.010     1444.795      778.177        0.401        0.218       60.400       21.105        0.122      341.698       16.592      869.607
05/13/2014  21:57:00      -94.522       18.681      -14.777       33.329       40.111       19.739     1110.800     1608.866      389.609        0.630        0.155       96.351       15.116        0.025      341.704       16.601      869.613
05/13/2014  21:58:00      -59.409       -1.097      -12.235       36.985       31.464       23.436     1367.856      989.968      549.254        0.329        0.145       59.419       18.121        0.093      341.765       16.705      869.611
05/13/2014  21:59:00      -55.282        8.104       -2.127       39.555       21.945       19.005     1564.585      481.599      361.201        0.277        0.120       55.873       22.139        0.157      341.806       16.776      869.614
05/13/2014  22:00:00      -94.788      -20.387      -14.169       23.358       19.272       14.257      545.606      371.396      203.268        0.536        0.056       96.956        7.428        0.006      341.872       16.887      869.613
05/13/2014  22:01:00      -72.421      -36.186      -14.155       24.189       21.526       18.492      585.105      463.374      341.968        0.407        0.070       80.958        4.580        0.003      341.834       16.821      869.610
05/13/2014  22:02:00      -88.753      -26.450      -11.486       24.277       32.213       21.745      589.365     1037.706      472.847        0.540        0.105       92.610       10.438        0.013      341.856       16.860      869.615
05/13/2014  22:03:00      -47.617      -18.160       -3.568       19.898       25.895       21.702      395.916      670.562      470.996        0.207        0.077       50.963        9.212        0.033      341.852       16.852      869.608
05/13/2014  22:04:00      -81.058       -8.874       -7.676       28.071       17.564       14.742      787.960      308.511      217.316        0.401        0.066       81.542       13.373        0.027      341.853       16.854      869.620
05/13/2014  22:05:00      -82.261      -29.193       -9.075       38.682       28.172       21.262     1496.319      793.651      452.052        0.522        0.137       87.287       15.859        0.033      341.814       16.787      869.625
05/13/2014  22:06:00      -74.401      -40.519       -8.723       31.370       34.981       25.283      984.082     1223.687      639.205        0.505        0.142       84.719       18.448        0.047      341.792       16.751      869.644
05/13/2014  22:07:00      -96.863      -26.564       -7.357       31.390       29.691       21.277      985.337      881.547      452.696        0.623        0.116      100.439       18.379        0.033      341.768       16.710      869.641
05/13/2014  22:08:00      -84.392      -58.885      -18.105       40.325       29.779       26.082     1626.137      886.764      680.246        0.705        0.160      102.905       13.964        0.018      341.751       16.682      869.650
05/13/2014  22:09:00     -104.650      -36.397      -19.543       29.763       32.513       20.629      885.819     1057.099      425.543        0.751        0.118      110.799       16.204        0.021      341.745       16.671      869.645
05/13/2014  22:10:00     -102.197      -31.809      -13.998       31.164       32.089       24.296      971.185     1029.689      590.272        0.712        0.130      107.033       14.508        0.018      341.735       16.654      869.649
05/13/2014  22:11:00      -98.031      -17.436      -11.027       41.056       38.008       21.039     1685.630     1444.614      442.634        0.680        0.179       99.569       21.878        0.048      341.611       16.444      869.656
05/13/2014  22:12:00      -68.546      -17.494       -0.942       39.056       41.910       25.600     1525.368     1756.455      655.349        0.447        0.197       70.743       24.829        0.123      341.570       16.375      869.663
05/13/2014  22:13:00      -98.623       -0.996       -6.745       42.545       32.699       23.821     1810.085     1069.201      567.445        0.661        0.172       98.628       22.100        0.050      341.654       16.515      869.679
05/13/2014  22:14:00      -52.433      -21.171       -1.172       44.443       32.278       20.924     1975.142     1041.851      437.810        0.333        0.173       56.546       15.335        0.074      341.617       16.453      869.687
05/13/2014  22:15:00      -25.670      -16.325        1.158       36.601       32.768       24.529     1339.624     1073.757      601.677        0.197        0.151       30.422       21.196        0.485      341.609       16.441      869.697
05/13/2014  22:16:00      -67.644       -6.585      -12.839       43.685       26.779       25.331     1908.401      717.123      641.653        0.402        0.163       67.963       26.273        0.149      341.576       16.385      869.706
05/13/2014  22:17:00      -92.201      -27.051      -11.384       33.392       32.520       22.233     1115.030     1057.578      494.295        0.601        0.133       96.087       17.272        0.032      341.621       16.460      869.706
05/13/2014  22:18:00     -108.061      -51.562      -12.365       34.006       48.762       23.170     1156.376     2377.768      536.828        0.928        0.204      119.732       10.043        0.007      341.556       16.351      869.720
05/13/2014  22:19:00      -81.016      -56.515      -18.593       48.236       39.534       26.400     2326.689     1562.921      696.957        0.734        0.229       98.780       23.385        0.056      341.542       16.327      869.723
05/13/2014  22:20:00     -109.302        2.199      -14.084       58.374       29.687       27.027     3407.526      881.322      730.437        0.858        0.251      109.324       31.520        0.083      341.490       16.237      869.735
05/13/2014  22:21:00     -110.495       -2.637      -21.696       23.810       24.408       18.599      566.914      595.731      345.933        0.710        0.075      110.527       11.402        0.011      341.545       16.330      869.743
05/13/2014  22:22:00      -85.283      -19.306      -17.583       34.334       39.481       21.083     1178.801     1558.764      444.512        0.557        0.159       87.441       11.731        0.018      341.476       16.215      869.757
05/13/2014  22:23:00      -95.615        5.565      -10.048       44.793       33.799       21.795     2006.412     1142.362      475.005        0.645        0.181       95.777       19.919        0.043      341.463       16.192      869.779
05/13/2014  22:24:00      -65.073      -18.879       -7.214       50.143       20.312       20.290     2514.279      412.574      411.678        0.399        0.167       67.756       25.953        0.147      341.488       16.235      869.791
05/13/2014  22:25:00      -64.421       -5.083       -0.722       48.783       25.804       23.522     2379.817      665.866      553.284        0.389        0.180       64.621       25.821        0.160      341.333       15.973      869.800
05/13/2014  22:26:00     -102.850      -20.188       -9.022       30.484       31.232       23.160      929.252      975.461      536.384        0.675        0.122      104.812       20.850        0.040      341.443       16.158      869.818
05/13/2014  22:27:00     -128.080       -5.918      -23.659       38.339       28.033       20.357     1469.843      785.865      414.424        0.983        0.134      128.217       20.411        0.025      341.460       16.187      869.823
05/13/2014  22:28:00      -94.116      -16.514       -3.768       42.547       32.186       19.059     1810.231     1035.931      363.251        0.618        0.160       95.554       18.242        0.036      341.356       16.011      869.840
05/13/2014  22:29:00     -104.296      -53.946       -7.120       27.325       25.272       19.742      746.638      638.692      389.732        0.781        0.089      117.422        5.907        0.003      341.458       16.185      869.847
05/13/2014  22:30:00      -79.347      -11.202        2.327       35.554       30.263       23.501     1264.085      915.864      552.296        0.458        0.137       80.134       17.403        0.047      341.422       16.124      869.853
05/13/2014  22:31:00      -59.575      -32.122      -10.215       55.301       36.651       26.243     3058.222     1343.298      688.695        0.489        0.255       67.683       23.776        0.123      341.412       16.107      869.863
05/13/2014  22:32:00     -101.757       -0.404      -17.086       54.628       22.614       22.352     2984.197      511.398      499.623        0.732        0.200      101.758       29.437        0.084      341.416       16.113      869.860
05/13/2014  22:33:00     -125.711       -1.296      -14.910       42.631       27.954       24.541     1817.440      781.450      602.267        0.961        0.160      125.718       17.955        0.020      341.363       16.024      869.864
05/13/2014  22:34:00     -133.934        1.457      -19.573       33.639       29.175       19.565     1131.568      851.169      382.804        1.034        0.118      133.942       14.647        0.012      341.505       16.265      869.860
05/13/2014  22:35:00     -115.050      -15.269      -17.486       38.391       28.521       24.123     1473.866      813.427      581.921        0.832        0.143      116.058       23.874        0.042      341.482       16.223      869.865
05/13/2014  22:36:00      -94.844      -28.344      -13.701       27.361       28.512       20.342      748.601      812.936      413.777        0.598        0.099       98.989       12.398        0.016      341.473       16.210      869.870
05/13/2014  22:37:00      -40.874      -43.861       -4.357       35.630       36.590       22.198     1269.471     1338.806      492.756        0.336        0.155       59.954       21.617        0.130      341.492       16.242      869.883
05/13/2014  22:38:00      -71.327      -28.872      -17.880       24.912       29.713       22.738      620.596      882.847      517.030        0.413        0.101       76.949       14.935        0.038      341.407       16.099      869.900
05/13/2014  22:39:00      -85.276      -11.223       -8.973       37.526       22.962       17.410     1408.179      527.250      303.114        0.486        0.112       86.011        6.263        0.005      341.429       16.135      869.908
05/13/2014  22:40:00     -103.203       -8.021      -18.118       21.832       26.573       16.948      476.634      706.133      287.218        0.626        0.073      103.514        5.676        0.003      341.407       16.098      869.920
05/13/2014  22:41:00      -28.217      -39.332       -0.092       37.374       26.283       20.200     1396.792      690.795      408.038        0.242        0.125       48.406       20.257        0.175      341.300       15.917      869.927
05/13/2014  22:42:00      -64.017      -13.619      -10.736       29.246       26.960       17.883      855.300      726.840      319.790        0.315        0.095       65.450       15.320        0.055      341.307       15.928      869.930
05/13/2014  22:43:00      -58.683      -34.769       -3.481       35.579       34.261       15.565     1265.884     1173.845      242.283        0.367        0.134       68.210       15.351        0.051      341.321       15.952      869.935
05/13/2014  22:44:00      -61.759        7.444      -14.128       29.993       25.465       20.182      899.606      648.442      407.320        0.301        0.098       62.206       11.057        0.032      341.321       15.952      869.929
05/13/2014  22:45:00      -99.363       -2.670      -16.056       31.159       23.913       19.397      970.896      571.811      376.257        0.603        0.096       99.399       16.662        0.028      341.288       15.897      869.923
05/13/2014  22:46:00      -85.518      -20.935       -8.491       35.669       31.385       18.616     1272.284      985.043      346.547        0.521        0.130       88.043       12.618        0.021      341.308       15.931      869.922
05/13/2014  22:47:00      -51.371      -22.283        6.973       43.245       35.173       23.736     1870.143     1237.160      563.406        0.343        0.184       55.995       20.352        0.132      341.149       15.661      869.918
05/13/2014  22:48:00      -72.874      -34.863      -10.952       42.826       38.059       29.996     1834.074     1448.462      899.745        0.541        0.209       80.784       26.447        0.107      341.125       15.621      869.923
05/13/2014  22:49:00      -98.196      -54.019      -19.767       47.006       31.673       22.903     2209.597     1003.199      524.538        0.834        0.187      112.073        6.766        0.004      341.119       15.611      869.923
05/13/2014  22:50:00      -45.634      -56.988      -13.011       57.731       27.085       29.637     3332.857      733.621      878.373        0.522        0.247       73.007       24.621        0.114      341.016       15.437      869.916
05/13/2014  22:51:00      -40.072       -9.424        9.424       34.179       32.001       29.823     1168.185     1024.081      889.417        0.243        0.154       41.165       24.059        0.342      341.075       15.537      869.927
05/13/2014  22:52:00      -63.653      -49.998       -5.283       54.150       36.979       27.065     2932.213     1367.477      732.504        0.580        0.252       80.941       25.480        0.099      341.041       15.477      869.932
05/13/2014  22:53:00      -41.180      -17.998       -4.306       46.218       33.958       26.475     2136.091     1153.121      700.944        0.301        0.200       44.941       21.432        0.227      340.999       15.408      869.936
05/13/2014  22:54:00      -53.534      -33.364        1.343       55.436       35.160       27.290     3073.162     1236.224      744.757        0.452        0.253       63.080       28.421        0.203      340.962       15.346      869.949
05/13/2014  22:55:00      -31.468      -29.290       -4.331       65.688       32.110       29.237     4314.871     1031.031      854.818        0.403        0.310       42.990       37.228        0.750      340.912       15.260      869.956
05/13/2014  22:56:00      -68.930      -62.957      -12.851       28.741       36.257       26.652      826.064     1314.562      710.313        0.586        0.143       93.354       13.985        0.022      340.924       15.280      869.964
05/13/2014  22:57:00      -93.916      -65.087       -4.850       49.805       27.453       21.013     2480.513      753.659      441.564        0.838        0.184      114.265        5.599        0.002      340.858       15.169      869.995
05/13/2014  22:58:00     -126.686      -49.574      -13.021       28.364       21.588       18.739      804.515      466.046      351.165        1.015        0.081      136.040       17.154        0.016      340.864       15.178      870.003
05/13/2014  22:59:00     -106.403      -53.461      -10.694       27.065       34.013       18.767      732.511     1156.900      352.208        0.827        0.112      119.078       14.709        0.015      341.018       15.439      870.010
05/13/2014  23:00:00      -76.181      -77.349        7.261       55.711       42.249       26.877     3103.685     1784.977      722.396        0.872        0.281      108.565       32.303        0.089      341.110       15.595      870.010
05/13/2014  23:01:00     -131.185      -47.115       -3.976       26.325       23.099       18.801      693.017      533.552      353.466        1.051        0.079      139.389       16.693        0.014      341.161       15.682      870.015
05/13/2014  23:02:00      -81.297      -44.857        6.067       44.846       26.342       18.496     2011.131      693.920      342.094        0.585        0.152       92.852       22.748        0.060      341.169       15.696      870.027
05/13/2014  23:03:00      -98.118      -76.578        3.015       34.182       31.499       22.178     1168.401      992.193      491.854        0.908        0.133      124.465       15.672        0.016      341.109       15.595      870.015
05/13/2014  23:04:00     -131.912      -86.244      -11.512       42.272       25.025       19.726     1786.897      626.256      389.118        1.389        0.140      157.603       16.845        0.011      341.030       15.461      870.009
05/13/2014  23:05:00     -137.419      -47.485      -14.224       25.224       20.672       17.336      636.256      427.323      300.530        1.135        0.068      145.392        9.692        0.004      341.011       15.429      870.002
05/13/2014  23:06:00     -126.565      -58.325      -12.512       18.011       29.735       15.674      324.404      884.168      245.680        1.052        0.073      139.357       10.913        0.006      341.014       15.434      870.000
05/13/2014  23:07:00     -133.196      -55.642       -9.304       11.932        9.898        9.223      142.383       97.975       85.061        1.062        0.016      144.351        5.211        0.001      340.975       15.366      870.015
05/13/2014  23:08:00      -99.129      -41.670        1.251       20.896       18.582       11.024      436.643      345.276      121.534        0.623        0.045      107.531       11.021        0.011      340.961       15.342      870.012
05/13/2014  23:09:00     -104.434      -52.036        3.196       32.106       25.158       18.883     1030.797      632.924      356.586        0.782        0.101      116.680       15.692        0.018      340.925       15.282      870.016
05/13/2014  23:10:00      -84.680      -50.591        4.152       57.499       34.214       20.940     3306.132     1170.591      438.480        0.733        0.246       98.641       13.888        0.020      340.806       15.080      870.004
05/13/2014  23:11:00      -84.960      -74.098        1.177       27.421       37.124       19.463      751.898     1378.228      378.815        0.761        0.125      112.733       16.465        0.021      340.782       15.040      869.996
05/13/2014  23:12:00      -99.718      -73.676        1.858       34.500       27.906       20.519     1190.284      778.730      421.050        0.888        0.120      123.983       13.872        0.013      340.773       15.025      870.004
05/13/2014  23:13:00     -110.368      -82.166      -10.596       43.880       36.752       21.712     1925.413     1350.694      471.399        1.140        0.187      137.595       18.189        0.017      340.786       15.046      869.998
05/13/2014  23:14:00      -97.168      -69.026       -2.616       37.708       31.997       23.901     1421.881     1023.802      571.265        0.861        0.151      119.190       18.104        0.023      340.713       14.924      869.993
05/13/2014  23:15:00     -110.524      -83.799        0.534       38.203       24.830       16.518     1459.472      616.538      272.858        1.079        0.117      138.700       15.019        0.012      340.659       14.831      869.996
05/13/2014  23:16:00     -102.730      -53.838       -0.058       37.154       33.821       21.689     1380.446     1143.868      470.433        0.822        0.150      115.982       15.686        0.018      340.625       14.774      869.993
05/13/2014  23:17:00      -65.394      -54.050        9.496       57.459       41.468       28.736     3301.585     1719.617      825.786        0.657        0.292       84.840       28.181        0.110      340.554       14.656      870.005
05/13/2014  23:18:00     -114.730      -81.285        8.194       51.576       30.710       24.189     2660.109      943.116      585.115        1.201        0.209      140.607       26.384        0.035      340.618       14.763      870.007
05/13/2014  23:19:00      -88.132      -63.708       -2.857       49.553       32.538       24.600     2455.462     1058.714      605.175        0.798        0.206      108.747       21.911        0.041      340.644       14.809      869.999
05/13/2014  23:20:00     -137.371      -69.202       -0.064       50.395       35.375       25.927     2539.683     1251.376      672.226        1.406        0.223      153.817       25.434        0.027      340.594       14.723      870.000
05/13/2014  23:21:00     -115.112      -53.100       -2.109       55.021       34.877       25.450     3027.363     1216.417      647.690        1.048        0.245      126.769       22.955        0.033      340.596       14.725      869.995
05/13/2014  23:22:00     -147.398      -59.278       -2.042       38.966       33.167       20.174     1518.338     1100.060      407.001        1.413        0.151      158.872       18.336        0.013      340.567       14.677      869.989
05/13/2014  23:23:00     -182.363      -48.811      -12.901       35.647       39.655       20.074     1270.740     1572.489      402.962        1.953        0.162      188.782       14.791        0.006      340.593       14.721      869.986
05/13/2014  23:24:00     -166.195      -79.344       -4.775       56.056       37.931       26.783     3142.299     1438.779      717.334        1.962        0.265      184.163       29.465        0.026      340.557       14.659      869.973
05/13/2014  23:25:00     -171.017      -72.631        2.632       71.415       45.885       33.210     5100.168     2105.427     1102.919        2.142        0.415      185.801       34.481        0.034      340.414       14.416      869.969
05/13/2014  23:26:00     -188.812      -78.280       -4.750       54.369       31.539       27.390     2956.031      994.688      750.234        2.325        0.235      204.396       26.175        0.016      340.352       14.311      869.972
05/13/2014  23:27:00     -150.348      -81.243       -3.864       65.519       35.677       27.074     4292.731     1272.877      733.017        1.776        0.315      170.894       26.117        0.023      340.325       14.266      869.969
05/13/2014  23:28:00     -126.463      -90.816        0.333       52.859       41.424       33.066     2794.094     1715.977     1093.379        1.492        0.280      155.694       25.519        0.027      340.407       14.405      869.967
05/13/2014  23:29:00     -173.965      -68.355        4.055       53.243       41.213       27.266     2834.843     1698.533      743.437        2.011        0.264      186.912       23.940        0.016      340.372       14.345      869.977
05/13/2014  23:30:00     -173.026      -77.655       -0.357       62.581       37.501       26.755     3916.380     1406.356      715.818        2.100        0.302      189.653       30.697        0.026      340.386       14.370      869.970
05/13/2014  23:31:00     -196.940      -81.627       -3.084       56.420       32.700       27.275     3183.246     1069.321      743.903        2.523        0.250      213.186       26.771        0.016      340.410       14.408      869.962
05/13/2014  23:32:00     -162.883      -81.932        0.614       56.579       48.411       33.058     3201.159     2343.621     1092.847        1.994        0.332      182.328       28.166        0.024      340.352       14.312      869.955
05/13/2014  23:33:00     -206.291      -67.581        1.716       41.566       42.600       26.742     1727.696     1814.734      715.122        2.569        0.213      217.078       22.559        0.011      340.354       14.314      869.969
05/13/2014  23:34:00     -170.996      -75.603        2.303       59.391       42.541       30.818     3527.338     1809.705      949.747        2.062        0.314      186.964       33.895        0.033      340.365       14.331      869.969
05/13/2014  23:35:00     -150.341      -78.389       -4.854       66.104       50.018       31.919     4369.779     2501.775     1018.823        1.833        0.395      169.550       30.248        0.032      340.337       14.287      869.969
05/13/2014  23:36:00     -168.767      -83.422       -0.531       51.725       41.071       26.721     2675.468     1686.856      713.992        2.026        0.254      188.259       26.547        0.020      340.303       14.229      869.972
05/13/2014  23:37:00     -186.145      -72.525       -5.735       41.421       28.609       23.501     1715.659      818.468      552.297        2.151        0.154      199.775       18.419        0.009      340.285       14.199      869.980
05/13/2014  23:38:00     -172.235      -74.903       -5.791       40.844       27.530       20.452     1668.265      757.912      418.289        1.908        0.142      187.818       20.375        0.012      340.260       14.157      869.992
05/13/2014  23:39:00     -155.332      -76.930       -5.933       43.948       27.641       21.974     1931.467      764.040      482.864        1.663        0.159      173.339       20.436        0.014      340.231       14.108      869.992
05/13/2014  23:40:00     -174.463      -75.135      -10.466       29.465       34.984       19.705      868.170     1223.911      388.287        1.934        0.124      189.954       17.480        0.008      340.245       14.132      869.988
05/13/2014  23:41:00     -174.082      -51.115      -21.701       34.521       27.297       17.986     1191.708      745.108      323.493        1.782        0.113      181.431       16.293        0.008      340.282       14.195      869.989
05/13/2014  23:42:00     -149.124      -32.187       -6.631       41.883       34.723       24.142     1754.177     1205.674      582.823        1.343        0.177      152.558       23.085        0.023      340.243       14.129      869.991
05/13/2014  23:43:00     -149.114      -60.257       -8.424       38.658       29.034       20.293     1494.422      842.993      411.817        1.434        0.137      160.828       16.482        0.011      340.261       14.159      870.011
05/13/2014  23:44:00     -154.687      -37.624       -7.932       45.006       33.353       20.306     2025.562     1112.445      412.329        1.448        0.178      159.197       23.856        0.022      340.291       14.209      870.018
05/13/2014  23:45:00     -134.453      -37.491       -3.797       39.923       33.438       20.740     1593.873     1118.120      430.128        1.132        0.157      139.582       19.579        0.020      340.284       14.199      870.016
05/13/2014  23:46:00     -127.260      -48.004       -2.629       44.279       32.547       21.806     1960.600     1059.335      475.523        1.100        0.175      136.013       23.416        0.030      340.324       14.266      870.009
05/13/2014  23:47:00     -137.799      -43.728       -9.382       37.404       29.758       17.150     1399.031      885.524      294.122        1.178        0.129      144.571       14.518        0.010      340.294       14.214      870.011
05/13/2014  23:48:00     -138.879      -69.649       -6.668       35.107       32.499       18.487     1232.518     1056.188      341.765        1.341        0.132      155.365       17.784        0.013      340.268       14.171      870.014
05/13/2014  23:49:00     -165.527      -41.835       -8.097       34.279       28.518       21.934     1175.027      813.293      481.108        1.584        0.123      170.731       18.309        0.012      340.204       14.064      870.037
05/13/2014  23:50:00     -165.413      -53.448       -6.539       27.317       30.457       18.159      746.225      927.614      329.764        1.613        0.100      173.834       10.320        0.004      340.179       14.020      870.046
05/13/2014  23:51:00     -136.684      -40.022        2.884       54.788       33.065       23.725     3001.709     1093.304      562.886        1.247        0.233      142.423       25.417        0.032      340.084       13.860      870.063
05/13/2014  23:52:00     -117.017      -80.235       -5.998       42.106       40.470       24.629     1772.934     1637.857      606.580        1.209        0.201      141.882       19.982        0.020      340.085       13.862      870.072
05/13/2014  23:53:00     -120.540      -55.107        3.992       43.904       26.918       22.487     1927.599      724.570      505.673        1.037        0.158      132.540       23.697        0.032      340.019       13.750      870.080
05/13/2014  23:54:00     -138.830      -38.627       -9.274       26.541       24.069       15.328      704.435      579.305      234.960        1.119        0.076      144.104       12.119        0.007      340.027       13.764      870.089
05/13/2014  23:55:00     -144.080      -58.265       -1.581       29.265       24.780       14.877      856.426      614.039      221.315        1.292        0.085      155.415       14.177        0.008      340.003       13.724      870.098
05/13/2014  23:56:00     -122.709      -65.988       -8.283       32.902       23.566       15.772     1082.556      555.364      248.759        1.068        0.094      139.326       15.915        0.013      339.944       13.625      870.107
05/13/2014  23:57:00     -113.150      -47.356      -12.603       25.698       28.669       16.800      660.410      821.897      282.227        0.848        0.088      122.660       12.705        0.011      339.955       13.643      870.101
05/13/2014  23:58:00     -115.523      -53.521      -15.921       15.833       22.823       11.217      250.674      520.882      125.812        0.868        0.045      127.319       11.611        0.008      339.874       13.506      870.097
05/13/2014  23:59:00     -107.393      -37.502      -15.578       23.217       24.146       17.468      539.025      583.024      305.133        0.730        0.071      113.753       10.785        0.009      339.846       13.460      870.095
